[[{"header":{"parameterUnit":"m.s-1","parameterCategory":1,"la1":30.6,"la2":29.2853,"lo1":-89.7004,"lo2":-87.6739,"dy":0.0162,"dx":0.0183,"nx":112,"ny":82,"refTime":"2024-08-24T00:00:00:Z","depth":0,"parameterNumber":2,"parameterNumberName":"U-component_of_WINDS"},"data":[0.0,0.0,0.0,0.0,0.0,0.0,0.0,0.0,0.0,0.0,0.0,0.0,0.0,0.0,0.0,0.0,0.0,0.0,0.0,0.0,0.0,0.0,0.0,0.0,0.0,0.0,0.0,0.0,0.0,0.0,0.0,0.0,0.0,0.0,0.0,0.0,0.0,0.0,0.0,0.0,0.0,0.0,0.0,0.0,0.0,0.0,0.0,0.0,0.0,0.0,0.0,0.0,0.0,0.0,0.0,0.0,0.0,0.0,0.0,0.0,0.0,0.0,0.0,0.0,0.0,0.0,0.0,0.0,0.0,0.0,0.0,0.0,0.0,0.0,0.0,0.0,0.0,0.0,0.0,0.0,0.0,0.0,0.0,0.0,0.0,0.0,0.0,0.0,0.0,0.0,0.0,-0.0022,0.0,0.0,0.0,0.0,0.0,0.0,0.0,0.0,0.0,0.0,0.0,0.0,0.0,0.0,0.0,0.0,0.0,0.0,0.0,0.0,0.0,0.0,0.0,0.0,0.0,0.0,0.0,0.0,0.0,0.0,0.0,0.0,0.0,0.0,0.0,0.0,0.0,0.0,0.0,0.0,0.0,0.0,0.0,0.0,0.0,0.0,0.0,0.0,0.0,0.0,0.0,0.0,0.0,0.0,0.0,0.0,0.0,0.0,0.0,0.0,0.0,0.0,0.0,0.0,0.0,0.0,0.0,0.0,0.0,0.0,0.0,0.0,0.0,0.0,0.0,0.0,0.0,0.0,0.0,0.0,0.0,0.0,0.0,0.0,0.0,0.0,0.0,0.0,0.0,0.0,0.0,0.0,0.0,0.0,0.0,0.0,0.0,0.0,0.0,0.0,0.0,0.0,0.0,0.0,0.0,0.0,0.0,0.0,0.0,0.0,-0.1013,-0.0106,0.0,0.0,0.0,0.0,0.0,0.0,0.0,0.0,0.0,0.0,0.0,0.0,0.0,0.0,0.0,0.0,0.0,0.0,0.0,0.0,0.0,0.0,0.0,0.0,0.0,0.0,0.0,0.0,0.0,0.0,0.0,0.0,0.0,0.0,0.0,0.0,0.0,0.0,0.0,0.0,0.0,0.0,0.0,0.0,0.0,0.0,0.0,0.0,0.0,0.0,0.0,0.0,0.0,0.0,0.0,0.0,0.0,0.0,0.0,0.0,0.0,0.0,0.0,0.0,0.0,0.0,0.0,0.0,0.0,0.0,0.0,0.0,0.0,0.0,0.0,0.0,0.0,0.0,0.0,0.0,0.0,0.0,0.0,0.0,0.0,0.0,0.0,0.0,0.0,0.0,0.0,0.0,0.0,0.0,0.0,0.0,0.0,0.0,0.0,0.0,0.0,0.0,0.0,0.0,0.0,0.0,0.0,0.0,0.0,-0.1534,-0.1196,-0.0105,0.0,0.0,0.0,0.0,0.0,0.0,0.0382,0.0,0.0,0.0,0.0,0.0,0.0,0.0,0.0,0.0,0.0,0.0,0.0,0.0,0.0,0.0,0.0,0.0,0.0,0.0,0.0,0.0,0.0,0.0,0.0,0.0,0.0,0.0,0.0,0.0,0.0,0.0,0.0,0.0,0.0,0.0,0.0,0.0,0.0,0.0,0.0,0.0,0.0,0.0,0.0,0.0,0.0,0.0,0.0,0.0,0.0,0.0,0.0,0.0,0.0,0.0,0.0,0.0,0.0,0.0,0.0,0.0,0.0,0.0,0.0,0.0,0.0,0.0,0.0,0.0,0.0,0.0,0.0,0.0,0.0,0.0,0.0,0.0,0.0,0.0,0.0,0.0,0.0,0.0,0.0,0.0,0.0,0.0,0.0,0.0,0.0,0.0,0.0,0.0,0.0,0.0,0.0,0.0,0.0,0.0,0.0,0.0,0.0,-0.2171,-0.1708,-0.0883,-0.0557,-0.0382,-0.0371,-0.0139,0.0,0.0,0.0,0.0,0.0,0.0,0.0,0.0,0.0,0.0,0.0,0.0,0.0,0.0,0.0,0.0,0.0,0.0,0.0,0.0,0.0,0.0,0.0,0.0,0.0,0.0,0.0,0.0,0.0,0.0,0.0,0.0,0.0,0.0,0.0,0.0,0.0,0.0,0.0,0.0,0.0,0.0,0.0,0.0,0.0,0.0,0.0,0.0,0.0,0.0,0.0,0.0,0.0,0.0,0.0,0.0,0.0,0.0,0.0,0.0,0.0,0.0,0.0,0.0,0.0,0.0,0.0,0.0,0.0,0.0,0.0,0.0,0.0,0.0,0.0,0.0,0.0,0.0,0.0,0.0,0.0,0.0,0.0,0.0,0.0,0.0,0.0,0.0,0.0,0.0,0.0,0.0,0.0,0.0,0.0,0.0,0.0,0.0,0.0,0.0,0.0,0.0,0.0,0.0,0.0,-0.3846,-0.3236,-0.317,-0.2159,-0.1495,-0.1483,-0.057,0.0,0.0,0.0,0.0,0.0,0.0,0.0,0.0,0.0,0.0,0.0,0.0,0.0,0.0,0.0,0.0,0.0,0.0,0.0,0.0,0.0,0.0,0.0,0.0,0.0,0.0,0.0,0.0,0.0,0.0,0.0,0.0,0.0,0.0,0.0,0.0,0.0,0.0,0.0,0.0,0.0,0.0,0.0,0.0,0.0,0.0,0.0,0.0,0.0,0.0,0.0,0.0,0.0,0.0,0.0,0.0,0.0,0.0,0.0,0.0,0.0,0.0,0.0,0.0,0.0,0.0,0.0,0.0,0.0,0.0,0.0,0.0,0.0,0.0,0.0,0.0,0.0,0.0,0.0,0.0,0.0,0.0,0.0,0.0,0.0,0.0,0.0,0.0,0.0,0.0,0.0,0.0,0.0,0.0,0.0,0.0,0.0,0.0,0.0,0.0,0.0,0.0,0.0,0.0,0.0,-0.4761,-0.4312,0.0,-0.2936,-0.238,-0.1667,-0.1237,-0.072,-0.0036,0.0,0.0,0.0,0.0,0.0,0.0,0.0,0.0,0.0,0.0,0.0,0.0,0.0,0.0,0.0,0.0,0.0,0.0,0.0,0.0,0.0,0.0,0.0,0.0,0.0,0.0,0.0,0.0,0.0,0.0,0.0,0.0,0.0,0.0,0.0,0.0,0.0,0.0,0.0,0.0,0.0,0.0,0.0,0.0,0.0,0.0,0.0,0.0,0.0,0.0,0.0,0.0,0.0,0.0,0.0,0.0,0.0,0.0,0.0,0.0,0.0,0.0,0.0,0.0,0.0,0.0,0.0,0.0,0.0,0.0,0.0,0.0,0.0,0.0,0.0,0.0,0.0,0.0,0.0,0.0,0.0,0.0,0.0,0.0,0.0,0.0,0.0,0.0,0.0,0.0,0.0,0.0,0.0,0.0,0.0,0.0,0.0,0.0,0.0,0.0,0.0,0.0,-0.556,-0.5752,-0.5532,0.0,-0.404,-0.3478,-0.2657,-0.2264,-0.1744,-0.0973,0.0,0.0,0.0,0.0,0.0,0.0,0.0,0.0,0.0,0.0,0.0,0.0,0.0,0.0,0.0,0.0,0.0,0.0,0.0,0.0,0.0,0.0,0.0,0.0,0.0,0.0,0.0,0.0,0.0,0.0,0.0,0.0,0.0,0.0,0.0,0.0,0.0,0.0,0.0,0.0,0.0,0.0,0.0,0.0,0.0,0.0,0.0,0.0,0.0,0.0,0.0,0.0,0.0,0.0,0.0,0.0,0.0,0.0,0.0,0.0,0.0,0.0,0.0,0.0,0.0,0.0,0.0,0.0,0.0,0.0,0.0,0.0,0.0,0.0,0.0,0.0,0.0,0.0,0.0,0.0,0.0,0.0,0.0,0.0,0.0,0.0,0.0,0.0,0.0,0.0,0.0,0.0,0.0,0.0,0.0,0.0,0.0,0.0,0.0,0.0,0.0,0.0,-0.6702,-0.6938,-0.7009,-0.6732,-0.5624,-0.4869,-0.471,-0.3734,-0.3047,0.0,0.0,0.0,0.0,0.0,0.0,0.0,0.0,0.0,0.0,0.0,0.0,0.0,0.0,0.0,0.0,0.0,0.0,0.0,0.0,0.0,0.0,0.0,0.0,0.0,0.0,0.0,0.0,0.0,0.0,0.0,0.0,0.0,0.0,0.0,0.0,0.0,0.0,0.0,0.0,0.0,0.0,0.0,0.0,0.0,0.0,0.0,0.0,0.0,0.0,0.0,0.0,0.0,0.0,0.0,0.0,0.0,0.0,0.0,0.0,0.0,0.0,0.0,0.0,0.0,0.0,0.0,0.0,0.0,0.0,0.0,0.0,0.0,0.0,0.0,0.0,0.0,0.0,0.0,0.0,0.0,0.0,0.0,0.0,0.0,0.0,0.0,0.0,0.0,0.0,0.0,0.0,0.0,0.0,0.0,0.0,0.0,0.0,0.0,0.0,0.0,0.0,0.0,-0.6725,-0.7149,-0.7268,-0.6756,-0.639,-0.5779,-0.4793,-0.4407,-0.3844,-0.2952,0.0,0.0,0.0,0.0,0.0,0.0,0.0,0.0,0.0,0.0,0.0,0.0,0.0,0.0,0.0,0.0,0.0,0.0,0.0,0.0,0.0,0.0,0.0,0.0,0.0,0.0,0.0,0.0,0.0,0.0,0.0,0.0,0.0,0.0,0.0,0.0,0.0,0.0,0.0,0.0,0.0,0.0,0.0,0.0,0.0,0.0,0.0,0.0,0.0,0.0,0.0,0.0,0.0,0.0,0.0,0.0,0.0,0.0,0.0,0.0,0.0,0.0,0.0,0.0,0.0,0.0,0.0,0.0,0.0,0.0,0.0,0.0,0.0,0.0,0.0,0.0,0.0,0.0,0.0,0.0,0.0,0.0,0.0,0.0,0.0,0.0,0.0,0.0,0.0,0.0,0.0,0.0,0.0,0.0,0.0,0.0,0.0,0.0,0.0,0.0,0.0,0.0,-0.6877,-0.7299,-0.7414,-0.6908,-0.677,-0.6355,-0.5483,-0.536,-0.4996,-0.4192,0.0,0.0,0.0,0.0,0.0,0.0,0.0,0.0,0.0,0.0,0.0,0.0,0.0,0.0,0.0,0.0,0.0,0.0,0.0,0.0,0.0,0.0,0.0,0.0,0.0,0.0,0.0,0.0,0.0,0.0,0.0,0.0,0.0,0.0,0.0,0.0,0.0,0.0,0.0,0.0,0.0,0.0,0.0,0.0,0.0,0.0,0.0,0.0,0.0,0.0,0.0,0.0,0.0,0.0,0.0,0.0,0.0,0.0,0.0,0.0,0.0,0.0,0.0,0.0,0.0,0.0,0.0,0.0,0.0,0.0,0.0,0.0,0.0,0.0,0.0,0.0,0.0,0.0,0.0,0.0,0.0,0.0,0.0,0.0,0.0,0.0,0.0,0.0,0.0,0.0,0.0,0.0,0.0,0.0,0.0,0.0,0.0,0.0,0.0,0.0,0.0,0.0,-0.7098,-0.7384,-0.7482,-0.7129,-0.6853,-0.6637,-0.6505,-0.6381,-0.6219,-0.6042,0.0,0.0,0.0,0.0,0.0,0.0,0.0,0.0,0.0,0.0,0.0,0.0,0.0,0.0,0.0,0.0,0.0,0.0,0.0,0.0,0.0,0.0,0.0,0.0,0.0,0.0,0.0,0.0,0.0,0.0,0.0,0.0,0.0,0.0,0.0,0.0,0.0,0.0,0.0,0.0,0.0,0.0,0.0,0.0,0.0,0.0,0.0,0.0,0.0,0.0,0.0,0.0,0.0,0.0,0.0,0.0,0.0,0.0,0.0,0.0,-1.3455,0.0,0.0,0.0,0.0,0.0,0.0,0.0,0.0,0.0,0.0,0.0,0.0,0.0,0.0,0.0,0.0,0.0,0.0,0.0,0.0,0.0,0.0,0.0,0.0,0.0,0.0,0.0,0.0,0.0,0.0,0.0,0.0,0.0,0.0,0.0,0.0,0.0,0.0,0.0,0.0,0.0,-0.7112,-0.7384,-0.7482,-0.7129,-0.6853,-0.6637,-0.6505,-0.6381,-0.6286,-0.6233,-0.6064,0.0,0.0,0.0,0.0,0.0,0.0,0.0,0.0,0.0,0.0,0.0,0.0,0.0,0.0,0.0,0.0,0.0,0.0,0.0,0.0,0.0,0.0,0.0,0.0,0.0,0.0,0.0,0.0,0.0,0.0,0.0,0.0,0.0,0.0,0.0,0.0,0.0,0.0,0.0,0.0,0.0,0.0,0.0,0.0,0.0,0.0,0.0,0.0,0.0,0.0,0.0,0.0,0.0,0.0,0.0,0.0,0.0,0.0,0.0,0.0,-1.45,0.0,0.0,0.0,0.0,0.0,0.0,0.0,0.0,0.0,0.0,0.0,0.0,0.0,0.0,0.0,0.0,0.0,0.0,0.0,0.0,0.0,0.0,0.0,0.0,0.0,0.0,0.0,0.0,0.0,0.0,0.0,0.0,0.0,0.0,0.0,0.0,0.0,0.0,0.0,0.0,-0.7432,-0.7543,-0.7539,-0.7357,-0.7009,-0.6776,-0.6698,-0.6576,-0.6491,-0.6491,-0.6325,0.0,0.0,0.0,0.0,0.0,0.0,0.0,0.0,0.0,0.0,0.0,0.0,0.0,0.0,0.0,0.0,0.0,0.0,0.0,0.0,0.0,0.0,0.0,0.0,0.0,0.0,0.0,0.0,0.0,0.0,0.0,0.0,0.0,0.0,0.0,0.0,0.0,0.0,0.0,0.0,0.0,0.0,0.0,0.0,0.0,0.0,0.0,0.0,0.0,0.0,0.0,0.0,0.0,-1.7869,-1.7702,-1.733,-1.7382,-1.7261,-1.6988,-1.647,-1.5794,-1.4914,0.0,0.0,0.0,0.0,0.0,0.0,0.0,0.0,0.0,0.0,0.0,0.0,0.0,0.0,0.0,0.0,0.0,0.0,0.0,0.0,0.0,0.0,0.0,0.0,0.0,-0.854,-0.8387,0.0,0.0,0.0,0.0,0.0,0.0,0.0,0.0,0.0,0.0,0.0,0.0,-0.778,-0.7709,-0.7628,-0.76,-0.7396,-0.7146,-0.6911,-0.6954,-0.6916,-0.6739,-0.662,-0.6593,0.0,0.0,0.0,0.0,0.0,0.0,0.0,0.0,0.0,0.0,0.0,0.0,0.0,0.0,0.0,0.0,0.0,0.0,0.0,0.0,0.0,0.0,0.0,0.0,0.0,0.0,0.0,0.0,0.0,0.0,0.0,0.0,-1.9193,-1.878,0.0,0.0,0.0,0.0,0.0,0.0,0.0,0.0,0.0,0.0,0.0,0.0,0.0,-1.8002,-1.837,-1.8617,-1.8617,-1.8377,-1.892,-1.8165,-1.6299,-1.6553,-1.5904,-1.4635,-1.4572,0.0,-1.5077,-1.3875,0.0,0.0,0.0,0.0,0.0,0.0,0.0,0.0,0.0,0.0,0.0,0.0,0.0,0.0,0.0,0.0,0.0,0.0,0.0,0.0,0.0,0.0,-0.8767,-0.8703,-0.8754,-0.8787,0.0,-0.835,-0.8196,-0.8155,0.0,0.0,0.0,0.0,0.0,0.0,0.0,0.0,-0.7804,-0.7794,-0.7736,-0.7611,-0.8226,-0.8168,-0.7004,-0.7693,-0.7799,-0.6931,-0.6857,-0.6983,-0.7263,-0.7122,0.0,0.0,0.0,0.0,0.0,0.0,0.0,0.0,0.0,0.0,0.0,0.0,0.0,0.0,0.0,0.0,0.0,0.0,0.0,0.0,0.0,0.0,0.0,0.0,0.0,0.0,0.0,0.0,0.0,-1.8177,-1.9079,-1.7845,-1.8012,-1.7815,0.0,0.0,0.0,0.0,0.0,0.0,0.0,0.0,0.0,-1.8764,-1.8791,-1.8535,-1.7999,-1.8116,-1.763,-1.6535,-1.6728,-1.6316,-1.5365,-1.5402,-1.5064,-1.4418,-1.4418,-1.4082,-1.345,-1.2819,-1.1475,-0.9792,0.0,0.0,0.0,0.0,-0.8988,-0.9022,-0.9232,-0.9244,0.0,0.0,0.0,0.0,0.0,0.0,0.0,0.0,0.0,0.0,0.0,0.0,0.0,-0.8804,-0.8862,-0.8892,-0.8825,-0.871,-0.8594,0.0,-0.835,-0.8209,-0.7959,0.0,0.0,0.0,0.0,0.0,-0.7905,-0.7841,-0.7787,-0.7726,-0.7928,-0.7823,-0.7228,-0.7483,-0.7523,-0.7211,-0.718,-0.7275,-0.7515,-0.7434,-0.7374,0.0,0.0,0.0,0.0,0.0,0.0,0.0,0.0,0.0,0.0,0.0,0.0,0.0,0.0,0.0,0.0,0.0,0.0,0.0,0.0,0.0,0.0,0.0,0.0,0.0,0.0,0.0,0.0,-1.7893,-1.8655,-1.7318,-1.7789,-1.7922,0.0,0.0,0.0,0.0,0.0,0.0,-1.7766,-1.7374,-1.7527,-1.8369,-1.8394,-1.801,-1.7179,-1.7092,-1.6401,-1.5118,-1.4925,-1.4637,-1.4264,-1.4146,-1.3897,-1.3509,-1.3509,-1.2812,-1.1724,-1.182,-1.0826,-0.9288,-0.9125,-0.9058,-0.9044,-0.9284,-0.9328,-0.9335,-0.9574,-0.9639,-0.9598,-0.9517,0.0,-0.922,-0.9083,0.0,0.0,0.0,0.0,-0.8849,-0.8964,-0.8855,-0.877,-0.8885,-0.8912,-0.8912,-0.8912,-0.8912,-0.8845,0.0,-0.8659,-0.8578,-0.8243,0.0,0.0,0.0,0.0,-0.7888,-0.7975,-0.7915,-0.7831,-0.7814,-0.7869,-0.7811,-0.7477,-0.759,-0.7595,-0.747,-0.7488,-0.7559,-0.7648,-0.7692,-0.7692,-0.7655,0.0,0.0,0.0,0.0,0.0,0.0,0.0,0.0,0.0,0.0,0.0,0.0,0.0,0.0,0.0,0.0,0.0,0.0,0.0,0.0,0.0,0.0,0.0,0.0,0.0,0.0,0.0,0.0,0.0,-1.8431,-1.8656,0.0,0.0,0.0,0.0,-1.8377,-1.69,-1.6349,-1.7208,-1.5677,-1.5069,-1.5682,-1.5697,-1.5778,-1.598,-1.574,-1.5575,-1.5474,-1.516,-1.421,-1.2812,-1.2804,-1.1968,-1.051,-1.051,-1.0478,-1.0472,-1.1555,-1.1044,-0.9588,-0.9578,-0.9486,-0.9395,-0.9683,-0.9703,-0.9608,-0.9727,-0.9694,-0.9632,-0.9727,-0.9605,-0.9396,-0.939,-0.9288,0.0,0.0,-0.9193,-0.9187,-0.9197,-0.9035,-0.8902,-0.8909,-0.8912,-0.8912,-0.8912,-0.8912,-0.8906,0.0,-0.8777,-0.8703,-0.8679,0.0,-0.8281,-0.8274,-0.8123,-0.7982,-0.7988,-0.7982,-0.7949,-0.7804,-0.8752,-0.8894,-0.7695,-0.8567,-0.8726,-0.7657,-0.7716,-0.779,-0.7801,-0.7915,-0.7922,-0.7804,-0.7794,0.0,0.0,0.0,0.0,0.0,0.0,0.0,0.0,0.0,0.0,0.0,0.0,0.0,0.0,0.0,0.0,0.0,0.0,0.0,0.0,0.0,0.0,0.0,0.0,0.0,0.0,0.0,0.0,-1.908,-1.9472,0.0,-1.8951,-1.8965,-1.8627,-1.774,-1.725,-1.6716,-1.6147,-1.5508,-1.5363,-1.576,-1.5765,-1.5256,-1.4227,-1.4132,-1.3516,-1.2417,-1.2206,-1.1807,-1.1266,-1.1198,-1.0841,-1.0312,-1.0312,-1.0312,-1.033,-1.0752,-1.0559,-1.0042,-1.0042,-0.9947,-0.9795,-0.99,-0.9842,-0.9721,-0.9771,-0.9758,-0.9724,-0.9775,-0.9044,-0.8118,-0.8118,-0.7337,-0.6439,-0.6439,-0.6362,-0.6296,-0.629,-0.6198,-0.6306,-0.7249,-0.7485,-0.7737,-0.8688,-0.8912,-0.8912,-0.8912,-0.8869,-0.8798,-0.8726,-0.8621,-0.8489,-0.8325,-0.825,-0.815,-0.8027,-0.7988,-0.7993,-0.7939,-0.8205,-0.822,-0.7763,-0.8023,-0.8079,-0.7753,-0.7784,-0.7831,-0.7929,-0.7986,-0.7989,-0.7935,-0.7837,-0.776,0.0,0.0,0.0,0.0,0.0,0.0,0.0,0.0,0.0,0.0,0.0,0.0,0.0,0.0,0.0,0.0,0.0,0.0,0.0,0.0,0.0,0.0,0.0,0.0,0.0,0.0,-1.9655,-1.9555,-2.0027,-2.0154,-1.9602,-1.9255,-1.8632,-1.7583,-1.6595,-1.5652,-1.479,-1.4198,-1.3967,-1.4129,-1.4166,-1.3582,-1.2446,-1.2413,-1.1828,-1.0684,-1.0616,-1.0568,-1.0565,-1.0473,-1.0429,-1.0429,-1.0429,-1.0429,-1.0429,-1.0429,-1.0429,-1.0422,-1.0403,-1.0259,-1.0096,-1.0096,-0.9998,-0.9798,-0.919,-0.8988,-0.8897,-0.8316,-0.7426,-0.6566,-0.6566,-0.5772,-0.4885,-0.4885,-0.4801,-0.4702,-0.4711,-0.4613,-0.4738,-0.5736,-0.5967,-0.6237,-0.7213,-0.7426,-0.7568,-0.8069,-0.8546,-0.8879,-0.8777,-0.8716,-0.8645,-0.8475,-0.8359,-0.826,-0.813,-0.8047,-0.7988,-0.7988,-0.7922,-0.7864,-0.7864,-0.7776,-0.7763,-0.7858,-0.7864,-0.7908,-0.7985,-0.7988,-0.7988,-0.7988,-0.7915,-0.7912,-0.8038,0.0,0.0,0.0,0.0,0.0,0.0,0.0,0.0,0.0,0.0,0.0,0.0,0.0,0.0,0.0,0.0,0.0,0.0,0.0,0.0,0.0,0.0,0.0,-1.8553,-1.9552,-2.002,-1.9718,-2.0182,-2.0308,-1.9744,-1.8392,-1.765,-1.7931,-1.4836,-1.3005,-1.3218,-1.1633,-1.0688,-1.0688,-1.0688,-1.0688,-1.0688,-1.0688,-1.0688,-1.0688,-1.0688,-1.0688,-1.0688,-1.0688,-1.0688,-1.0688,-1.0688,-1.0688,-1.0688,-1.0688,-1.0688,-1.0707,-1.0558,-1.0412,-1.0318,-1.0318,-1.0153,-0.9681,-0.7986,-0.736,-0.7055,-0.5437,-0.4855,-0.4826,-0.4826,-0.4794,-0.4732,-0.4732,-0.4651,-0.4566,-0.4564,-0.4452,-0.4381,-0.4426,-0.4436,-0.4447,-0.4492,-0.4507,-0.4923,-0.6348,-0.7771,-0.8805,-0.8885,-0.876,-0.8662,-0.8683,-0.8469,0.0,-0.8298,-0.814,-0.7995,-0.7988,-0.7988,-0.7988,-0.7988,-0.7988,-0.7988,-0.7988,-0.7988,-0.7992,-0.7995,-0.8027,-0.803,-0.8012,-0.799,-0.8103,-0.8437,0.0,0.0,0.0,0.0,0.0,0.0,0.0,0.0,0.0,0.0,0.0,0.0,0.0,0.0,0.0,0.0,0.0,0.0,0.0,0.0,0.0,-1.4673,-1.5562,-1.6017,-1.7582,-1.8253,-1.7094,-1.7131,-1.7159,-1.6995,-1.6626,-1.5885,-1.4725,-1.3728,-1.2657,-1.1468,-1.0949,-1.0688,-1.0688,-1.0688,-1.0688,-1.0688,-1.0688,-1.0688,-1.0688,-1.0688,-1.0688,-1.0688,-1.0688,-1.0688,-1.0688,-1.0688,-1.0688,-1.0688,-1.0688,-1.0688,-1.0684,-1.0673,-1.0565,-1.0465,-1.0465,-0.9529,-0.8174,-0.7585,-0.6597,-0.5498,-0.5039,-0.412,-0.3169,-0.3169,-0.2309,-0.1356,-0.1356,-0.1321,-0.1283,-0.1298,-0.126,-0.1519,-0.2576,-0.2827,-0.3144,-0.4256,-0.4513,-0.4628,-0.5032,-0.5441,-0.6395,-0.8535,-0.7984,-0.7591,-0.8561,-0.8642,0.0,-0.8325,-0.826,-0.8163,-0.8027,-0.7988,-0.7988,-0.7988,-0.7988,-0.7988,-0.7988,-0.7988,-0.8064,-0.8204,-0.8306,-0.8411,-0.8497,-0.7469,-0.691,0.0,0.0,0.0,0.0,0.0,0.0,0.0,0.0,0.0,0.0,0.0,0.0,0.0,0.0,0.0,0.0,0.0,0.0,0.0,0.0,0.0,0.0,-1.342,-1.3979,-1.3306,-1.5486,-1.6866,-1.5995,-1.5913,-1.5913,-1.5913,-1.5237,-1.4395,-1.3386,-1.2606,-1.1762,-1.0754,-1.0688,-1.0688,-1.0688,-1.0688,-1.0688,-1.0688,-1.0688,-1.0688,-1.0688,-1.0688,-1.0688,-1.0688,-1.0688,-1.0688,0.0,-1.0688,-1.0688,-1.0688,-1.0688,-1.0688,0.0,0.0,0.0,0.0,0.0,-0.814,-0.6353,-0.5607,-0.4715,-0.3784,-0.3083,-0.2217,-0.1448,-0.1448,-0.0771,0.0,0.0,0.0,0.0,0.0,0.0,-0.0212,-0.1073,-0.1277,-0.1511,-0.241,-0.2612,-0.2788,-0.343,0.0,0.0,-0.6533,-0.634,-0.604,-0.6832,-0.7407,-0.7725,-0.7574,-0.803,-0.8352,-0.8235,-0.8199,-0.8199,-0.8199,-0.8199,0.0,0.0,0.0,-0.8073,-0.7578,-0.7627,0.0,0.0,0.0,0.0,0.0,0.0,0.0,0.0,-0.4431,-0.4357,0.0,0.0,0.0,0.0,0.0,0.0,0.0,0.0,0.0,0.0,0.0,0.0,0.0,0.0,0.0,0.0,-1.1722,-1.2329,-1.0895,-1.3353,-1.5302,-1.5302,-1.5302,-1.5302,-1.5302,-1.3905,-1.2997,-1.2997,-1.1567,-1.0688,-1.0688,0.0,0.0,0.0,0.0,-1.0688,-1.0688,-1.0688,-1.0688,-1.0688,-1.0688,-1.0688,-1.0688,-1.0688,-1.0688,-1.0688,-1.0688,-1.0688,-1.0688,-1.0688,-1.0585,-1.0416,-1.0416,-1.0416,-1.0164,-0.8208,-0.6278,-0.4432,-0.3012,0.0,0.0,-0.0497,0.0,0.0,0.0,0.0,0.0,0.0,0.0,0.0,0.0,0.0,0.0,0.0,0.0,0.0,0.0,0.0,-0.0385,-0.1683,-0.0886,-0.0855,-0.3528,-0.4128,-0.4296,-0.4484,-0.5501,-0.6258,-0.6234,-0.7271,-0.8019,-0.8006,0.0,0.0,-0.7999,-0.7999,-0.8006,-0.7995,-0.8105,-0.7613,-0.6337,-0.6282,-0.5657,-0.4273,-0.4081,-0.414,-0.4406,-0.2761,-0.2038,-0.2254,-0.3246,-0.3936,0.0,0.0,0.0,0.0,0.0,0.0,0.0,0.0,0.0,0.0,0.0,0.0,0.0,0.0,0.0,-1.0419,-1.0866,-1.1076,-1.0747,-1.1273,-1.1699,-1.1699,-1.1699,-1.1699,-1.1699,-1.1406,-1.1207,-1.1207,-1.0883,-1.0688,-1.0688,-1.0688,0.0,-1.0688,-1.0688,-1.0688,-1.0688,-1.0688,-1.0688,-1.0688,0.0,0.0,-1.0688,-1.0688,-1.0688,-1.0688,-1.0688,-1.0688,-1.0688,-1.0688,-0.9842,-0.8535,-0.8535,-0.8535,-0.8286,-0.6329,-0.4553,-0.3068,-0.2639,-0.1603,-0.0417,-0.0095,0.0,0.0,0.0,0.0,0.0,0.0,0.0,0.0,0.0,0.0,0.0,0.0,0.0,0.0,0.0,0.0,-0.0092,-0.0367,-0.0182,-0.018,-0.078,-0.1857,-0.3067,-0.4308,-0.4711,-0.4826,-0.4671,-0.4884,-0.4981,-0.4884,-0.4876,-0.4877,-0.4866,-0.4872,-0.4874,-0.4862,-0.5,-0.5026,-0.4902,-0.5002,-0.4896,-0.4608,-0.3427,-0.2773,-0.2695,-0.116,-0.0458,-0.0492,-0.0715,-0.0845,0.0,0.0,0.0,0.0,0.0,0.0,0.0,0.0,0.0,0.0,0.0,-1.0097,-1.0243,0.0,-1.0663,-1.0806,-1.0927,-1.0917,-1.0813,-1.0799,-1.0772,-1.0694,-1.0688,-1.0688,-1.0688,-1.0755,-1.0799,-1.0799,-1.09,-1.1377,-1.2311,-1.2344,-1.2774,-1.3733,-1.2841,-1.2344,-1.2344,-1.1408,-1.0941,-1.0941,-1.0941,-1.0904,-1.0799,-1.0799,-1.0759,-1.0688,-1.0688,-1.0688,-1.0621,-0.9709,-0.8302,-0.6598,-0.5693,-0.5359,-0.522,-0.4256,-0.2822,-0.1327,-0.1275,-0.0717,0.0,0.0,0.0,0.0,0.0,0.0,0.0,0.0,0.0,0.0,0.0,0.0,0.0,0.0,0.0,0.0,0.0,0.0,0.0,0.0,0.0,0.0,0.0,-0.0606,-0.1373,-0.2126,-0.2869,-0.3313,-0.3204,-0.3873,-0.4311,-0.4246,-0.4242,-0.4257,-0.4236,-0.4239,-0.427,-0.4341,-0.4409,-0.4151,-0.3522,-0.3548,-0.3216,-0.2361,-0.1609,-0.12,-0.1095,-0.0362,0.0,0.0,0.0,0.0,0.0,0.0,0.0,0.0,0.0,0.0,0.0,0.0,-0.9621,-0.965,-0.9899,-1.0125,-1.0208,-1.0634,-1.0995,-1.1176,-1.1196,-1.1155,-1.0972,-1.0955,-1.0911,-1.0822,-1.0748,-1.0742,-1.0802,-1.0884,-1.0955,-1.0955,-1.1097,-1.2016,-1.3887,-1.3985,-1.4692,-1.6209,-1.4794,-1.3814,-1.3442,-1.1948,-1.1196,-1.1196,-1.1196,-1.1135,-1.0955,-1.0928,-1.0846,-1.0728,-1.0329,-1.018,-1.0011,-0.7867,-0.6129,-0.4693,-0.2887,-0.2183,-0.2183,-0.2183,-0.1243,0.0,0.0,0.0,0.0,0.0,0.0,0.0,0.0,0.0,0.0,0.0,0.0,0.0,0.0,0.0,0.0,0.0,0.0,0.0,0.0,0.0,0.0,0.0,0.0,0.0,0.0,0.0,0.0,0.0,-0.1004,-0.1769,-0.1763,-0.2845,-0.3636,-0.3636,-0.3636,-0.3611,-0.3623,-0.3614,-0.3678,-0.3785,-0.3799,-0.3265,-0.2055,-0.1999,-0.1375,-0.0032,0.0,0.0,0.0,0.0,0.0,0.0,0.0,0.0,-0.9741,-0.9727,-0.9819,-1.0127,-1.0205,-1.0314,0.0,0.0,-0.829,-0.8462,-0.8504,-0.8562,-0.8575,-0.9978,-1.1179,-1.1196,-1.1196,-1.1193,-1.1176,-1.1172,-1.1166,-1.1149,-1.1002,-1.0941,-1.1135,-1.1162,-1.1172,-1.1172,-1.1189,-1.2016,-1.3887,-1.3985,-1.4087,-1.4322,-1.4122,-1.3207,-1.1538,-1.13,-1.1196,-1.1196,-1.1196,-1.1189,-1.1169,-1.0972,-1.0907,-1.0779,-0.9054,-0.8299,-0.803,-0.4692,-0.3187,-0.2819,-0.1009,-0.0303,-0.0303,-0.0303,-0.0168,0.0,0.0,0.0,0.0,0.0,0.0,0.0,0.0,0.0,0.0,0.0,0.0,0.0,0.0,0.0,0.0,0.0,0.0,0.0,0.0,0.0,0.0,0.0,0.0,0.0,0.0,0.0,0.0,0.0,-0.015,-0.0239,-0.0236,-0.0383,-0.05,-0.05,-0.05,-0.0503,-0.051,-0.0493,-0.0501,-0.0534,-0.0541,-0.0449,-0.029,-0.0293,-0.0197,0.0,0.0,0.0,0.0,0.0,0.0,0.0,0.0,0.0,-1.0148,-1.0212,-1.0287,-1.0592,-1.0637,-1.0435,-0.9564,-0.8801,-0.7968,-0.6837,-0.6745,-0.7159,-0.8231,-0.9215,-1.0215,0.0,-1.1552,-1.1525,-1.144,-1.1352,-1.1332,-1.1332,-1.1243,-1.1196,-1.12,-1.1278,-1.1335,-1.1419,-1.1504,-1.2437,-1.4409,-1.4463,-1.4894,-1.6011,-1.485,-1.3854,-1.3056,-1.1984,-1.1426,-1.1426,-1.1426,-1.1382,-1.1294,-1.1233,-1.1076,-1.0802,-0.8856,-0.7431,-0.6295,-0.3756,-0.2082,-0.1042,-0.0303,0.0,0.0,0.0,0.0,0.0,0.0,0.0,0.0,0.0,0.0,0.0,0.0,0.0,0.0,0.0,0.0,0.0,0.0,0.0,0.0,0.0,0.0,0.0,0.0,0.0,0.0,0.0,0.0,0.0,0.0,0.0,0.0,0.0,0.0,0.0,0.0,0.0,0.0,0.0,0.0,0.0,0.0,0.0,0.0,0.0,0.0,0.0,0.0,0.0,0.0,0.0,0.0,0.0,0.0,0.0,0.0,0.0,0.0,0.0,-0.9563,-0.9436,-0.9255,-0.9924,-0.9773,-0.9108,-0.7833,-0.7226,-0.6526,-0.5019,-0.4873,-0.5394,-0.6698,-0.8012,-0.9352,-1.0758,-1.1497,-1.1843,-1.1661,-1.1582,-1.1497,-1.1457,-1.1453,-1.1409,-1.1336,-1.1389,-1.1514,-1.1667,-1.1736,-1.2692,-1.4789,-1.4827,-1.5364,-1.6726,-1.5283,-1.4227,-1.3694,-1.2309,-1.1584,-1.1584,-1.1584,-1.1562,-1.1453,-1.1409,-1.1229,-1.0806,-0.8893,-0.7056,-0.5263,-0.3456,-0.1646,0.0,0.0,0.0,0.0,0.0,0.0,0.0,0.0,0.0,0.0,0.0,0.0,0.0,0.0,0.0,0.0,0.0,0.0,0.0,0.0,0.0,0.0,0.0,0.0,0.0,0.0,0.0,0.0,0.0,0.0,0.0,0.0,0.0,0.0,0.0,0.0,0.0,0.0,0.0,0.0,0.0,0.0,0.0,0.0,0.0,0.0,0.0,0.0,0.0,0.0,0.0,0.0,0.0,0.0,0.0,0.0,0.0,0.0,0.0,0.0,0.0,-0.744,-0.676,-0.5947,-0.7663,-0.6902,-0.5738,-0.5709,-0.4315,-0.305,-0.2977,-0.2979,-0.3016,-0.3051,-0.6268,-0.8911,-0.8985,-1.0724,-1.204,-1.181,-1.1783,-1.1729,-1.1594,-1.1577,-1.1573,0.0,-1.1573,-1.1638,-1.1776,-1.1793,-1.2692,-1.4789,-1.4904,-1.4936,-1.4973,-1.48,-1.3773,-1.1896,-1.1687,-1.1584,-1.1584,-1.1584,-1.1616,-1.1606,-1.146,-1.1229,-1.0812,-0.9055,-0.719,-0.5263,-0.3456,-0.1646,0.0,0.0,0.0,0.0,0.0,0.0,0.0,0.0,0.0,0.0,0.0,0.0,0.0,0.0,0.0,0.0,0.0,0.0,0.0,0.0,0.0,0.0,0.0,0.0,0.0,0.0,0.0,0.0,0.0,0.0,0.0,0.0,0.0,0.0,0.0,0.0,0.0,0.0,0.0,0.0,0.0,0.0,0.0,0.0,0.0,0.0,0.0,0.0,0.0,0.0,0.0,0.0,0.0,0.0,0.0,0.0,0.0,0.0,0.0,0.0,0.0,-0.601,-0.5802,-0.5561,-0.6235,-0.6014,-0.5299,-0.4092,-0.3333,-0.2545,-0.1238,-0.0977,-0.137,-0.265,-0.5135,-0.745,-0.8882,-1.0858,-1.2196,-1.2145,-1.2216,-1.2186,-1.1979,-1.2003,0.0,0.0,0.0,0.0,-1.1965,-1.1982,-1.2387,-1.3277,-1.3231,-1.3176,-1.3176,-1.3059,-1.2642,-1.2019,-1.1935,-1.186,-1.1722,-1.0345,-0.9684,-0.9679,-0.9551,-1.0125,-1.1059,-0.7894,-0.6121,-0.5298,-0.2178,-0.0543,0.0,0.0,0.0,0.0,0.0,0.0,0.0,0.0,0.0,0.0,0.0,0.0,0.0,0.0,0.0,0.0,0.0,0.0,0.0,0.0,0.0,0.0,0.0,0.0,0.0,0.0,0.0,0.0,0.0,0.0,0.0,0.0,0.0,0.0,0.0,0.0,0.0,0.0,0.0,0.0,0.0,0.0,0.0,0.0,0.0,0.0,0.0,0.0,0.0,0.0,0.0,0.0,0.0,0.0,0.0,0.0,0.0,0.0,0.0,0.0,0.0,-0.4234,-0.3964,-0.3647,-0.437,-0.4085,-0.3308,-0.2134,-0.185,-0.1518,-0.0254,0.0,-0.0392,-0.1623,-0.3549,-0.567,-0.78,-0.9932,-1.159,-1.2289,-1.1824,-1.13,-1.1104,-1.1078,-1.1006,0.0,0.0,0.0,-1.2084,-1.2149,-1.2285,-1.2488,-1.2416,-1.2366,-1.2366,-1.2223,-1.18,-1.1073,-1.0989,-1.0522,-0.9646,-0.8319,-0.7654,-0.7688,-0.8303,-0.8857,-0.9209,-0.7437,-0.5856,-0.4377,-0.1969,-0.0585,0.0,0.0,0.0,0.0,0.0,0.0,0.0,0.0,0.0,0.0,0.0,0.0,0.0,0.0,0.0,0.0,0.0,0.0,0.0,0.0,0.0,0.0,0.0,0.0,0.0,0.0,0.0,0.0,0.0,0.0,0.0,0.0,0.0,0.0,0.0,0.0,0.0,0.0,0.0,0.0,0.0,0.0,0.0,0.0,0.0,0.0,0.0,0.0,0.0,0.0,0.0,0.0,0.0,0.0,0.0,0.0,0.0,0.0,0.0,0.0,0.0,-0.208,-0.131,-0.0406,-0.2121,-0.126,0.0,0.0,0.0,0.0,0.0,0.0,0.0,0.0,-0.1694,-0.3771,-0.5818,-0.8004,-1.0089,-1.1934,-1.0482,-0.9206,0.0,0.0,0.0,0.0,0.0,0.0,-1.1809,0.0,-1.2314,-1.2337,-1.2347,-1.2305,-1.2189,-1.206,-1.1063,-0.9058,-0.884,-0.7721,-0.5669,-0.5668,-0.5668,-0.5699,-0.758,-0.7385,-0.5701,-0.7438,-0.6115,-0.2696,-0.2591,-0.1542,0.0,0.0,0.0,0.0,0.0,0.0,0.0,0.0,0.0,0.0,0.0,0.0,0.0,0.0,0.0,0.0,0.0,0.0,0.0,0.0,0.0,0.0,0.0,0.0,0.0,0.0,0.0,0.0,0.0,0.0,0.0,0.0,0.0,0.0,0.0,0.0,0.0,0.0,0.0,0.0,0.0,0.0,0.0,0.0,0.0,0.0,0.0,0.0,0.0,0.0,0.0,0.0,0.0,0.0,0.0,0.0,0.0,0.0,0.0,0.0,0.0,-0.0564,-0.0367,-0.0102,-0.0557,-0.0348,0.0,0.0,0.0,0.0,0.0,0.0,0.0,0.0,-0.16,0.0,-0.3828,-0.574,0.0,-0.7808,-0.759,0.0,-0.7084,0.0,-0.7001,-0.6757,-0.738,0.0,0.0,-1.0498,-1.1696,-1.0266,-1.0194,-0.949,-0.7931,-0.7832,-0.7586,-0.7042,-0.684,-0.5736,-0.3794,-0.3671,-0.3631,-0.3669,-0.414,-0.4892,-0.5707,-0.4732,-0.3766,-0.2731,-0.128,-0.0425,0.0,0.0,0.0,0.0,0.0,0.0,0.0,0.0,0.0,0.0,0.0,0.0,0.0,0.0,0.0,0.0,0.0,0.0,0.0,0.0,0.0,0.0,0.0,0.0,0.0,0.0,0.0,0.0,0.0,0.0,0.0,0.0,0.0,0.0,0.0,0.0,0.0,0.0,0.0,0.0,0.0,0.0,0.0,0.0,0.0,0.0,0.0,0.0,0.0,0.0,0.0,0.0,0.0,0.0,0.0,0.0,0.0,0.0,0.0,0.0,0.0,0.1408,0.118,0.0989,0.0209,0.0,0.0,0.0,0.0,0.0,0.0,0.0,0.0,0.0,-0.0882,-0.1952,0.0,0.0,0.0,-0.6264,-0.5718,-0.5205,0.0,-0.5006,0.0,-0.4738,-0.5671,-0.6259,0.0,-0.8327,-0.9194,-0.8084,-0.8048,-0.7503,-0.6334,-0.6295,-0.5866,-0.4888,-0.3866,-0.2836,-0.1715,-0.0752,-0.0742,-0.1616,-0.1574,-0.2154,-0.3236,0.0,-0.2426,-0.1476,0.0468,0.1255,0.1282,0.1274,0.1276,0.1175,0.0319,0.0,0.0105,0.0978,0.1241,0.1051,0.027,0.0,0.0,0.0,0.0,0.0,0.0,0.0,0.0,0.0,0.0,0.0,0.0,0.0,0.0,0.0,0.0,0.0,0.0,0.0,0.0,0.0,0.0,0.0,0.0,0.0,0.0,0.0,0.0,0.0,0.0,0.0,0.0,0.0,0.0,0.0,0.0,0.0,0.0,0.0,0.0,0.0,0.0,0.0,0.0,0.0,0.0,0.0,0.0,0.0,0.0,0.3217,0.2715,0.2275,0.0454,0.0,0.0,0.0,0.0,0.0,0.0,0.0,0.0,0.0,0.0,-0.0579,-0.2403,0.0,-0.3579,-0.5402,-0.4089,-0.293,-0.2947,-0.2816,-0.2677,-0.2687,-0.4384,-0.5473,-0.5466,-0.5204,-0.5258,-0.5841,-0.587,-0.5749,-0.5475,-0.5445,-0.4585,-0.2701,-0.0893,0.0154,0.0424,0.2247,0.2296,0.0857,0.0925,0.0919,0.0694,0.0,0.0,0.0911,0.2582,0.3271,0.3267,0.3301,0.3274,0.3085,0.1402,0.0787,0.1001,0.271,0.3192,0.2845,0.1253,0.0741,0.0673,0.0437,0.037,0.0303,0.0067,0.0,0.0,0.0,0.0,0.0,0.0,0.0,0.0,0.0,0.0,0.0,0.0,0.0,0.0,0.0,0.0,0.0,0.0,0.0,0.0,0.0,0.0,0.0,0.0,0.0,0.0,0.0,0.0,0.0,0.0,0.0,0.0,0.0,0.0,0.0,0.0,0.0,0.0,0.0,0.0,0.0,0.0,0.0,0.0,0.3367,0.2858,0.2407,0.0491,0.0,0.0,0.0,0.0,0.0,0.0,0.0,0.0,0.0,0.0,-0.0109,-0.0489,-0.0585,-0.073,-0.1057,-0.0803,-0.0591,0.0,-0.0549,-0.0543,-0.0537,-0.0866,0.0,0.0,0.0,0.008,-0.3457,-0.3658,-0.2858,-0.1137,-0.1109,-0.0911,-0.0549,-0.0196,0.0856,0.2579,0.2919,0.3847,0.5184,0.505,0.4983,0.4937,0.4484,0.0,0.4831,0.5156,0.5301,0.5301,0.5289,0.529,0.5263,0.4927,0.4782,0.4843,0.5163,0.5286,0.5207,0.4757,0.4566,0.4191,0.2685,0.2216,0.1914,0.0437,0.0,0.0,0.0,0.0,0.0,0.0,0.0,0.0,0.0,0.0,0.0,0.0,0.0,0.0,0.0,0.0,0.0,0.0,0.0,0.0,0.0,0.0,0.0,0.0,0.0,0.0,0.0,0.0,0.0,0.0,0.0,0.0,0.0,0.0,0.0,0.0,0.0,0.0,0.0,0.0,0.0,0.0,0.0,0.0,0.5052,0.4306,0.3596,0.0737,0.0,0.0,0.0,0.0,0.0,0.0,0.0,0.0,0.0,0.0,0.0,0.0,0.0,0.0,0.0,0.0,0.0,0.0,0.0,0.0,0.0,0.1043,0.0,0.0,0.0,0.3659,0.0402,0.127,0.2366,0.3357,0.2213,0.1616,0.1607,0.0549,0.1056,0.3105,0.4229,0.5317,0.6313,0.7244,0.7065,0.5986,0.584,0.0,0.5881,0.6894,0.7291,0.7291,0.7291,0.7291,0.7183,0.617,0.5786,0.5935,0.6974,0.7267,0.7347,0.8218,0.7151,0.5344,0.4402,0.3456,0.2522,0.1661,0.0714,0.0,0.0,0.0,0.0,0.0,0.0,0.0,0.0,0.0,0.0,0.0,0.0,0.0,0.0,0.0,0.0,0.0,0.0,0.0,0.0,0.0,0.0,0.0,0.0,0.0,0.0,0.0,0.0,0.0,0.0,0.0,0.0,0.0,0.0,0.0,0.0,0.0,0.0,0.0,0.0,0.0037,0.1033,0.1508,0.6601,0.5648,0.4738,0.095,0.0,0.0,0.0,0.0,0.0,0.0,0.0,0.0,0.0,0.0,0.0,0.0,0.0,0.0,0.0,0.0,0.0,0.0,0.0,0.0,0.0673,0.231,0.0,0.0,0.0,0.0,0.4121,0.5571,0.6491,0.6458,0.4726,0.3805,0.3795,0.1724,0.1724,0.3795,0.5513,0.6536,0.7047,0.8973,0.8935,0.7306,0.7143,0.0,0.0,0.8703,0.9321,0.9321,0.9321,0.9321,0.9139,0.7618,0.704,0.7257,0.8778,0.9256,0.94,1.0765,0.9191,0.6647,0.6122,0.4693,0.3196,0.28,0.1407,0.0,0.0,0.0,0.0,0.0,0.0,0.0,0.0,0.0,0.0,0.0,0.0,0.0,0.0,0.0,0.0,0.0,0.0,0.0,0.0,0.0,0.0,0.0,0.0,0.0,0.0,0.0,0.0,0.0,0.0,0.0,0.0,0.0,0.0,0.0,0.0,0.0,0.0,0.0447,0.0675,0.0719,0.2691,0.3644,0.6763,0.5798,0.4865,0.0952,0.0,0.0,0.0,0.0,0.0,0.0,0.0,0.0,0.0,0.0,0.0,0.0,0.0,0.0,0.0,0.0,0.0,0.0,0.0,0.0,0.29,0.0,0.0,0.0,0.0,0.0,0.634,0.6389,0.6442,0.6308,0.6128,0.601,0.6022,0.3873,0.3873,0.6022,0.6217,0.7304,0.9198,1.1135,1.184,1.1539,1.1319,0.0,0.0,1.1253,1.1329,1.1329,1.1329,1.1329,1.1325,1.1145,1.1074,1.1074,1.1253,1.1319,1.1295,1.1222,1.0855,1.0097,0.8303,0.6529,0.4809,0.3174,0.1407,0.0,0.0,0.0,0.0,0.0,0.0,0.0,0.0,0.0,0.0,0.0,0.0,0.0,0.0,0.0,0.0,0.0,0.0,0.0,0.0,0.0,0.0,0.0,0.0,0.0,0.0,0.0,0.0,0.0,0.0,0.0,0.0,0.0,0.0,0.0,0.0,0.0,0.0,0.1877,0.283,0.2871,0.501,0.5982,0.6674,0.5738,0.4872,0.0987,0.0,0.0,0.0,0.0,0.0,0.0,0.0874,0.1613,0.1613,0.253,0.3283,0.3355,0.3366,0.2979,0.1907,0.1743,0.1813,0.1984,0.2002,0.0,0.0,0.0,0.0,0.0,0.0,0.0,1.0309,1.0221,1.0204,1.0151,0.8865,0.8165,0.8164,0.4809,0.4185,0.6295,0.6295,0.7386,0.9449,1.1425,1.2244,1.2091,1.1898,0.0,0.0,1.1584,1.1584,1.1584,1.1584,1.1584,1.1584,1.1584,1.1584,1.1584,1.1584,1.1584,1.1569,1.1298,1.1159,1.0893,0.991,0.8368,0.6594,0.4818,0.3016,0.1362,0.0286,0.0,0.0,0.0,0.0,0.0,0.0,0.0,0.0,0.0,0.0,0.0,0.0,0.0,0.0,0.0,0.0,0.0,0.0,0.0,0.0,0.0,0.0,0.0,0.0,0.0,0.0,0.0,0.0,0.0,0.0,0.0,0.0,0.0,0.0,0.0604,0.186,0.2706,0.3755,0.509,0.7109,0.8034,0.7259,0.6484,0.5606,0.1749,0.0801,0.0796,0.0811,0.0807,0.0941,0.1478,0.2618,0.3489,0.3489,0.4575,0.5503,0.5596,0.5619,0.5244,0.3995,0.3808,0.3927,0.416,0.0,0.0,0.0,0.0,0.0,0.0,0.0,0.0,0.0,1.2649,1.2625,1.2625,1.1143,1.0036,0.9413,0.5822,0.4498,0.5357,0.5357,0.6437,0.8468,1.0477,1.1607,1.1986,0.0,0.0,0.0,1.1584,1.1584,1.1584,1.1584,1.1584,1.1584,1.1584,1.1584,1.1584,1.1584,1.1584,1.1575,1.1314,1.1264,1.1217,1.0928,0.9564,0.7716,0.589,0.3724,0.1601,0.0327,0.0,0.0146,0.0729,0.0401,0.0146,0.0729,0.0401,0.0,0.0,0.0,0.0,0.0,0.0,0.0,0.0,0.0,0.0,0.0,0.0,0.0,0.0,0.0,0.0,0.0,0.0,0.0,0.0,0.0,0.0,0.0,0.0,0.0,0.0,0.0,0.1032,0.3117,0.3744,0.5121,0.7267,0.9254,1.0159,0.8761,0.827,0.7375,0.3609,0.2674,0.2664,0.266,0.2685,0.3187,0.4961,0.5364,0.5364,0.5364,0.5488,0.5596,0.5605,0.5709,0.5848,0.5955,0.5957,0.6032,0.0,0.0,0.0,0.0,0.0,0.0,0.0,0.0,0.0,0.0,1.2586,1.2505,1.2505,1.2463,1.1482,0.9413,0.7308,0.5201,0.3131,0.3131,0.4159,0.6103,0.8245,1.0179,0.0,0.0,0.0,0.0,1.1584,1.1584,1.1584,1.1584,1.1584,1.1584,1.1584,1.1584,1.1584,1.1584,1.1584,1.1592,1.144,1.1389,1.1358,1.124,0.9842,0.7881,0.5941,0.2814,0.0036,0.0,0.0,0.0474,0.24,0.1384,0.051,0.2437,0.1347,0.0,0.0,0.0,0.0,0.0,0.0,0.0,0.0,0.0,0.0,0.0,0.0,0.0,0.0,0.0,0.0,0.0,0.0,0.0,0.0,0.0,0.0,0.0,0.0,0.0,0.0,0.0,0.104,0.3117,0.525,0.7345,0.9413,1.1482,1.2385,0.8589,0.8208,0.7684,0.5185,0.4554,0.4537,0.454,0.4559,0.4693,0.5297,0.6364,0.7219,0.7357,0.8384,0.9328,0.9665,0.9747,0.9383,0.8335,0.8279,0.0,0.8658,1.0153,0.0,0.0,0.0,0.0,0.0,0.0,0.0,0.0,1.2528,1.2501,1.2501,1.2501,1.1485,0.9413,0.7347,0.524,0.3091,0.3091,0.4119,0.6063,0.8206,0.0,0.0,0.0,0.0,0.0,1.1584,1.1584,1.1584,1.1584,1.0779,0.9612,0.9612,0.9612,0.9612,0.9612,1.0488,1.1596,1.144,1.1392,1.1362,1.1244,1.078,0.9624,0.6446,0.2871,0.0,0.0,0.0984,0.2147,0.2763,0.3452,0.378,0.3053,0.24,0.1602,0.0255,0.0,0.0,0.0,0.0,0.0,0.0,0.0,0.0,0.0,0.0,0.0,0.0,0.0,0.0,0.0,0.0,0.0,0.0,0.0,0.0,0.0,0.0,0.0,0.0,0.14,0.3153,0.5289,0.7411,0.949,1.1521,1.2189,1.2478,0.9361,0.9112,0.8743,0.6868,0.6379,0.6365,0.6376,0.6398,0.6564,0.7267,0.8268,0.9076,0.9242,1.0234,1.1141,1.1477,1.1626,1.1338,1.04,0.0,0.0,1.0982,0.0,0.0,0.0,0.0,0.0,0.0,0.0,0.0,0.0,1.245,1.2423,1.2423,1.2474,1.1485,0.9413,0.7347,0.524,0.3091,0.23,0.2936,0.492,0.6978,0.0,0.0,0.0,0.0,0.0,1.08,1.0495,1.0419,0.9705,0.8672,0.7616,0.7616,0.7616,0.7724,0.8448,0.9504,1.062,1.1255,1.1477,1.1315,1.0505,0.9698,0.8594,0.6322,0.2928,0.0,0.0,0.1456,0.3089,0.3814,0.4358,0.4576,0.4105,0.2836,0.1456,0.0219,0.0,0.0,0.0,0.0,0.0,0.0,0.0,0.0,0.0,0.0,0.0,0.0,0.0,0.0,0.0,0.0,0.0,0.0,0.0,0.0,0.0,0.0,0.0,0.0,0.1263,0.3389,0.6298,0.9161,1.1247,1.2501,1.2501,1.2501,0.0,1.0688,1.0316,0.8601,0.8199,0.8199,0.8199,0.8199,0.0,1.0349,1.0688,1.0738,1.0914,1.108,1.1257,1.1409,1.167,0.0,0.0,1.2342,0.0,0.0,0.0,0.0,0.0,0.0,0.0,0.0,0.0,0.0,0.0,1.2369,1.2291,1.2291,1.2416,1.1508,0.9402,0.7454,0.5353,0.3091,0.1122,0.1147,0.2982,0.4916,0.0,0.0,0.0,0.0,0.0,0.9672,0.8847,0.8507,0.6695,0.5838,0.5599,0.5594,0.5591,0.5844,0.7652,0.8376,0.8812,1.0743,1.1472,1.1253,0.9285,0.7265,0.5611,0.5609,0.291,0.0,0.0,0.1456,0.3343,0.5156,0.4322,0.356,0.5229,0.2765,0.0182,0.0036,0.0,0.0,0.0,0.0,0.0,0.0,0.0,0.0,0.0,0.0,0.0,0.0,0.0,0.0,0.0,0.0,0.0,0.0,0.0,0.0,0.0,0.0,0.0,0.0,0.0279,0.247,0.6518,1.0562,1.2501,1.2501,1.2501,1.2501,1.0688,0.0,1.0585,1.018,1.0081,1.0081,0.0,1.0081,1.018,1.0621,1.0688,1.0836,1.1219,1.1254,1.1359,1.186,0.0,0.0,1.2213,0.0,0.0,0.0,0.0,0.0,0.0,0.0,0.0,0.0,0.0,0.0,0.0,1.2369,1.2291,1.2291,1.2322,1.1368,0.928,0.8782,0.6696,0.309,0.2491,0.2462,0.2982,0.4916,0.0,0.0,0.0,0.0,1.1558,1.1219,1.0145,0.864,0.8183,0.6186,0.3573,0.3574,0.3597,0.3633,0.4103,0.5227,0.6785,0.8739,1.0377,1.1253,0.9285,0.7312,0.5461,0.3992,0.1856,0.0,0.0,0.1456,0.3017,0.3489,0.4358,0.483,0.3814,0.2872,0.1783,0.0292,0.0,0.0,0.0,0.0,0.0,0.0,0.0,0.0,0.0,0.0,0.0,0.0,0.0,0.0,0.0,0.0,0.0,0.0,0.0,0.0,0.0,0.0,0.0,0.0,0.3186,0.6086,0.8668,1.1265,1.2501,1.2501,1.2501,1.2501,1.0688,1.0819,1.0924,1.0924,1.0924,1.0924,1.0924,1.0819,1.0688,1.0688,1.0688,1.0836,1.1216,1.1308,1.1455,1.1881,1.2074,0.0,0.0,0.0,0.0,0.0,0.0,0.0,0.0,0.0,0.0,0.0,0.0,0.0,0.0,1.2301,1.2224,1.2224,1.2118,1.1612,1.0627,0.9663,0.808,0.5889,0.4768,0.4278,0.4371,0.6286,0.779,0.0,0.0,0.0,1.176,1.0962,0.9897,0.8688,0.7826,0.5596,0.2899,0.2915,0.2328,0.1711,0.2581,0.4177,0.5989,0.7038,0.809,0.8562,0.6638,0.5299,0.425,0.3198,0.1493,0.0,0.0,0.1456,0.2908,0.2908,0.3705,0.4177,0.3126,0.2182,0.1275,0.0219,0.0,0.0,0.0,0.0,0.0,0.0,0.0,0.0,0.0,0.0,0.0,0.0,0.0,0.0,0.0,0.0,0.0,0.0,0.0,0.0,0.0,0.0,0.0,0.0,0.4143,0.6839,0.797,1.1014,1.2501,1.2501,1.2501,1.2501,1.0715,1.0744,1.0856,1.1083,1.1162,1.1186,1.1142,1.09,1.0688,1.0688,1.0708,1.0853,1.1206,1.1338,1.1538,0.0,0.0,0.0,1.2652,0.0,0.0,0.0,0.0,0.0,0.0,0.0,0.0,0.0,0.0,0.0,0.0,1.2247,1.2087,1.2067,1.1921,1.1993,1.2254,1.0501,0.9466,0.9137,0.7166,0.617,0.606,0.7904,0.8914,0.0,0.0,0.0,1.1959,1.0343,0.9387,0.872,0.7074,0.5009,0.2915,0.291,0.1675,0.0219,0.1892,0.3743,0.5373,0.5373,0.5556,0.5448,0.3489,0.2908,0.2836,0.2545,0.1275,0.0,0.0,0.1238,0.2473,0.2473,0.2473,0.2473,0.2473,0.1166,0.0,0.0,0.0,0.0,0.0,0.0,0.0,0.0,0.0,0.0,0.0,0.0,0.0,0.0,0.0,0.0,0.0,0.0,0.0,0.0,0.0,0.0,0.0,0.0,0.0159,0.0478,0.4291,0.6437,0.6802,1.0624,1.2501,1.2501,1.2501,1.2501,1.0843,0.9918,0.9201,1.0468,1.0975,1.1132,1.0846,1.0751,1.0688,1.0688,1.0789,1.1009,1.147,1.1569,1.1762,0.0,0.0,0.0,0.0,0.0,0.0,0.0,0.0,0.0,0.0,0.0,0.0,0.0,0.0,0.0,0.0,1.2193,1.204,1.1834,1.1972,1.2087,1.2135,1.1666,1.0579,0.895,0.847,0.7476,0.6062,0.7977,0.8989,0.0,0.0,1.2196,1.2074,1.1917,1.0658,0.8858,0.8558,0.6181,0.2915,0.2883,0.1675,0.0036,0.0328,0.1711,0.3343,0.3343,0.4467,0.5448,0.3489,0.2908,0.2545,0.0911,0.0219,0.0,0.0,0.0219,0.0438,0.0438,0.0438,0.0438,0.0438,0.0219,0.0,0.0,0.0,0.0,0.0,0.0,0.0,0.0,0.0,0.0,0.0,0.0,0.0,0.0,0.0,0.0,0.0,0.0,0.0,0.0,0.0,0.0,0.0,0.0,0.0826,0.2591,0.5058,0.7166,0.8947,1.1327,1.2501,1.2501,1.2501,1.2501,0.948,0.8855,0.8404,0.7957,0.805,0.8539,0.9521,0.955,0.9729,1.084,1.1073,1.1179,1.1516,1.1648,1.1864,1.242,0.0,0.0,0.0,0.0,0.0,0.0,0.0,0.0,0.0,0.0,0.0,0.0,0.0,0.0,0.0,0.0,1.1904,1.1797,1.1826,1.186,1.1935,1.1753,1.1353,1.073,1.0498,1.0028,0.9432,1.0257,1.0756,1.1022,0.0,1.2294,1.2305,1.2376,1.1691,1.0619,1.0634,0.8111,0.4211,0.2115,0.0765,0.0,0.0,0.0583,0.1347,0.1347,0.1929,0.251,0.1602,0.1347,0.1129,0.0255,0.0,0.0,0.0,0.0,0.0,0.0,0.0,0.0,0.0,0.0,0.0,0.0,0.0,0.0,0.0,0.0,0.0,0.0,0.0,0.0,0.0,0.0,0.0,0.0,0.0,0.0,0.0,0.0,0.0,0.0,0.0,0.0,0.0,0.1095,0.2115,0.3091,0.6291,0.8439,0.9413,1.1482,1.2501,1.2501,1.2501,1.2501,0.8328,0.8101,0.7919,0.593,0.561,0.6323,0.8362,0.8552,0.8943,1.1034,1.1387,1.1387,1.1584,1.1807,0.0,1.24,0.0,0.0,0.0,0.0,0.0,0.0,0.0,0.0,0.0,0.0,0.0,0.0,0.0,0.0,0.0,0.0,1.178,1.1746,1.1671,1.1685,1.1793,1.1688,1.186,1.2233,1.1962,1.1993,1.2288,1.2207,1.2295,1.2494,1.2386,1.2403,1.2501,1.2467,1.2298,1.2094,1.206,0.9473,0.5339,0.1421,0.0,0.0,0.0,0.0,0.0,0.0,0.0,0.0,0.0,0.0,0.0,0.0,0.0,0.0,0.0,0.0,0.0,0.0,0.0,0.0,0.0,0.0,0.0,0.0,0.0,0.0,0.0,0.0,0.0,0.0,0.0,0.0,0.0,0.0,0.0,0.0,0.0,0.0,0.0,0.0,0.0,0.0,0.0,0.0,0.0,0.1995,0.3326,0.3834,0.7499,0.9648,1.0117,1.1718,1.2501,1.2501,1.2501,1.2501,0.8458,0.8019,0.7636,0.5999,0.5703,0.6283,0.8126,0.8507,0.9081,1.1145,1.1596,1.1633,1.1749,1.2166,1.242,1.2322,0.0,0.0,0.0,0.0,0.0,0.0,0.0,0.0,0.0,0.0,0.0,0.0,0.0,0.0,0.0,0.0,0.0,1.1604,1.1715,1.1783,1.1793,1.1783,1.1904,1.2115,1.1911,1.1993,1.2291,1.2281,1.2355,1.2501,1.2491,1.2491,1.2491,1.2359,1.2247,1.2084,1.1904,0.936,0.5339,0.1421,0.0,0.0,0.0,0.0,0.0,0.0,0.0,0.0,0.0,0.0,0.0,0.0,0.0,0.0,0.0,0.0,0.0,0.0,0.0,0.0,0.0,0.0,0.0,0.0,0.0,0.0,0.0,0.0,0.0,0.0,0.0,0.0,0.0,0.0,0.0,0.0,0.0,0.0,0.0,0.0,0.0,0.0,0.0,0.0,0.0,0.1986,0.4029,0.6022,0.8242,1.0349,1.2266,1.2424,1.2501,1.2501,1.2501,1.2501,0.8237,0.7071,0.625,0.5639,0.4713,0.4477,0.6379,0.6888,0.7543,0.968,1.1057,1.1948,1.1965,0.0,1.224,0.0,0.0,0.0,0.0,0.0,0.0,0.0,0.0,0.0,0.0,0.0,0.0,0.0,0.0,0.0,0.0,0.0,0.0,1.1584,1.1638,1.1705,1.1793,1.1705,1.1867,1.2203,1.2047,1.2088,1.2294,1.2383,1.2403,1.2369,1.2369,1.2318,1.2261,1.221,1.1379,0.9854,0.7269,0.5321,0.367,0.0984,0.0,0.0,0.0,0.0,0.0,0.0,0.0,0.0,0.0,0.0,0.0,0.0,0.0,0.0,0.0,0.0,0.0,0.0,0.0,0.0,0.0,0.0,0.0,0.0,0.0,0.0,0.0,0.0,0.0,0.0,0.0,0.0,0.0,0.0,0.0,0.0,0.0,0.0,0.0,0.0,0.0,0.0,0.0,0.058,0.1867,0.3981,0.6096,0.8205,1.0272,1.1718,1.2501,1.2501,1.2501,1.2501,1.2501,1.2501,0.8087,0.733,0.6953,0.6459,0.5446,0.4979,0.6343,0.6821,0.7632,0.9731,1.1211,1.2084,1.2036,1.2026,0.0,0.0,0.0,0.0,0.0,0.0,0.0,0.0,0.0,0.0,0.0,0.0,0.0,0.0,0.0,0.0,0.0,0.0,0.0,0.0,1.1584,1.1627,1.1729,1.1043,1.0848,1.1164,1.0472,1.0598,1.1393,1.148,1.11,1.0401,1.0401,1.071,1.1186,1.1104,1.0187,0.8443,0.4445,0.2908,0.2654,0.0729,0.0,0.0,0.0,0.0,0.0,0.0,0.0,0.0,0.0,0.0,0.0,0.0,0.0,0.0,0.0,0.0,0.0,0.0,0.0,0.0,0.0,0.0,0.0,0.0,0.0,0.0,0.0,0.0,0.0,0.0,0.0,0.0,0.0,0.0,0.0,0.0,0.0,0.0,0.0,0.0,0.0,0.0,0.0,0.0933,0.3012,0.5162,0.7269,0.9374,1.1443,1.2501,1.2501,1.2501,1.2501,1.2501,1.2501,1.2501,0.8119,0.9113,1.0282,0.872,0.8308,0.8327,0.8479,0.8863,0.9797,1.1879,1.2203,1.205,1.1824,1.1793,0.0,0.0,0.0,0.0,0.0,0.0,0.0,0.0,0.0,0.0,0.0,0.0,0.0,0.0,0.0,0.0,0.0,0.0,0.0,0.0,1.1584,1.1584,1.1584,0.9684,0.8703,0.8667,0.6871,0.7198,0.9369,0.9371,0.8263,0.6295,0.6295,0.7391,0.9134,0.8915,0.8769,0.8304,0.4393,0.2871,0.2654,0.0693,0.0,0.0,0.0,0.0,0.0,0.0,0.0,0.0,0.0,0.0,0.0,0.0,0.0,0.0,0.0,0.0,0.0,0.0,0.0,0.0,0.0,0.0,0.0,0.0,0.0,0.0,0.0,0.0,0.0,0.0,0.0,0.0,0.0,0.0,0.0,0.0,0.0,0.0,0.0,0.0,0.0,0.0039,0.0039,0.0981,0.3053,0.5162,0.7269,0.9374,1.1443,1.2501,1.2501,1.2501,1.2501,1.2501,1.2501,1.2501,0.9634,0.9077,0.8898,0.9881,0.9291,0.8812,1.0204,0.9722,0.959,1.1728,1.2006,1.1884,1.1803,1.1712,0.0,0.0,0.0,0.0,0.0,0.0,0.0,0.0,0.0,0.0,0.0,0.0,0.0,0.0,0.0,0.0,0.0,0.0,0.0,0.0,1.1584,1.1584,1.1584,1.1034,1.0094,0.8823,0.8303,0.7697,0.6994,0.7159,0.6791,0.6097,0.6077,0.6364,0.6714,0.5265,0.5463,0.6279,0.2365,0.0875,0.0802,0.0219,0.0,0.0,0.0,0.0,0.0,0.0,0.0,0.0,0.0,0.0,0.0,0.0,0.0,0.0,0.0,0.0,0.0,0.0,0.0,0.0,0.0,0.0,0.0,0.0,0.0,0.0,0.0,0.0,0.0,0.0,0.0,0.0,0.0,0.0,0.0,0.0,0.0,0.0,0.0,0.0,0.0628,0.2076,0.2193,0.3132,0.5279,0.5944,0.797,1.1524,1.2189,1.2501,1.2501,1.2501,1.2501,1.2501,1.2501,1.2501,0.8399,0.8129,0.8306,0.9611,0.9806,0.9971,1.1215,1.0757,1.0441,1.1824,1.1938,1.1793,1.1793,1.1678,0.0,0.0,0.0,0.0,0.0,0.0,0.0,0.0,0.0,0.0,0.0,0.0,0.0,0.0,0.0,0.0,0.0,0.0,0.0,0.0,1.1584,1.1584,1.1584,1.0053,0.8742,0.7635,0.6096,0.4738,0.3642,0.4587,0.4522,0.3654,0.4425,0.4714,0.454,0.338,0.3597,0.4323,0.1202,0.0,0.0,0.0,0.0,0.0,0.0,0.0,0.0,0.0,0.0,0.0,0.0,0.0,0.0,0.0,0.0,0.0,0.0,0.0,0.0,0.0,0.0,0.0,0.0,0.0,0.0,0.0,0.0,0.0,0.0,0.0,0.0,0.0,0.0,0.0,0.0,0.0,0.0,0.0,0.0,0.0353,0.1176,0.1216,0.2115,0.4224,0.4381,0.5316,0.7425,0.7542,0.9102,1.2424,1.2501,1.2501,1.2501,1.2501,1.2501,1.2501,1.2501,1.2501,0.5918,0.6928,0.8347,0.8687,1.0109,1.145,1.1589,1.1671,1.1833,1.2026,0.0,1.1753,1.1753,0.0,0.0,0.0,0.0,0.0,0.0,0.0,0.0,0.0,0.0,0.0,0.0,0.0,0.0,0.0,0.0,0.0,0.0,0.0,0.0,0.0,1.1584,1.1584,1.1584,0.791,0.5989,0.0,0.2039,0.0182,0.0073,0.1966,0.1793,0.0113,0.1875,0.2727,0.2871,0.2727,0.2727,0.2691,0.0765,0.0,0.0,0.0,0.0,0.0,0.0,0.0,0.0,0.0,0.0,0.0,0.0,0.0,0.0,0.0,0.0,0.0,0.0,0.0,0.0,0.0,0.0,0.0,0.0,0.0,0.0,0.0,0.0,0.0,0.0,0.0,0.0073,0.0255,0.0111,0.0149,0.0491,0.0383,0.0348,0.0509,0.0549,0.1332,0.3199,0.3357,0.4294,0.6438,0.6557,0.7495,0.9607,0.949,1.0388,1.2463,1.2501,1.2501,1.2501,1.2501,1.2501,1.2501,1.2501,1.2501,0.8805,0.879,0.8516,1.0328,1.1157,1.1543,1.1577,1.1548,1.1528,1.1684,1.1592,1.1487,0.0,0.0,0.0,0.0,0.0,0.0,0.0,0.0,0.0,0.0,0.0,0.0,0.0,0.0,0.0,0.0,0.0,0.0,0.0,0.0,0.0,1.1584,1.1584,1.1584,1.1584,0.9249,0.7327,0.0,0.3416,0.1464,0.0,0.0448,0.0412,0.0037,0.0441,0.1493,0.2799,0.1238,0.1529,0.2691,0.0765,0.0,0.0,0.0,0.0,0.0,0.0,0.0,0.0,0.0,0.0,0.0,0.0,0.0,0.0,0.0,0.0,0.0,0.0,0.0,0.0,0.0,0.0,0.0,0.0,0.0,0.0,0.0,0.0,0.0,0.0,0.0,0.051,0.2037,0.0995,0.1157,0.4293,0.3358,0.3003,0.4548,0.4862,0.5006,0.5211,0.5327,0.6279,0.8432,0.8585,0.9551,1.1753,1.0272,1.0388,1.2463,1.2501,1.2501,1.2501,1.2501,1.2501,1.2501,1.2501,1.2501,0.771,0.8115,0.8778,1.094,1.1504,1.1511,1.1511,1.1392,1.1304,1.1385,1.1338,1.1315,0.0,0.0,0.0,0.0,0.0,0.0,0.0,0.0,0.0,0.0,0.0,0.0,0.0,0.0,0.0,0.0,0.0,0.0,0.0,1.1584,1.1584,1.1584,1.1584,1.1584,1.1584,0.8742,0.6785,0.5772,0.2873,0.0987,0.0,0.0,0.0,0.0,0.0,0.0583,0.142,0.0401,0.0583,0.142,0.0401,0.0,0.0,0.0,0.0,0.0,0.0,0.0,0.0,0.0,0.0,0.0,0.0,0.0,0.0,0.0,0.0,0.0,0.0,0.0,0.0,0.0,0.0,0.0,0.0,0.0,0.0,0.0,0.0,0.0,0.0,0.0,0.0656,0.2618,0.2097,0.257,0.5606,0.5183,0.5006,0.6038,0.6232,0.665,0.7444,0.7595,0.851,1.0638,1.0791,1.1292,1.2459,1.1443,1.1405,1.2463,1.2501,1.2501,1.2501,1.2501,1.2501,1.2501,1.2501,1.2501,0.6225,0.7471,0.937,1.1116,1.1484,1.1392,1.1392,1.1253,1.1159,1.1159,1.1159,0.0,0.0,0.0,0.0,0.0,0.0,0.0,0.0,0.0,0.0,0.0,0.0,0.0,0.0,0.0,0.0,0.0,0.0,0.0,1.1584,1.1584,1.1584,1.1584,1.1584,1.1436,1.1106,0.7584,0.5627,0.5265,0.1712,0.0,0.0,0.0,0.0,0.0,0.0,0.0,0.0,0.0,0.0,0.0,0.0,0.0,0.0,0.0,0.0,0.0,0.0,0.0,0.0,0.0,0.0,0.0,0.0,0.0,0.0,0.0,0.0,0.0,0.0,0.0,0.0,0.0,0.0,0.0,0.0,0.0,0.0,0.0,0.0,0.0,0.0,0.0,0.0765,0.3054,0.3234,0.4055,0.6694,0.6918,0.6919,0.7315,0.7325,0.8017,0.9706,0.988,1.0631,1.2348,1.2464,1.2478,1.2501,1.2501,1.2501,1.2501,1.2501,1.2501,1.2501,1.2501,1.2501,1.2501,1.2501,1.2501,0.8969,1.0293,1.0925,1.134,1.1406,1.1392,1.1392,1.1175,1.0945,0.0,0.0,0.0,0.0,0.0,0.0,0.0,0.0,0.0,0.0,0.0,0.0,0.0,0.0,0.0,0.0,0.0,0.0,0.0,0.0,0.0,1.1584,1.1584,1.1584,1.1584,1.1584,1.0779,0.9103,0.6894,0.4939,0.3271,0.1057,0.0,0.0,0.0,0.0,0.0,0.0,0.0,0.0,0.0,0.0,0.0,0.0,0.0,0.0,0.0,0.0,0.0,0.0,0.0,0.0,0.0,0.0,0.0,0.0,0.0,0.0,0.0,0.0,0.0,0.0,0.0,0.0,0.0,0.0,0.0,0.0,0.0,0.0,0.0,0.0,0.0,0.0,0.0,0.1239,0.4866,0.4078,0.5093,1.057,0.9842,0.9518,1.1298,1.1508,1.1571,1.1712,1.1858,1.2048,1.2318,1.2318,1.2372,1.2498,1.2501,1.2501,1.2501,1.2501,1.2501,1.2501,1.2501,1.2501,1.2501,1.2501,1.2501,1.0065,1.0765,1.0992,1.1311,1.1267,1.1165,1.1246,1.1033,1.0786,1.0786,0.0,0.0,0.0,0.0,0.0,0.0,0.0,0.0,0.0,0.0,0.0,0.0,0.0,0.0,0.0,0.0,0.0,0.0,0.0,1.1584,1.1584,1.1584,1.1584,1.1584,1.1584,1.0668,0.8703,0.6785,0.4287,0.1275,0.0401,0.0,0.0,0.0,0.0,0.0,0.0,0.0,0.0,0.0,0.0,0.0,0.0,0.0,0.0,0.0,0.0,0.0,0.0,0.0,0.0,0.0,0.0,0.0,0.0,0.0,0.0,0.0,0.0,0.0,0.0,0.0,0.0,0.0,0.0,0.0,0.0,0.0,0.0,0.0,0.0,0.0,0.0,0.0911,0.2583,0.5373,0.6129,0.7725,1.159,1.1412,1.1321,1.2316,1.241,1.2383,1.2315,1.2369,1.241,1.241,1.241,1.2437,1.2501,1.2501,1.2501,1.2501,1.2501,1.2501,1.2501,1.2501,1.2501,1.2501,1.2501,1.2501,1.0319,1.0515,1.0707,1.1118,1.1049,1.0945,1.1084,0.0,1.0688,0.0,0.0,0.0,0.0,0.0,0.0,0.0,0.0,0.0,0.0,0.0,0.0,0.0,0.0,0.0,0.0,0.0,0.0,0.0,0.0,1.1584,1.1584,1.1584,1.1584,1.1584,1.1584,1.0416,0.7977,0.5555,0.2874,0.0,0.0,0.0,0.0,0.0,0.0,0.0,0.0,0.0,0.0,0.0,0.0,0.0,0.0,0.0,0.0,0.0,0.0,0.0,0.0,0.0,0.0,0.0,0.0,0.0,0.0,0.0,0.0,0.0,0.0,0.0,0.0,0.0,0.0,0.0,0.0,0.0,0.0,0.0,0.0,0.0,0.0,0.0,0.0,0.1602,0.356,0.5518,0.7557,0.9645,1.1763,1.2104,1.2244,1.2427,1.2413,1.242,1.2494,1.2501,1.2501,1.2501,1.2501,1.2501,1.2501,1.2501,1.2501,1.2501,1.2501,1.2501,1.2501,1.2501,1.2501,1.2501,1.2501,1.2501,0.9785,1.008,1.0375,1.068,1.0819,1.0917,0.0,0.0,0.0,0.0,0.0,0.0,0.0,0.0,0.0,0.0,0.0,0.0,0.0,0.0,0.0,0.0,0.0,0.0,0.0,0.0,0.0,0.0,0.0,1.1584,1.1584,1.1584,1.1584,1.1584,1.1584,0.9798,0.5989,0.2184,0.0182,0.0,0.0,0.0,0.0,0.0,0.0,0.0,0.0,0.0,0.0,0.0,0.0,0.0,0.0,0.0,0.0,0.0,0.0,0.0,0.0,0.0,0.0,0.0,0.0,0.0,0.0,0.0,0.0,0.0,0.0,0.0,0.0,0.0,0.0,0.0,0.0,0.0,0.0,0.0,0.0,0.0,0.0,0.0,0.0,0.1602,0.356,0.5518,0.7557,0.9614,1.1547,1.1813,1.1969,1.2271,1.221,1.2234,1.2478,1.2501,1.2501,1.2501,1.2501,1.2501,1.2501,1.2501,1.2501,1.2501,1.2501,1.2501,1.2501,1.2501,1.2501,1.2501,1.2501,1.2501,0.9629,0.9832,1.008,1.0477,1.0616,1.0707,1.087,1.0796,0.0,0.0,0.0,0.0,0.0,0.0,0.0,0.0,0.0,0.0,0.0,0.0,0.0,0.0,0.0,0.0,0.0,0.0,0.0,0.0,0.0,0.0,1.1467,1.1474,1.1518,1.1616,1.1584,0.9726,0.5846,0.1929,0.0,0.0,0.0,0.0,0.0,0.0,0.0,0.0,0.0,0.0,0.0,0.0,0.0,0.0,0.0,0.0,0.0,0.0,0.0,0.0,0.0,0.0,0.0,0.0,0.0,0.0,0.0,0.0,0.0,0.0,0.0,0.0,0.0,0.0,0.0,0.0,0.0,0.0,0.0,0.0,0.0,0.0,0.0,0.0401,0.1638,0.349,0.541,0.7363,0.936,1.092,1.1707,1.1793,1.1911,1.2257,1.224,1.2288,1.2484,1.2501,1.2501,1.2501,1.2501,1.2501,1.2501,1.2501,1.2501,1.2501,1.2501,1.2501,1.2501,1.2501,1.2501,1.2501,1.2501,1.2501,0.9415,0.9598,0.9815,1.0243,1.0419,1.0558,1.0779,0.0,0.0,0.0,0.0,0.0,0.0,0.0,0.0,0.0,0.0,0.0,0.0,0.0,0.0,0.0,0.0,0.0,0.0,0.0,0.0,0.0,0.0,0.0,1.1342,1.1314,1.1362,1.1463,1.0251,0.8346,0.5769,0.1913,0.0,0.0,0.0,0.0,0.0,0.0,0.0,0.0,0.0,0.0,0.0,0.0,0.0,0.0,0.0,0.0,0.0,0.0,0.0,0.0,0.0,0.0,0.0,0.0,0.0,0.0,0.0,0.0,0.0,0.0,0.0,0.0,0.0,0.0,0.0,0.0,0.0,0.0,0.0,0.0,0.0,0.0,0.0,0.062,0.2581,0.4504,0.646,0.8412,1.0341,1.1617,1.1712,1.1722,1.1857,1.2108,1.2182,1.2274,1.242,1.2474,1.2501,1.2501,1.2501,1.2501,1.2501,1.2501,1.2501,1.2501,1.2501,1.2501,1.2501,1.2501,1.2501,1.2501,1.2501,1.2501,0.0,0.0,0.0,0.0,0.0,0.0,1.0644,0.0,0.0,0.0,0.0,0.0,0.0,0.0,0.0,0.0,0.0,0.0,0.0,0.0,0.0,0.0,0.0,0.0,0.0,0.0,0.0,0.0,0.0,1.1186,1.1189,1.1158,1.1093,1.1055,0.745,0.5516,0.5514,0.1843,0.0,0.0,0.0,0.0,0.0,0.0,0.0,0.0,0.0,0.0,0.0,0.0,0.0,0.0,0.0,0.0,0.0,0.0,0.0,0.0,0.0,0.0,0.0,0.0,0.0,0.0,0.0,0.0,0.0,0.0,0.0,0.0,0.0,0.0,0.0,0.0,0.0,0.0,0.0,0.0,0.0,0.0,0.0,0.062,0.2654,0.454,0.6496,0.8485,1.0377,1.1584,1.1584,1.1584,1.1638,1.178,1.1969,1.2162,1.2277,1.242,1.2501,1.2501,1.2501,1.2501,1.2501,1.2501,1.2501,1.2501,1.2501,1.2501,1.2501,1.2501,1.2501,1.2501,1.2501,1.2501,0.896,0.0,0.0,0.0,0.0,0.0,0.0,0.0,0.0,0.0,0.0,0.0,0.0,0.0,0.0,0.0,0.0,0.0,0.0,0.0,0.0,0.0,0.0,0.0,0.0,0.0,0.0,0.0,1.0822,1.089,1.0968,0.9891,0.8649,0.7324,0.4906,0.3648,0.3635,0.123,0.0,0.0,0.0,0.0,0.0,0.0,0.0,0.0,0.0,0.0,0.0,0.0,0.0,0.0,0.0,0.0,0.0,0.0,0.0,0.0,0.0,0.0,0.0,0.0,0.0,0.0,0.0,0.0,0.0,0.0,0.0,0.0,0.0,0.0,0.0,0.0,0.0,0.0,0.0,0.0,0.0,0.0,0.0,0.1057,0.4432,0.5446,0.6932,1.0305,1.1253,1.1584,1.1584,1.1584,1.1638,1.178,1.1969,1.2162,1.2277,1.242,1.2501,1.2501,1.2501,1.2501,1.2501,1.2501,1.2501,1.2501,1.2501,1.2501,1.2501,1.2501,1.2501,1.2501,1.2501,1.2501,0.9028,0.9201,0.0,0.0,0.0,0.0,0.0,1.049,0.0,0.0,0.0,0.0,0.0,0.0,0.0,0.0,0.0,0.0,0.0,0.0,0.0,0.0,0.0,0.0,0.0,0.0,0.0,1.0691,1.0688,1.0389,0.9722,0.881,0.7476,0.5697,0.3801,0.2802,0.2821,0.0935,0.0,0.0,0.0,0.0,0.0,0.0,0.0,0.0,0.0,0.0,0.0,0.0,0.0,0.0,0.0,0.0,0.0,0.0,0.0,0.0,0.0,0.0,0.0,0.0,0.0,0.0,0.0,0.0,0.0,0.0,0.0,0.0,0.0,0.0,0.0,0.0,0.0,0.0,0.0,0.0,0.0,0.0,0.0,0.1239,0.5121,0.581,0.7115,1.0998,1.1584,1.1584,1.1584,1.1584,1.1614,1.1698,1.1935,1.2135,1.2224,1.2383,1.2501,1.2501,1.2501,1.2501,1.2501,1.2501,1.2501,1.2501,1.2501,1.2501,1.2501,1.2501,1.2501,1.2501,1.2501,1.2501,0.9241,0.9332,0.0,0.0,0.0,0.0,1.0385,1.0456,0.0,0.0,0.0,0.0,0.0,0.0,0.0,0.0,0.0,0.0,0.0,0.0,0.0,0.0,0.0,0.0,0.0,1.0616,1.0543,1.0396,1.0585,0.9812,0.7831,0.7698,0.6829,0.4861,0.3226,0.2414,0.2384,0.0817,0.0,0.0,0.0,0.0,0.0,0.0,0.0,0.0,0.0,0.0,0.0,0.0,0.0,0.0,0.0,0.0,0.0,0.0,0.0,0.0,0.0,0.0,0.0,0.0,0.0,0.0,0.0,0.0,0.0,0.0,0.0,0.0,0.0,0.0,0.0,0.0,0.0,0.0,0.0,0.0,0.0,0.0,0.0,0.1237,0.512,0.581,0.7115,1.0998,1.1584,1.1584,1.1584,1.1584,1.1584,1.1584,1.187,1.2074,1.2074,1.2291,1.2454,1.2454,1.2454,1.2461,1.2478,1.2478,1.2484,1.2501,1.2501,1.2501,1.2501,1.2501,1.2501,1.2501,1.2501,1.2501,0.94,0.9534,0.9724,0.9663,0.0,0.0,1.012,1.0232,1.0363,0.0,0.0,0.0,0.0,0.0,0.0,0.0,0.0,0.0,0.0,0.0,0.0,0.0,0.0,0.0,0.0,0.8878,0.8735,0.8543,0.9878,0.931,0.6064,0.5897,0.4426,0.1143,0.0708,0.054,0.0538,0.0169,0.0,0.0,0.0,0.0,0.0,0.0,0.0,0.0,0.0,0.0,0.0,0.0,0.0,0.0,0.0,0.0,0.0,0.0,0.0,0.0,0.0,0.0,0.0,0.0,0.0,0.0,0.0,0.0,0.0,0.0,0.0,0.0,0.0,0.0,0.0,0.0,0.0,0.0,0.0,0.0,0.0,0.0,0.0,0.1223,0.5112,0.581,0.7115,1.0998,1.1584,1.1584,1.1584,1.1584,1.1584,1.1584,1.1772,1.1874,1.1874,1.2043,1.2186,1.2186,1.2186,1.2241,1.2328,1.2332,1.2386,1.2501,1.2501,1.2501,1.2501,1.2501,1.2501,1.2501,1.2501,1.2501,0.9517,0.9602,0.9704,0.9778,0.0,0.0,0.0,0.0,1.0209,1.0354,0.0,0.0,0.0,0.0,0.0,0.0,0.0,0.0,0.0,0.0,0.0,0.0,0.0,0.0,0.0,0.7551,0.7256,0.7943,0.8837,0.8202,0.5531,0.5397,0.3757,0.0101,0.0,0.0,0.0,0.0,0.0,0.0,0.0,0.0,0.0,0.0,0.0,0.0,0.0,0.0,0.0,0.0,0.0,0.0,0.0,0.0,0.0,0.0,0.0,0.0,0.0,0.0,0.0,0.0,0.0,0.0,0.0,0.0,0.0,0.0,0.0,0.0,0.0,0.0,0.0,0.0,0.0,0.0,0.0,0.0,0.0,0.0,0.0,0.1234,0.5125,0.5784,0.7115,1.0998,1.1584,1.1584,1.1584,1.1584,1.1584,1.1584,1.1709,1.1793,1.1793,1.1972,1.2098,1.2098,1.2098,1.2135,1.221,1.225,1.2355,1.2498,1.2501,1.2501,1.2501,1.2501,1.2501,1.2501,1.2501,1.2501,0.0,0.0,0.0,0.0,0.0,0.9958,0.0,0.0,0.0,1.0317,0.0,0.0,0.0,0.0,0.0,0.0,0.0,0.0,0.0,0.0,0.0,0.0,0.0,0.0,0.0,0.6696,0.5969,0.6907,0.7595,0.7096,0.4994,0.5195,0.3757,0.0101,0.0,0.0,0.0,0.0336,0.0504,0.0504,0.0504,0.0504,0.0504,0.0168,0.0,0.0,0.0,0.0,0.0,0.0,0.0,0.0,0.0,0.0,0.0,0.0,0.0,0.0,0.0,0.0,0.0,0.0,0.0,0.0,0.0,0.0,0.0,0.0,0.0,0.0,0.0,0.0,0.0,0.0,0.0,0.0,0.0,0.0,0.0,0.0,0.0,0.1246,0.514,0.5783,0.7128,1.0995,1.1584,1.1584,1.1584,1.1584,1.1584,1.1584,1.1685,1.1753,1.1753,1.1904,1.2013,1.2013,1.2013,1.2026,1.2053,1.2193,1.2345,1.2461,1.2488,1.2501,1.2501,1.2501,1.2501,1.2501,1.2501,1.2501,0.0,0.0,0.0,0.0,1.0039,0.0,0.0,0.0,0.9988,0.9886,0.0,0.0,0.0,0.0,0.0,0.0,0.0,0.0,0.0,0.0,0.0,0.0,0.0,0.0,0.0,0.0,0.4844,0.3422,0.6227,0.6527,0.3187,0.4526,0.3757,0.0101,0.0,0.0,0.0,0.1579,0.2383,0.2383,0.2383,0.2383,0.2351,0.074,0.0,0.0,0.0,0.0,0.0,0.0,0.0,0.0,0.0,0.0,0.0,0.0,0.0,0.0,0.0,0.0,0.0,0.0,0.0,0.0,0.0,0.0,0.0,0.0,0.0,0.0,0.0,0.0,0.0,0.0,0.0,0.0,0.0,0.0,0.0,0.0,0.0,0.1246,0.514,0.5809,0.7126,1.1015,1.1584,1.1584,1.1584,1.1584,1.1584,1.1584,1.1597,1.1607,1.1607,1.1624,1.167,1.167,1.167,1.1725,1.1817,1.2135,1.2298,1.2315,1.2437,1.2501,1.2501,1.2501,1.2501,1.2501,1.2501,1.2501,0.0,0.0,0.0,0.0,0.0,0.0,0.9934,0.0,0.9893,0.0,0.0,0.0,0.0,0.0,0.0,0.0,0.0,0.0,0.0,0.0,0.0,0.0,0.0,0.0,0.0,0.0,0.0,0.0,0.0,0.6896,0.4392,0.4994,0.3757,0.0101,0.1008,0.1579,0.1579,0.3355,0.4258,0.4258,0.4258,0.3722,0.2685,0.1914,0.1009,0.0,0.0,0.0,0.0,0.0,0.0,0.0,0.0,0.0,0.0,0.0,0.0,0.0,0.0,0.0,0.0,0.0,0.0,0.0,0.0,0.0,0.0,0.0,0.0,0.0,0.0,0.0,0.0,0.0,0.0,0.0,0.0,0.0,0.0,0.0,0.0,0.1194,0.5027,0.5743,0.7113,1.1015,1.1584,1.1584,1.1584,1.1584,1.1584,1.1584,1.1584,1.1584,1.1584,1.1584,1.1584,1.1584,1.1584,1.1648,1.179,1.1955,1.2108,1.2288,1.2349,1.242,1.2501,1.2501,1.2501,1.2501,1.2501,1.2501,0.6346,0.0,0.0,0.0,0.0,0.0,0.0,0.0,0.0,0.0,0.0,0.0,0.0,0.0,0.0,0.0,0.0,0.0,0.0,0.0,0.0,0.0,0.0,0.0,0.0,0.0,0.0,0.0,0.0,0.0,0.4794,0.513,0.3757,0.0101,0.1747,0.2685,0.2685,0.4959,0.5863,0.5397,0.5397,0.4459,0.2685,0.2183,0.1243,0.0,0.0,0.0,0.0,0.0,0.0,0.0,0.0,0.0,0.0,0.0,0.0,0.0,0.0,0.0,0.0,0.0,0.0,0.0,0.0,0.0,0.0,0.0,0.0,0.0,0.0,0.0,0.0,0.0,0.0,0.0,0.0,0.0,0.0,0.0,0.0,0.1181,0.4945,0.5717,0.711,1.0954,1.1592,1.1584,1.1584,1.1584,1.1584,1.1584,1.1584,1.1584,1.1584,1.1584,1.1584,1.1584,1.1584,1.1627,1.1732,1.1773,1.1898,1.2159,1.2247,1.2342,1.2444,1.2481,1.2501,1.2501,1.2501,1.2501,0.0,0.0,0.0,0.7058,0.0,0.0,0.0,0.0,0.9754,0.0,0.0,0.0,0.0,0.0,0.0,0.0,0.0,0.0,0.0,0.0,0.0,0.0,0.0,0.0,0.0,0.0,0.0,0.0,0.0,0.0,0.2986,0.4459,0.3757,0.0101,0.1747,0.2685,0.2685,0.616,0.7065,0.5397,0.5397,0.4459,0.2652,0.0874,0.0067,0.0,0.0,0.0,0.0,0.0,0.0,0.0,0.0,0.0,0.0,0.0,0.0,0.0,0.0,0.0,0.0,0.0,0.0,0.0,0.0,0.0,0.0,0.0,0.0,0.0,0.0,0.0,0.0,0.0,0.0,0.0,0.0,0.0,0.0,0.0,0.0,0.1181,0.4945,0.5708,0.7082,1.0841,1.1525,1.1584,1.1584,1.1584,1.1584,1.1584,1.1584,1.1584,1.1584,1.1584,1.1584,1.1584,1.1584,1.1584,1.1626,1.1722,1.18,1.1807,1.2138,1.2291,1.2298,1.2433,1.2501,1.2501,1.2501,1.2501,0.0,0.0,0.3699,0.5329,0.0,0.0,0.0,0.0,0.0,0.0,0.0,0.0,0.0,0.0,0.0,0.0,0.0,0.0,0.0,0.0,0.0,0.0,0.0,0.0,0.0,0.0,0.0,0.0,0.0,0.0,0.0,0.5061,0.3757,0.0101,0.1747,0.2685,0.2685,0.5093,0.5997,0.5397,0.5397,0.4459,0.2685,0.2082,0.1143,0.0,0.0,0.0,0.0,0.0,0.0,0.0,0.0,0.0,0.0,0.0,0.0,0.0,0.0,0.0,0.0,0.0,0.0,0.0,0.0,0.0,0.0,0.0,0.0,0.0,0.0,0.0,0.0,0.0,0.0,0.0,0.0,0.0,0.037,0.1545,0.178,0.2923,0.6566,0.733,0.8358,1.0997,1.1521,1.1584,1.1584,1.1584,1.1584,1.1584,1.1584,1.1584,1.1584,1.1584,1.1584,1.1584,1.1584,1.1584,1.1584,1.1627,1.1698,1.1793,1.2033,1.2227,1.2291,1.2433,1.2501,1.2501,1.2501,1.2501,0.131,0.1622,0.0,0.3625,0.4052,0.0,0.471,0.0,0.0,0.0,0.0,0.0,0.0,0.0,0.0,0.0,0.0,0.0,0.0,0.0,0.0,0.0,0.0,0.0,0.0,0.0,1.0688,1.0688,0.0,0.0,0.0,0.0,0.4024,0.1042,0.2082,0.2685,0.2685,0.4494,0.5061,0.4426,0.4426,0.3489,0.1747,0.1747,0.1109,0.0,0.0,0.0,0.0,0.0,0.0,0.0,0.0,0.0,0.0,0.0,0.0,0.0,0.0,0.0,0.0,0.0,0.0,0.0,0.0,0.0,0.0,0.0,0.0,0.0,0.0,0.0,0.0,0.0,0.0,0.0,0.0,0.0,0.0538,0.2351,0.2685,0.3822,0.7396,0.8161,0.8989,1.1023,1.144,1.1558,1.1577,1.1584,1.1584,1.1584,1.1584,1.1584,1.1584,1.1584,1.1584,1.1584,1.1584,1.1584,1.1584,1.1584,1.1624,1.1715,1.1959,1.2149,1.2247,1.2406,1.2474,1.2427,1.2427,1.2396]},{"header":{"parameterUnit":"m.s-1","parameterCategory":1,"la1":30.6,"la2":29.2853,"lo1":-89.7004,"lo2":-87.6739,"dy":0.0162,"dx":0.0183,"nx":112,"ny":82,"refTime":"2024-08-24T00:00:00:Z","depth":0,"parameterNumber":3,"parameterNumberName":"V-component_of_WINDS"},"data":[0.0,0.0,0.0,0.0,0.0,0.0,0.0,0.0,0.0,0.0,0.0,0.0,0.0,0.0,0.0,0.0,0.0,0.0,0.0,0.0,0.0,0.0,0.0,0.0,0.0,0.0,0.0,0.0,0.0,0.0,0.0,0.0,0.0,0.0,0.0,0.0,0.0,0.0,0.0,0.0,0.0,0.0,0.0,0.0,0.0,0.0,0.0,0.0,0.0,0.0,0.0,0.0,0.0,0.0,0.0,0.0,0.0,0.0,0.0,0.0,0.0,0.0,0.0,0.0,0.0,0.0,0.0,0.0,0.0,0.0,0.0,0.0,0.0,0.0,0.0,0.0,0.0,0.0,0.0,0.0,0.0,0.0,0.0,0.0,0.0,0.0,0.0,0.0,0.0,0.0,0.0,3.9707,3.9707,3.9355,3.8476,3.9062,3.8496,3.6152,0.0,0.0,0.0,0.0,0.0,0.0,0.0,0.0,0.0,0.0,0.0,0.0,0.0,0.0,0.0,0.0,0.0,0.0,0.0,0.0,0.0,0.0,0.0,0.0,0.0,0.0,0.0,0.0,0.0,0.0,0.0,0.0,0.0,0.0,0.0,0.0,0.0,0.0,0.0,0.0,0.0,0.0,0.0,0.0,0.0,0.0,0.0,0.0,0.0,0.0,0.0,0.0,0.0,0.0,0.0,0.0,0.0,0.0,0.0,0.0,0.0,0.0,0.0,0.0,0.0,0.0,0.0,0.0,0.0,0.0,0.0,0.0,0.0,0.0,0.0,0.0,0.0,0.0,0.0,0.0,0.0,0.0,0.0,0.0,0.0,0.0,0.0,0.0,0.0,0.0,0.0,0.0,0.0,0.0,0.0,0.0,0.0,0.0,0.0,0.0,0.0,0.0,0.0,0.0,3.8678,3.8789,3.8809,3.8437,3.7578,3.7617,3.7207,3.6074,0.0,0.0,0.0,0.0,0.0,0.0,0.0,0.0,0.0,0.0,0.0,0.0,0.0,0.0,0.0,0.0,0.0,0.0,0.0,0.0,0.0,0.0,0.0,0.0,0.0,0.0,0.0,0.0,0.0,0.0,0.0,0.0,0.0,0.0,0.0,0.0,0.0,0.0,0.0,0.0,0.0,0.0,0.0,0.0,0.0,0.0,0.0,0.0,0.0,0.0,0.0,0.0,0.0,0.0,0.0,0.0,0.0,0.0,0.0,0.0,0.0,0.0,0.0,0.0,0.0,0.0,0.0,0.0,0.0,0.0,0.0,0.0,0.0,0.0,0.0,0.0,0.0,0.0,0.0,0.0,0.0,0.0,0.0,0.0,0.0,0.0,0.0,0.0,0.0,0.0,0.0,0.0,0.0,0.0,0.0,0.0,0.0,0.0,0.0,0.0,0.0,0.0,0.0,3.8505,3.8458,3.8594,3.8184,3.7539,3.668,3.7031,3.6523,3.4707,3.5017,0.0,0.0,0.0,0.0,0.0,0.0,0.0,0.0,0.0,0.0,0.0,0.0,0.0,0.0,0.0,0.0,0.0,0.0,0.0,0.0,0.0,0.0,0.0,0.0,0.0,0.0,0.0,0.0,0.0,0.0,0.0,0.0,0.0,0.0,0.0,0.0,0.0,0.0,0.0,0.0,0.0,0.0,0.0,0.0,0.0,0.0,0.0,0.0,0.0,0.0,0.0,0.0,0.0,0.0,0.0,0.0,0.0,0.0,0.0,0.0,0.0,0.0,0.0,0.0,0.0,0.0,0.0,0.0,0.0,0.0,0.0,0.0,0.0,0.0,0.0,0.0,0.0,0.0,0.0,0.0,0.0,0.0,0.0,0.0,0.0,0.0,0.0,0.0,0.0,0.0,0.0,0.0,0.0,0.0,0.0,0.0,0.0,0.0,0.0,0.0,0.0,0.0,3.9374,3.8634,3.8544,3.7789,3.6834,3.576,3.6289,3.5664,3.3262,3.373,0.0,0.0,0.0,0.0,0.0,0.0,0.0,0.0,0.0,0.0,0.0,0.0,0.0,0.0,0.0,0.0,0.0,0.0,0.0,0.0,0.0,0.0,0.0,0.0,0.0,0.0,0.0,0.0,0.0,0.0,0.0,0.0,0.0,0.0,0.0,0.0,0.0,0.0,0.0,0.0,0.0,0.0,0.0,0.0,0.0,0.0,0.0,0.0,0.0,0.0,0.0,0.0,0.0,0.0,0.0,0.0,0.0,0.0,0.0,0.0,0.0,0.0,0.0,0.0,0.0,0.0,0.0,0.0,0.0,0.0,0.0,0.0,0.0,0.0,0.0,0.0,0.0,0.0,0.0,0.0,0.0,0.0,0.0,0.0,0.0,0.0,0.0,0.0,0.0,0.0,0.0,0.0,0.0,0.0,0.0,0.0,0.0,0.0,0.0,0.0,0.0,0.0,3.9049,3.9203,3.8404,3.7653,3.6532,3.4832,3.4819,3.4141,3.2383,3.2344,0.0,0.0,0.0,0.0,0.0,0.0,0.0,0.0,0.0,0.0,0.0,0.0,0.0,0.0,0.0,0.0,0.0,0.0,0.0,0.0,0.0,0.0,0.0,0.0,0.0,0.0,0.0,0.0,0.0,0.0,0.0,0.0,0.0,0.0,0.0,0.0,0.0,0.0,0.0,0.0,0.0,0.0,0.0,0.0,0.0,0.0,0.0,0.0,0.0,0.0,0.0,0.0,0.0,0.0,0.0,0.0,0.0,0.0,0.0,0.0,0.0,0.0,0.0,0.0,0.0,0.0,0.0,0.0,0.0,0.0,0.0,0.0,0.0,0.0,0.0,0.0,0.0,0.0,0.0,0.0,0.0,0.0,0.0,0.0,0.0,0.0,0.0,0.0,0.0,0.0,0.0,0.0,0.0,0.0,0.0,0.0,0.0,0.0,0.0,0.0,0.0,0.0,3.8948,3.9177,0.0,3.7561,3.6622,3.5508,3.5428,3.4739,3.3047,0.0,0.0,0.0,0.0,0.0,0.0,0.0,0.0,0.0,0.0,0.0,0.0,0.0,0.0,0.0,0.0,0.0,0.0,0.0,0.0,0.0,0.0,0.0,0.0,0.0,0.0,0.0,0.0,0.0,0.0,0.0,0.0,0.0,0.0,0.0,0.0,0.0,0.0,0.0,0.0,0.0,0.0,0.0,0.0,0.0,0.0,0.0,0.0,0.0,0.0,0.0,0.0,0.0,0.0,0.0,0.0,0.0,0.0,0.0,0.0,0.0,0.0,0.0,0.0,0.0,0.0,0.0,0.0,0.0,0.0,0.0,0.0,0.0,0.0,0.0,0.0,0.0,0.0,0.0,0.0,0.0,0.0,0.0,0.0,0.0,0.0,0.0,0.0,0.0,0.0,0.0,0.0,0.0,0.0,0.0,0.0,0.0,0.0,0.0,0.0,0.0,0.0,3.8053,3.9071,3.9359,0.0,3.7458,3.6534,3.5487,3.5435,3.4722,3.3032,0.0,0.0,0.0,0.0,0.0,0.0,0.0,0.0,0.0,0.0,0.0,0.0,0.0,0.0,0.0,0.0,0.0,0.0,0.0,0.0,0.0,0.0,0.0,0.0,0.0,0.0,0.0,0.0,0.0,0.0,0.0,0.0,0.0,0.0,0.0,0.0,0.0,0.0,0.0,0.0,0.0,0.0,0.0,0.0,0.0,0.0,0.0,0.0,0.0,0.0,0.0,0.0,0.0,0.0,0.0,0.0,0.0,0.0,0.0,0.0,0.0,0.0,0.0,0.0,0.0,0.0,0.0,0.0,0.0,0.0,0.0,0.0,0.0,0.0,0.0,0.0,0.0,0.0,0.0,0.0,0.0,0.0,0.0,0.0,0.0,0.0,0.0,0.0,0.0,0.0,0.0,0.0,0.0,0.0,0.0,0.0,0.0,0.0,0.0,0.0,0.0,0.0,3.8007,3.9473,3.9877,3.818,3.7352,3.6217,3.4465,3.4447,3.3769,0.0,0.0,0.0,0.0,0.0,0.0,0.0,0.0,0.0,0.0,0.0,0.0,0.0,0.0,0.0,0.0,0.0,0.0,0.0,0.0,0.0,0.0,0.0,0.0,0.0,0.0,0.0,0.0,0.0,0.0,0.0,0.0,0.0,0.0,0.0,0.0,0.0,0.0,0.0,0.0,0.0,0.0,0.0,0.0,0.0,0.0,0.0,0.0,0.0,0.0,0.0,0.0,0.0,0.0,0.0,0.0,0.0,0.0,0.0,0.0,0.0,0.0,0.0,0.0,0.0,0.0,0.0,0.0,0.0,0.0,0.0,0.0,0.0,0.0,0.0,0.0,0.0,0.0,0.0,0.0,0.0,0.0,0.0,0.0,0.0,0.0,0.0,0.0,0.0,0.0,0.0,0.0,0.0,0.0,0.0,0.0,0.0,0.0,0.0,0.0,0.0,0.0,0.0,3.8142,4.0546,4.1219,3.8315,3.7804,3.7012,3.536,3.5253,3.4572,3.2915,0.0,0.0,0.0,0.0,0.0,0.0,0.0,0.0,0.0,0.0,0.0,0.0,0.0,0.0,0.0,0.0,0.0,0.0,0.0,0.0,0.0,0.0,0.0,0.0,0.0,0.0,0.0,0.0,0.0,0.0,0.0,0.0,0.0,0.0,0.0,0.0,0.0,0.0,0.0,0.0,0.0,0.0,0.0,0.0,0.0,0.0,0.0,0.0,0.0,0.0,0.0,0.0,0.0,0.0,0.0,0.0,0.0,0.0,0.0,0.0,0.0,0.0,0.0,0.0,0.0,0.0,0.0,0.0,0.0,0.0,0.0,0.0,0.0,0.0,0.0,0.0,0.0,0.0,0.0,0.0,0.0,0.0,0.0,0.0,0.0,0.0,0.0,0.0,0.0,0.0,0.0,0.0,0.0,0.0,0.0,0.0,0.0,0.0,0.0,0.0,0.0,0.0,3.9127,4.1393,4.2047,3.93,3.8392,3.7473,3.6149,3.5733,3.4997,3.3685,0.0,0.0,0.0,0.0,0.0,0.0,0.0,0.0,0.0,0.0,0.0,0.0,0.0,0.0,0.0,0.0,0.0,0.0,0.0,0.0,0.0,0.0,0.0,0.0,0.0,0.0,0.0,0.0,0.0,0.0,0.0,0.0,0.0,0.0,0.0,0.0,0.0,0.0,0.0,0.0,0.0,0.0,0.0,0.0,0.0,0.0,0.0,0.0,0.0,0.0,0.0,0.0,0.0,0.0,0.0,0.0,0.0,0.0,0.0,0.0,0.0,0.0,0.0,0.0,0.0,0.0,0.0,0.0,0.0,0.0,0.0,0.0,0.0,0.0,0.0,0.0,0.0,0.0,0.0,0.0,0.0,0.0,0.0,0.0,0.0,0.0,0.0,0.0,0.0,0.0,0.0,0.0,0.0,0.0,0.0,0.0,0.0,0.0,0.0,0.0,0.0,0.0,4.0516,4.2012,4.2431,4.0689,3.8992,3.7642,3.6773,3.5962,3.5157,3.4375,0.0,0.0,0.0,0.0,0.0,0.0,0.0,0.0,0.0,0.0,0.0,0.0,0.0,0.0,0.0,0.0,0.0,0.0,0.0,0.0,0.0,0.0,0.0,0.0,0.0,0.0,0.0,0.0,0.0,0.0,0.0,0.0,0.0,0.0,0.0,0.0,0.0,0.0,0.0,0.0,0.0,0.0,0.0,0.0,0.0,0.0,0.0,0.0,0.0,0.0,0.0,0.0,0.0,0.0,0.0,0.0,0.0,0.0,0.0,0.0,4.1876,0.0,0.0,0.0,0.0,0.0,0.0,0.0,0.0,0.0,0.0,0.0,0.0,0.0,0.0,0.0,0.0,0.0,0.0,0.0,0.0,0.0,0.0,0.0,0.0,0.0,0.0,0.0,0.0,0.0,0.0,0.0,0.0,0.0,0.0,0.0,0.0,0.0,0.0,0.0,0.0,0.0,4.0593,4.2012,4.2431,4.0689,3.8992,3.7642,3.6773,3.5962,3.5423,3.5234,3.4391,0.0,0.0,0.0,0.0,0.0,0.0,0.0,0.0,0.0,0.0,0.0,0.0,0.0,0.0,0.0,0.0,0.0,0.0,0.0,0.0,0.0,0.0,0.0,0.0,0.0,0.0,0.0,0.0,0.0,0.0,0.0,0.0,0.0,0.0,0.0,0.0,0.0,0.0,0.0,0.0,0.0,0.0,0.0,0.0,0.0,0.0,0.0,0.0,0.0,0.0,0.0,0.0,0.0,0.0,0.0,0.0,0.0,0.0,0.0,0.0,4.3733,0.0,0.0,0.0,0.0,0.0,0.0,0.0,0.0,0.0,0.0,0.0,0.0,0.0,0.0,0.0,0.0,0.0,0.0,0.0,0.0,0.0,0.0,0.0,0.0,0.0,0.0,0.0,0.0,0.0,0.0,0.0,0.0,0.0,0.0,0.0,0.0,0.0,0.0,0.0,0.0,4.2281,4.2777,4.2758,4.1858,3.9877,3.843,3.7988,3.7177,3.6696,3.6696,3.5872,0.0,0.0,0.0,0.0,0.0,0.0,0.0,0.0,0.0,0.0,0.0,0.0,0.0,0.0,0.0,0.0,0.0,0.0,0.0,0.0,0.0,0.0,0.0,0.0,0.0,0.0,0.0,0.0,0.0,0.0,0.0,0.0,0.0,0.0,0.0,0.0,0.0,0.0,0.0,0.0,0.0,0.0,0.0,0.0,0.0,0.0,0.0,0.0,0.0,0.0,0.0,0.0,0.0,4.9012,4.9052,4.8853,4.9,4.9084,4.9076,4.7747,4.746,4.7847,0.0,0.0,0.0,0.0,0.0,0.0,0.0,0.0,0.0,0.0,0.0,0.0,0.0,0.0,0.0,0.0,0.0,0.0,0.0,0.0,0.0,0.0,0.0,0.0,0.0,4.8432,4.7567,0.0,0.0,0.0,0.0,0.0,0.0,0.0,0.0,0.0,0.0,0.0,0.0,4.4124,4.372,4.3258,4.3104,4.0899,3.9396,3.9319,3.8458,3.8009,3.8219,3.7546,3.7273,0.0,0.0,0.0,0.0,0.0,0.0,0.0,0.0,0.0,0.0,0.0,0.0,0.0,0.0,0.0,0.0,0.0,0.0,0.0,0.0,0.0,0.0,0.0,0.0,0.0,0.0,0.0,0.0,0.0,0.0,0.0,0.0,4.3172,4.541,0.0,0.0,0.0,0.0,0.0,0.0,0.0,0.0,0.0,0.0,0.0,0.0,0.0,4.9545,5.0472,5.1151,5.1151,5.049,5.1893,5.2017,5.1014,5.1712,5.2222,5.2551,5.2325,0.0,4.8839,4.889,0.0,0.0,0.0,0.0,0.0,0.0,0.0,0.0,0.0,0.0,0.0,0.0,0.0,0.0,0.0,0.0,0.0,0.0,0.0,0.0,0.0,0.0,4.988,4.9356,4.9803,4.9995,0.0,4.7355,4.6331,4.6101,0.0,0.0,0.0,0.0,0.0,0.0,0.0,0.0,4.4259,4.4201,4.3874,4.3162,4.1238,3.9815,3.9342,3.8238,3.8017,3.9058,3.9011,3.9604,4.1062,4.0392,0.0,0.0,0.0,0.0,0.0,0.0,0.0,0.0,0.0,0.0,0.0,0.0,0.0,0.0,0.0,0.0,0.0,0.0,0.0,0.0,0.0,0.0,0.0,0.0,0.0,0.0,0.0,0.0,0.0,4.3546,4.5709,4.6037,4.6999,4.7178,0.0,0.0,0.0,0.0,0.0,0.0,0.0,0.0,0.0,5.1555,5.1628,5.2342,5.389,5.4242,5.4361,5.4296,5.4502,5.4321,5.3806,5.3714,5.3749,5.3926,5.3926,5.3369,5.2362,5.1535,5.097,5.0525,0.0,0.0,0.0,0.0,5.0813,5.1005,5.2356,5.2592,0.0,0.0,0.0,0.0,0.0,0.0,0.0,0.0,0.0,0.0,0.0,0.0,0.0,5.0091,5.0418,5.0592,5.0207,4.9553,4.874,0.0,4.7355,4.6706,4.5282,0.0,0.0,0.0,0.0,0.0,4.4975,4.4609,4.4162,4.3816,4.2132,4.0959,4.0731,3.9771,3.9624,4.0635,4.0719,4.1258,4.2485,4.2162,4.1954,0.0,0.0,0.0,0.0,0.0,0.0,0.0,0.0,0.0,0.0,0.0,0.0,0.0,0.0,0.0,0.0,0.0,0.0,0.0,0.0,0.0,0.0,0.0,0.0,0.0,0.0,0.0,0.0,4.6689,4.8049,4.7259,4.8958,4.9325,0.0,0.0,0.0,0.0,0.0,0.0,5.0874,5.1091,5.2194,5.4405,5.4479,5.5326,5.708,5.6902,5.6963,5.7297,5.6439,5.609,5.6166,5.5571,5.5352,5.5468,5.5468,5.5633,5.5753,5.3735,5.2768,5.2505,5.1919,5.1534,5.1457,5.2486,5.2736,5.2774,5.4299,5.4664,5.4434,5.3972,0.0,5.212,5.151,0.0,0.0,0.0,0.0,5.0183,5.0837,5.038,4.9899,5.0553,5.0707,5.0707,5.0707,5.0707,5.0322,0.0,4.9106,4.8803,4.6898,0.0,0.0,0.0,0.0,4.4878,4.5518,4.5032,4.4551,4.4316,4.3116,4.2273,4.2135,4.1459,4.1359,4.2096,4.2331,4.2735,4.3374,4.3624,4.3624,4.3412,0.0,0.0,0.0,0.0,0.0,0.0,0.0,0.0,0.0,0.0,0.0,0.0,0.0,0.0,0.0,0.0,0.0,0.0,0.0,0.0,0.0,0.0,0.0,0.0,0.0,0.0,0.0,0.0,0.0,5.0553,5.1344,0.0,0.0,0.0,0.0,5.049,5.1065,5.235,5.468,5.524,5.6239,5.7894,5.7951,5.8374,5.925,5.8485,5.8125,5.8132,5.7326,5.7126,5.7496,5.7458,5.7697,5.812,5.812,5.8125,5.7908,5.495,5.3979,5.4376,5.4318,5.3799,5.328,5.4914,5.503,5.4491,5.5343,5.5151,5.4626,5.5343,5.4472,5.3121,5.3082,5.2505,0.0,0.0,5.1808,5.1769,5.1827,5.1241,5.0649,5.0688,5.0707,5.0707,5.0707,5.0707,5.0668,0.0,4.9938,4.9356,4.9221,0.0,4.6812,4.6774,4.6067,4.5556,4.5594,4.5556,4.5225,4.4397,4.4001,4.3594,4.3088,4.2704,4.2652,4.3015,4.3758,4.4182,4.4239,4.5032,4.5071,4.4259,4.4201,0.0,0.0,0.0,0.0,0.0,0.0,0.0,0.0,0.0,0.0,0.0,0.0,0.0,0.0,0.0,0.0,0.0,0.0,0.0,0.0,0.0,0.0,0.0,0.0,0.0,0.0,0.0,0.0,5.2333,5.35,0.0,5.2068,5.2105,5.26,5.3503,5.4196,5.5323,5.7015,5.7253,5.7838,5.8945,5.8964,5.9259,5.9836,5.9577,5.958,5.9858,5.9005,5.8687,5.8813,5.8289,5.8138,5.8294,5.8294,5.8294,5.8212,5.7142,5.68,5.6953,5.6953,5.6415,5.5728,5.6324,5.5997,5.5304,5.5593,5.5516,5.5324,5.5612,5.534,5.4931,5.4931,5.4804,5.4661,5.4661,5.4257,5.3695,5.3145,5.2369,5.1589,5.0971,5.0839,5.0821,5.0726,5.0707,5.0707,5.0707,5.0457,5.0053,4.949,4.8894,4.8144,4.7062,4.6639,4.622,4.5667,4.5594,4.5475,4.5167,4.4543,4.4084,4.3889,4.3286,4.3196,4.3831,4.4143,4.4551,4.5109,4.5436,4.5455,4.5148,4.459,4.4008,0.0,0.0,0.0,0.0,0.0,0.0,0.0,0.0,0.0,0.0,0.0,0.0,0.0,0.0,0.0,0.0,0.0,0.0,0.0,0.0,0.0,0.0,0.0,0.0,0.0,0.0,5.3911,5.3636,5.5023,5.5372,5.3765,5.447,5.5284,5.5873,5.6703,5.7659,5.8773,5.8999,5.9315,5.9859,5.987,6.0025,6.0331,6.0338,6.0495,6.0787,6.0204,5.9935,5.9915,5.9396,5.9146,5.9146,5.9146,5.9146,5.9146,5.9146,5.9146,5.9108,5.8813,5.8184,5.744,5.744,5.6882,5.6104,5.585,5.5765,5.5779,5.5849,5.5935,5.6003,5.6003,5.609,5.6194,5.6194,5.5574,5.4779,5.419,5.3395,5.2501,5.1596,5.1373,5.1262,5.0917,5.0827,5.0826,5.0769,5.073,5.0515,4.9938,4.9591,4.9029,4.7908,4.7255,4.6697,4.6105,4.5782,4.5594,4.5594,4.5071,4.4744,4.4744,4.4244,4.4167,4.4705,4.4744,4.4994,4.5575,4.5594,4.5594,4.5594,4.5032,4.5013,4.5586,0.0,0.0,0.0,0.0,0.0,0.0,0.0,0.0,0.0,0.0,0.0,0.0,0.0,0.0,0.0,0.0,0.0,0.0,0.0,0.0,0.0,0.0,0.0,5.2212,5.4177,5.5379,5.4637,5.5923,5.6272,5.471,5.5673,5.6732,5.7524,5.8419,5.9274,6.0087,6.0553,6.0806,6.0806,6.0806,6.0806,6.0806,6.0806,6.0806,6.0806,6.0806,6.0806,6.0806,6.0806,6.0806,6.0806,6.0806,6.0806,6.0806,6.0806,6.0806,6.0723,5.9877,5.905,5.8333,5.8333,5.7767,5.6897,5.6154,5.5904,5.5944,5.6143,5.6197,5.6219,5.6219,5.6202,5.6207,5.6207,5.5606,5.4947,5.4928,5.429,5.3434,5.2568,5.2351,5.2135,5.1347,5.1189,5.1131,5.1013,5.0855,5.0746,5.0712,5.0,4.9442,4.9399,4.8029,0.0,4.6908,4.6163,4.5633,4.5594,4.5594,4.5594,4.5594,4.5594,4.5594,4.5594,4.5594,4.5614,4.5633,4.5667,4.5686,4.5729,4.5753,4.6546,4.8153,0.0,0.0,0.0,0.0,0.0,0.0,0.0,0.0,0.0,0.0,0.0,0.0,0.0,0.0,0.0,0.0,0.0,0.0,0.0,0.0,0.0,5.4404,5.576,5.563,5.6405,5.7238,5.7941,5.8419,5.8512,5.8072,5.8341,5.877,5.9333,5.9611,6.0028,6.0584,6.074,6.0806,6.0806,6.0806,6.0806,6.0806,6.0806,6.0806,6.0806,6.0806,6.0806,6.0806,6.0806,6.0806,6.0806,6.0806,6.0806,6.0806,6.0806,6.0806,6.0787,6.0531,5.9915,5.916,5.916,5.8308,5.7034,5.6189,5.5999,5.6138,5.6181,5.6275,5.6356,5.6356,5.6417,5.6488,5.6488,5.6313,5.5981,5.5356,5.5005,5.4588,5.3629,5.3382,5.3306,5.2974,5.2913,5.2903,5.2866,5.2315,5.1617,5.0831,5.0585,5.023,4.9499,4.9009,0.0,4.7062,4.6697,4.6297,4.5667,4.5594,4.5594,4.5594,4.5594,4.5594,4.5594,4.5594,4.5879,4.6528,4.7105,4.7702,4.8341,4.9063,4.9362,0.0,0.0,0.0,0.0,0.0,0.0,0.0,0.0,0.0,0.0,0.0,0.0,0.0,0.0,0.0,0.0,0.0,0.0,0.0,0.0,0.0,0.0,5.6715,5.7947,5.8506,5.8432,5.8577,5.9307,5.9389,5.9389,5.9389,5.9586,5.9816,6.0069,6.0278,6.0508,6.0794,6.0806,6.0806,6.0806,6.0806,6.0806,6.0806,6.0806,6.0806,6.0806,6.0806,6.0806,6.0806,6.0806,6.0806,0.0,6.0806,6.0806,6.0806,6.0806,6.0806,0.0,0.0,0.0,0.0,0.0,5.8854,5.7718,5.6931,5.6738,5.6788,5.6478,5.6421,5.6485,5.6485,5.6538,5.6601,5.6601,5.6601,5.6484,5.5976,5.584,5.5605,5.4657,5.4438,5.4315,5.3852,5.3765,5.3756,5.3679,0.0,0.0,5.2033,5.1407,5.0794,5.0201,4.9744,4.9123,4.8158,4.7668,4.7216,4.6701,4.6648,4.6648,4.6648,4.6648,0.0,0.0,0.0,4.7601,4.8533,4.9019,0.0,0.0,0.0,0.0,0.0,0.0,0.0,0.0,5.441,5.4984,0.0,0.0,0.0,0.0,0.0,0.0,0.0,0.0,0.0,0.0,0.0,0.0,0.0,0.0,0.0,0.0,5.8764,5.9438,6.063,6.0077,5.957,5.957,5.957,5.957,5.957,5.9931,6.0175,6.0175,6.0565,6.0806,6.0806,0.0,0.0,0.0,0.0,6.0806,6.0806,6.0806,6.0806,6.0806,6.0806,6.0806,6.0806,6.0806,6.0806,6.0806,6.0806,6.0806,6.0806,6.0806,6.0804,6.0814,6.0814,6.0814,6.0737,6.0067,5.9415,5.8778,5.8086,0.0,0.0,5.699,5.6758,5.6738,5.6621,5.668,5.6738,5.6621,5.668,5.6719,5.6621,5.6601,5.6406,5.5625,5.5449,5.5234,5.4453,5.4297,5.4256,5.4134,5.4133,5.4075,5.383,5.2455,5.1363,5.1249,5.0482,4.9843,4.9649,4.8837,4.8244,4.8167,0.0,0.0,4.8287,4.8287,4.8326,4.8426,4.9259,5.0188,5.1152,5.1395,5.1919,5.2816,5.3732,5.4903,5.6371,5.7473,5.8363,5.9,5.6626,5.6738,0.0,0.0,0.0,0.0,0.0,0.0,0.0,0.0,0.0,0.0,0.0,0.0,0.0,0.0,0.0,5.9088,5.9901,6.0498,6.0756,6.0641,6.054,6.054,6.054,6.054,6.054,6.0616,6.0653,6.0653,6.0752,6.0806,6.0806,6.0806,0.0,6.0806,6.0806,6.0806,6.0806,6.0806,6.0806,6.0806,0.0,0.0,6.0806,6.0806,6.0806,6.0806,6.0806,6.0806,6.0806,6.0806,6.085,6.0968,6.0968,6.0968,6.0884,6.0215,5.9944,5.9784,5.8964,5.8767,5.8768,5.7929,5.7656,5.7519,5.6816,5.709,0.0,5.6797,5.7109,5.748,5.6777,5.6601,5.6562,5.6387,5.6348,5.6308,5.6133,5.6094,5.6094,5.6053,5.5507,5.5039,5.4975,5.403,5.2997,5.2186,5.1896,5.1297,4.9938,4.9584,4.9201,4.8505,4.8427,4.8702,4.9409,4.9468,4.9762,5.0489,5.1339,5.22,5.3035,5.4439,5.5272,5.5453,5.7045,5.7726,5.7417,5.9071,5.9959,6.0096,5.9585,5.9603,0.0,0.0,0.0,0.0,0.0,0.0,0.0,0.0,0.0,0.0,0.0,5.7261,5.8088,0.0,6.0473,6.1281,6.1775,6.1916,6.1518,6.1441,6.1287,6.0845,6.0806,6.0806,6.0806,6.1191,6.1441,6.1441,6.182,6.1952,6.1714,6.1707,6.158,6.1313,6.1566,6.1707,6.1707,6.1927,6.205,6.205,6.205,6.1839,6.1441,6.1441,6.121,6.0806,6.0806,6.0806,6.0818,6.0871,6.1,6.1169,6.122,6.125,6.1203,6.0867,6.0833,6.0825,5.9947,5.9722,5.9668,5.8828,5.8555,5.8476,5.8027,5.8203,5.8457,5.8027,5.8203,5.8457,5.8008,5.789,5.789,5.789,5.789,5.789,5.789,5.7558,5.7246,5.7246,5.6543,5.5957,5.5957,5.5524,5.4729,5.3356,5.3086,5.2748,5.1913,5.173,5.1539,5.1093,5.1054,5.123,5.1662,5.1701,5.2071,5.2947,5.3412,5.4255,5.5592,5.649,5.7195,5.7686,5.8982,5.9441,5.9052,6.0409,6.1055,6.1055,6.1055,6.1055,0.0,0.0,0.0,0.0,0.0,0.0,0.0,0.0,5.8076,5.8249,5.9356,6.0506,6.1205,6.1886,6.2557,6.3179,6.3295,6.3064,6.2422,6.2326,6.2076,6.1377,6.1152,6.1114,6.1262,6.1922,6.2326,6.2326,6.2935,6.3104,6.2639,6.2597,6.2395,6.1978,6.2371,6.2635,6.2736,6.3117,6.3295,6.3295,6.3295,6.2948,6.2326,6.2172,6.171,6.1037,6.0908,6.0834,6.0842,6.1038,6.1198,6.1344,6.1495,6.1543,6.1543,6.1543,6.1608,6.1601,6.0898,6.0644,6.0527,5.9707,5.9433,5.9394,5.9258,5.9316,5.9394,5.9238,5.9316,5.9394,5.9238,5.9199,5.9199,5.9199,5.9199,5.9199,5.9199,5.8652,5.8144,5.8144,5.7598,5.7109,5.7109,5.7109,5.6465,5.4531,5.4151,5.4033,5.3858,5.3733,5.3685,5.3685,5.3685,5.3746,5.3921,5.4235,5.474,5.5437,5.5632,5.6409,5.7932,5.8149,5.8617,5.9414,6.0234,6.0644,6.0644,6.1367,6.1699,6.1699,6.1699,6.1699,5.5241,5.5343,5.5684,5.7434,5.7877,5.8492,0.0,0.0,6.1928,6.2693,6.3003,6.3172,6.3269,6.3221,6.3198,6.3295,6.3295,6.3275,6.3179,6.316,6.3121,6.3025,6.2397,6.2249,6.2948,6.3102,6.316,6.316,6.3256,6.3104,6.2639,6.2597,6.2574,6.2501,6.2567,6.2806,6.3213,6.3276,6.3295,6.3295,6.3295,6.3256,6.3141,6.2422,6.2056,6.192,6.1268,6.0981,6.0997,6.1325,6.146,6.1498,6.1632,6.1679,6.1679,6.1679,6.1699,6.1699,6.1582,6.1543,6.1406,6.0547,6.0273,6.0137,5.9414,5.9707,6.0117,5.9394,5.9707,6.0098,5.9394,5.9199,5.9199,5.9199,5.9199,5.9199,5.9199,5.9121,5.9043,5.9043,5.8984,5.8906,5.8906,5.8906,5.8047,5.5527,5.5136,5.4843,5.4081,5.3963,5.3962,5.3962,5.3962,5.4275,5.5037,5.6521,5.7459,5.7556,5.8298,5.8807,5.9023,5.9726,6.0156,6.0254,6.1113,6.1543,6.1543,6.164,6.1699,6.1699,6.1699,6.1699,5.755,5.7915,5.8338,6.0069,6.0517,6.0929,6.2594,6.3376,6.3742,6.3716,6.4511,6.5037,6.4418,6.5054,6.5655,0.0,6.5513,6.5359,6.4878,6.4378,6.4064,6.4064,6.3762,6.3493,6.3314,6.3756,6.4282,6.4762,6.5243,6.5509,6.5504,6.5072,6.4674,6.4366,6.4163,6.4146,6.4353,6.466,6.4801,6.4801,6.4801,6.4551,6.4051,6.3705,6.3018,6.2055,6.1317,6.1073,6.1181,6.1409,6.1547,6.1612,6.1679,6.1699,6.1699,6.1699,6.1699,6.1699,6.1699,6.1699,6.164,6.1289,6.1152,6.1094,6.0762,6.0898,6.1094,6.0742,6.0898,6.1074,6.0742,6.0644,6.0644,6.0644,6.0644,6.0644,6.0644,6.0254,5.9902,5.9902,5.9512,5.9199,5.9199,5.9199,5.8828,5.7734,5.7148,5.668,5.6328,5.582,5.5508,5.5508,5.5976,5.6426,5.6777,5.7949,5.8652,5.8652,5.9004,5.9414,5.9883,6.0215,6.0644,6.1152,6.1504,6.1699,6.1699,6.1699,6.1699,6.1699,6.1699,6.1973,5.9332,5.9787,6.0349,6.1786,6.2364,6.282,6.3798,6.4676,6.5162,6.4669,6.5581,6.6226,6.5439,6.6452,6.7342,6.7211,6.7346,6.7167,6.6346,6.5686,6.5205,6.4974,6.4955,6.4705,6.4083,6.4589,6.5301,6.6167,6.6769,6.725,6.758,6.7052,6.655,6.6161,6.5707,6.5524,6.5657,6.5812,6.5904,6.5904,6.5904,6.557,6.4955,6.4705,6.3685,6.2074,6.1568,6.1334,6.1317,6.1446,6.1579,6.1699,6.1699,6.1699,6.1699,6.1699,6.1699,6.1699,6.1699,6.1699,6.1699,6.1699,6.1699,6.1699,6.1699,6.1699,6.1699,6.1699,6.1699,6.1699,6.1699,6.1699,6.1699,6.1699,6.1699,6.1699,6.1699,6.1191,6.0762,6.0762,6.0293,5.9883,5.9883,5.9883,5.9883,5.9883,5.914,5.8515,5.8281,5.7715,5.7324,5.7324,5.7871,5.8262,5.8262,5.9043,5.9531,5.9531,5.9765,6.0156,6.0723,6.0762,6.1055,6.1699,6.1699,6.1699,6.1699,6.1699,6.1816,6.2051,6.2051,6.2539,6.0049,6.0502,6.1412,6.2127,6.3021,6.3981,6.4847,6.5835,6.6532,6.6515,6.6554,6.6572,6.6551,6.7012,6.7402,6.7392,6.7948,6.8064,6.7192,6.7039,6.6731,6.5961,6.5865,6.5846,0.0,6.5846,6.6211,6.7,6.7096,6.725,6.758,6.7575,6.7548,6.754,6.6758,6.6579,6.7038,6.6282,6.5904,6.5904,6.5904,6.5878,6.582,6.4993,6.3685,6.2113,6.2215,6.1908,6.1317,6.1446,6.1579,6.1699,6.1699,6.1699,6.1699,6.1699,6.1699,6.1699,6.1699,6.1699,6.1699,6.1699,6.1699,6.1699,6.1699,6.1699,6.1699,6.1699,6.1699,6.1699,6.1699,6.1699,6.1699,6.1699,6.1699,6.1699,6.1699,6.168,6.166,6.166,6.164,6.1621,6.1621,6.1621,6.1621,6.1621,6.0879,6.0039,5.9258,5.914,5.9121,5.9121,5.914,5.916,5.916,5.9902,6.0351,6.0351,6.1152,6.164,6.166,6.166,6.168,6.1699,6.1699,6.1699,6.1699,6.1699,6.2129,6.2969,6.2969,6.3437,6.0012,6.0602,6.1624,6.2954,6.3544,6.4196,6.5732,6.6362,6.6631,6.6766,6.634,6.6079,6.6529,6.6638,6.7009,6.8036,6.8797,6.9167,6.8879,6.9283,6.9109,6.7718,6.8071,0.0,0.0,0.0,0.0,6.7859,6.7955,6.8498,6.9724,6.9275,6.8987,6.8987,6.8174,6.7796,6.7949,6.7686,6.7263,6.6692,6.6248,6.6032,6.5993,6.5123,6.4384,6.3735,6.3436,6.2847,6.2118,6.2384,6.2185,6.1699,6.1699,6.1699,6.1699,6.1699,6.1699,6.1699,6.1699,6.1699,6.1699,6.1699,6.1699,6.1699,6.1699,6.1699,6.1699,6.1699,6.1699,6.1699,6.1699,6.1699,6.1699,6.1699,6.1699,6.1699,6.1699,6.1699,6.1699,6.1699,6.1699,6.1699,6.1699,6.1699,6.1699,6.1699,6.0957,6.0117,5.9297,5.9199,5.9199,5.9199,5.9687,6.0,6.0,6.0762,6.1269,6.1269,6.1543,6.1699,6.1699,6.1699,6.1699,6.1699,6.2265,6.2558,6.2558,6.3144,6.3574,6.3867,6.3867,6.4336,6.0555,6.0984,6.1846,6.3482,6.3932,6.4466,6.6294,6.6478,6.6272,6.6406,6.5742,6.535,6.6113,6.6331,6.6908,6.8463,6.9568,7.0202,7.0142,7.0896,7.0843,6.9133,6.9454,6.9248,0.0,0.0,0.0,6.8314,6.868,6.9449,7.0821,7.0417,7.0129,7.0129,6.9321,6.8899,6.894,6.8657,6.8118,6.73,6.6552,6.6219,6.6195,6.555,6.5083,6.4758,6.4337,6.3735,6.309,6.3309,6.3083,6.2598,6.2285,6.2344,6.2598,6.2285,6.2168,6.2129,6.1816,6.1699,6.1699,6.1699,6.1699,6.1699,6.1699,6.1699,6.1699,6.1699,6.1699,6.1699,6.1699,6.1699,6.1699,6.1699,6.1699,6.1699,6.1699,6.1699,6.1699,6.1699,6.1699,6.1699,6.1699,6.1699,6.1699,6.1699,6.1211,6.0683,6.0156,6.0098,6.0098,6.0098,6.0566,6.0859,6.0859,6.1387,6.1699,6.1699,6.1699,6.1699,6.1699,6.1699,6.1855,6.2168,6.2715,6.3144,6.3476,6.4023,6.4453,6.4765,6.4765,6.5234,6.1488,6.1568,6.2088,6.3715,6.4167,6.4687,6.6445,6.6152,6.5527,6.5527,6.4844,6.4492,6.5371,6.6072,6.7062,6.866,7.0248,7.1222,7.1075,7.2014,7.2051,0.0,0.0,0.0,0.0,0.0,0.0,6.8501,0.0,7.0059,7.0868,7.0925,7.0913,7.0933,7.0182,6.9852,6.9982,6.9183,6.8433,6.7771,6.6889,6.6458,6.6396,6.6208,6.5778,6.5161,6.4966,6.4613,6.4162,6.4166,6.4239,6.4219,6.3398,6.3574,6.4199,6.3379,6.3047,6.2871,6.2051,6.1738,6.1699,6.1699,6.1699,6.1699,6.1699,6.1699,6.1699,6.1699,6.1699,6.1699,6.1699,6.1699,6.1699,6.1699,6.1699,6.1699,6.1699,6.1699,6.1699,6.1699,6.1699,6.1699,6.1699,6.1699,6.1699,6.1699,6.1699,6.1699,6.1699,6.1699,6.1699,6.1699,6.1699,6.1699,6.1699,6.1699,6.1699,6.1699,6.1699,6.1699,6.1699,6.1738,6.2168,6.2988,6.3086,6.3535,6.4375,6.4414,6.4863,6.5664,6.5664,6.6113,6.0876,6.1171,6.2109,6.3826,6.3788,6.3789,6.5527,6.5254,6.4629,6.4629,6.3945,6.3594,6.4473,6.5176,0.0,6.8741,7.0959,0.0,7.3139,7.4556,0.0,7.3154,0.0,7.3123,7.0988,7.1338,0.0,0.0,6.9722,7.0125,7.1079,7.1128,7.1186,7.1338,7.1152,7.1061,7.1097,7.0234,6.949,6.8802,6.7928,6.7187,6.6539,6.6492,6.6324,6.6062,6.612,6.5693,6.5001,6.5163,6.4862,6.4277,6.4062,6.4101,6.4277,6.4043,6.3555,6.2969,6.2754,6.2246,6.1699,6.1699,6.1699,6.1699,6.1699,6.1699,6.1699,6.1699,6.1699,6.1699,6.1699,6.1699,6.1699,6.1699,6.1699,6.1699,6.1699,6.1699,6.1699,6.1699,6.1699,6.1699,6.1699,6.1699,6.1699,6.1699,6.1699,6.1699,6.1699,6.1699,6.1699,6.1699,6.1699,6.1699,6.1699,6.1699,6.1699,6.1699,6.1699,6.1699,6.1699,6.2324,6.2773,6.3008,6.4277,6.5058,6.5273,6.5918,6.6348,6.6562,6.6562,6.6699,6.1468,6.1805,6.2512,6.3945,6.3926,6.3828,6.4805,6.4355,6.373,6.373,6.3047,6.2695,6.3574,6.4662,6.626,0.0,0.0,0.0,7.4405,7.582,7.6229,0.0,7.5126,0.0,7.2893,7.3081,7.2915,0.0,7.1017,7.0733,7.1301,7.1325,7.1384,7.1497,7.1501,7.1537,7.1591,7.0812,7.0236,6.9842,6.8922,6.8062,6.7305,6.711,6.6899,6.662,0.0,6.6362,6.5999,6.6033,6.575,6.5261,6.489,6.4968,6.5263,6.498,6.4551,6.4121,6.4035,6.321,6.2139,6.1816,6.1699,6.1699,6.1699,6.1699,6.1699,6.1699,6.1699,6.1699,6.1699,6.1699,6.1797,6.2187,6.1973,6.1914,6.2676,6.2246,6.1699,6.1699,6.1699,6.1699,6.1699,6.1699,6.1699,6.1699,6.1699,6.1699,6.1699,6.1699,6.1699,6.1699,6.1699,6.1699,6.1699,6.1699,6.1699,6.1699,6.2051,6.2265,6.2265,6.3105,6.375,6.4121,6.5098,6.5781,6.6172,6.666,6.6894,6.6894,6.6894,6.6894,6.2691,6.2969,6.3182,6.408,6.4219,6.4121,6.4121,6.3457,6.2832,6.2832,6.2226,6.1933,6.2695,6.4355,6.6404,6.8825,0.0,7.3663,7.5471,7.6433,7.6702,7.6056,7.5885,7.548,7.46,7.4343,7.4193,7.4095,7.2704,7.1819,7.1715,7.1595,7.1547,7.1568,7.1688,7.1748,7.1746,7.1166,7.08,7.0663,6.9788,6.8985,6.8276,6.7806,6.7376,6.6988,0.0,0.0,6.681,6.6649,6.658,6.6502,6.5737,6.5915,6.6491,6.5922,6.562,6.552,6.5334,6.4257,6.2807,6.2058,6.1734,6.1656,6.1678,6.1678,6.1679,6.1699,6.1699,6.1699,6.1699,6.1797,6.2051,6.2812,6.2519,6.2461,6.3965,6.3105,6.2051,6.2051,6.2051,6.2051,6.2051,6.2051,6.2051,6.2051,6.2051,6.2051,6.2051,6.1836,6.1699,6.1699,6.1699,6.1699,6.1699,6.1816,6.1875,6.1875,6.2695,6.3164,6.3164,6.4004,6.4824,6.5586,6.5703,6.6133,6.6894,6.6894,6.6894,6.6894,6.6894,6.6894,6.3583,6.3862,6.3939,6.4236,6.3769,6.3223,6.3223,6.2558,6.1933,6.1933,6.1816,6.1758,6.1894,6.3945,6.6426,6.8943,7.154,7.4352,7.7493,7.7476,7.7361,0.0,7.7361,7.658,7.5701,7.5581,0.0,0.0,0.0,7.3496,7.2789,7.2055,7.174,7.1905,7.2609,7.265,7.1951,7.1836,7.1362,7.0539,7.0369,6.9757,6.875,6.7957,6.7551,6.7437,6.6744,0.0,6.6485,6.6441,6.6429,6.6429,6.6274,6.6293,6.6413,6.6301,6.5803,6.5172,6.5147,6.4471,6.3498,6.2632,6.1902,6.138,6.1504,6.1522,6.1552,6.1678,6.1699,6.1699,6.1699,6.2226,6.2812,6.2969,6.3437,6.3926,6.4238,6.4062,6.3848,6.3848,6.3848,6.3848,6.3848,6.3848,6.3848,6.3848,6.3848,6.3848,6.3848,6.2598,6.1699,6.1699,6.1699,6.1699,6.1699,6.2363,6.2773,6.2773,6.3594,6.4062,6.4062,6.4902,6.5449,6.5605,6.6308,6.6758,6.6894,6.6894,6.6894,6.6894,6.6894,6.6894,6.4196,6.4622,6.4568,6.4351,6.3984,6.3437,6.2539,6.1992,6.1699,6.1699,6.1699,6.1699,6.1699,6.3476,6.5625,6.7754,6.9902,7.2539,7.5976,7.6113,7.6347,7.7676,7.7441,7.7031,0.0,7.6477,0.0,0.0,0.0,7.448,7.3729,7.2743,7.2266,7.2363,7.2427,7.2267,7.1857,7.1951,7.1711,7.1123,7.1046,7.0503,6.9538,6.8564,6.7934,6.7567,6.6757,0.0,6.6381,6.6283,6.624,6.624,6.624,6.624,6.6252,6.6354,6.6134,6.5768,6.5666,6.5044,6.4171,6.3218,6.2463,6.1859,6.1503,6.1446,6.1608,6.2126,6.232,6.248,6.2949,6.3359,6.3789,6.4258,6.5019,6.539,6.4492,6.4668,6.4844,6.4394,6.4297,6.4297,6.4297,6.4297,6.4297,6.4297,6.4297,6.4297,6.4297,6.3574,6.3047,6.3047,6.2656,6.2558,6.3008,6.3437,6.3672,6.3672,6.4492,6.498,6.498,6.5801,6.6289,6.6289,6.6699,6.7129,6.7578,6.7578,6.7793,6.8183,6.7668,6.7424,6.4841,6.5381,6.5199,6.4485,6.4297,6.3848,6.2109,6.1699,6.1699,6.1699,6.1699,6.1699,6.1699,6.2969,6.4648,6.6582,6.8359,7.0742,7.4375,7.5039,7.5722,7.7285,7.748,0.0,7.7165,7.6996,0.0,0.0,0.0,0.0,7.4006,7.3343,7.2817,7.2447,7.2111,7.1852,7.1657,7.1835,7.1835,7.1657,7.1546,7.1126,7.0371,6.9324,6.8443,6.7732,6.6905,0.0,0.0,6.6109,6.6064,6.6064,6.6064,6.6064,6.607,6.6223,6.6287,6.6264,6.6119,6.56,6.483,6.3686,6.2906,6.2263,6.1473,6.1344,6.1636,6.2554,6.2894,6.3203,6.4062,6.4433,6.4805,6.5664,6.6406,6.6523,6.5156,6.539,6.5683,6.498,6.4863,6.4863,6.4863,6.4863,6.4863,6.4863,6.4863,6.4863,6.4863,6.4687,6.4648,6.4844,6.3906,6.3555,6.4238,6.4473,6.457,6.457,6.539,6.5879,6.5879,6.6543,6.6894,6.6894,6.707,6.7519,6.8203,6.8338,6.8747,6.9332,6.8502,6.8106,6.5727,6.627,6.5953,6.4622,6.4297,6.3848,6.2109,6.1699,6.1699,6.1699,6.1699,6.1699,6.1699,6.248,6.3945,6.6484,6.8301,7.0898,7.5176,7.6465,7.7305,7.8262,0.0,0.0,7.7016,0.0,0.0,0.0,0.0,0.0,7.2928,7.3492,7.3174,7.1656,7.2319,7.2329,7.1524,7.1653,7.1653,7.1524,7.1507,7.1365,7.1067,7.0058,6.913,6.827,6.7416,0.0,0.0,6.5921,6.5928,6.5928,6.5928,6.5928,6.5909,6.594,6.5952,6.5952,6.5921,6.587,6.5518,6.3845,6.276,6.1996,6.1256,6.1156,6.1531,6.2517,6.2894,6.3203,6.4062,6.4883,6.5703,6.6562,6.6836,6.6855,6.6699,6.6719,6.6758,6.668,6.666,6.666,6.666,6.666,6.666,6.666,6.666,6.666,6.666,6.5976,6.5781,6.6582,6.5176,6.4219,6.4297,6.5039,6.5488,6.5488,6.6308,6.6777,6.6777,6.6855,6.6894,6.6894,6.7676,6.8125,6.8203,6.8802,6.9141,6.9218,6.8939,6.8803,6.5206,6.6001,6.6051,6.4641,6.4297,6.3848,6.2109,6.1699,6.1699,6.1699,6.1634,6.158,6.158,6.1804,6.2648,6.4698,6.5597,6.7395,7.1322,7.2616,7.3864,7.5755,7.6438,0.0,0.0,0.0,0.0,0.0,0.0,0.0,7.2493,7.2723,7.2607,7.1943,7.1877,7.1665,7.1311,7.1577,7.1635,7.1501,7.1501,7.1396,7.1172,7.015,6.9218,6.8353,6.7475,0.0,0.0,6.5904,6.5904,6.5904,6.5904,6.5904,6.5904,6.5904,6.5904,6.5904,6.5904,6.5904,6.5609,6.3872,6.3083,6.2574,6.1274,6.0991,6.1444,6.298,6.3522,6.4009,6.5488,6.6113,6.6465,6.6816,6.6894,6.6894,6.6894,6.6894,6.6894,6.6894,6.6894,6.6894,6.6894,6.6894,6.6894,6.6894,6.6894,6.6894,6.6894,6.6601,6.6523,6.6855,6.5801,6.5293,6.582,6.6172,6.6387,6.6387,6.6719,6.7148,6.7656,6.7676,6.791,6.8398,6.8789,6.9177,6.9584,6.985,7.0192,7.0578,6.9834,6.9498,6.4338,6.5107,6.5307,6.4136,6.3862,6.3471,6.1987,6.1635,6.1633,6.1584,6.1507,6.1444,6.1444,6.1568,6.212,6.3563,6.4227,6.5709,6.9025,7.0463,7.1924,7.3965,0.0,0.0,0.0,0.0,0.0,0.0,0.0,0.0,0.0,7.1963,7.1828,7.1828,7.1362,7.1131,7.1197,7.1482,7.1617,7.1557,7.1557,7.1331,7.0883,7.01,6.913,6.7975,0.0,0.0,0.0,6.5904,6.5904,6.5904,6.5904,6.5904,6.5904,6.5904,6.5904,6.5904,6.5904,6.5904,6.5647,6.4166,6.3679,6.341,6.1973,6.1467,6.1727,6.334,6.4345,6.5234,6.6562,6.6894,6.6875,6.6832,6.6854,6.6875,6.6812,6.6854,6.6894,6.6894,6.6894,6.6894,6.6894,6.6894,6.6894,6.6894,6.6894,6.6894,6.6894,6.6894,6.6894,6.6894,6.6348,6.623,6.6855,6.7148,6.7285,6.7285,6.7539,6.7949,6.8535,6.8555,6.8828,6.9394,6.9707,7.007,7.0497,7.0702,7.1007,7.1389,7.0587,7.0068,6.3342,6.3625,6.3499,6.2943,6.2814,6.258,6.17,6.1504,6.146,6.1323,6.1309,6.1309,6.1309,6.1945,6.2778,6.366,6.5258,6.7266,6.9824,7.1686,7.3072,0.0,0.0,0.0,0.0,0.0,0.0,0.0,0.0,0.0,0.0,7.1379,7.0918,7.0918,7.0905,7.0991,7.1197,7.1404,7.1569,7.1709,7.1709,7.1187,7.0204,6.9985,6.8881,0.0,0.0,0.0,0.0,6.5904,6.5904,6.5904,6.5904,6.5904,6.5904,6.5904,6.5904,6.5904,6.5904,6.5904,6.5743,6.4878,6.4589,6.4416,6.3545,6.2808,6.2493,6.3512,6.5271,6.6875,6.6894,6.6894,6.6854,6.6656,6.6763,6.6853,6.6655,6.6764,6.6894,6.6894,6.6894,6.6894,6.6894,6.6894,6.6894,6.6894,6.6894,6.6894,6.6894,6.6894,6.6894,6.6894,6.6894,6.6894,6.6894,6.7695,6.8183,6.8183,6.9004,6.9453,6.9394,6.9394,6.9394,6.9394,7.0254,7.0637,7.0497,7.1174,7.1381,7.1197,7.0991,7.0463,6.2597,6.3141,6.3442,6.2814,6.2667,6.2433,6.1551,6.1354,6.1344,6.1314,6.1193,6.1275,6.1869,6.2112,6.2886,6.4909,6.5707,6.6766,6.8813,7.061,0.0,7.2807,7.4605,0.0,0.0,0.0,0.0,0.0,0.0,0.0,0.0,7.1052,7.0898,7.0898,7.0898,7.1011,7.1197,7.14,7.1566,7.1691,7.1691,7.117,7.0188,6.9989,0.0,0.0,0.0,0.0,0.0,6.5904,6.5904,6.5904,6.5904,6.5961,6.6042,6.6042,6.6042,6.6042,6.6042,6.5988,6.5763,6.4878,6.4609,6.4436,6.3564,6.3149,6.3217,6.4365,6.5758,6.6894,6.6894,6.6809,6.6684,6.6622,6.6571,6.6572,6.659,6.6656,6.6738,6.6874,6.6894,6.6894,6.6894,6.6894,6.6894,6.6894,6.6894,6.6894,6.6894,6.6894,6.6894,6.6894,6.6894,6.7148,6.7734,6.8047,6.8457,6.9043,6.9297,6.9687,7.0254,7.0293,7.0566,7.1172,7.1314,7.1317,7.1171,7.1256,7.1186,7.0985,7.0933,7.0764,6.1716,6.2128,6.2457,6.2082,6.1997,6.1861,6.131,6.119,6.1172,6.1112,6.1005,6.1186,6.207,6.2409,6.3185,6.5089,6.5936,6.6858,6.8314,0.0,0.0,7.2671,0.0,0.0,0.0,0.0,0.0,0.0,0.0,0.0,0.0,7.061,7.0456,7.0456,7.0744,7.1011,7.1197,7.14,7.1566,7.1691,7.1447,7.0798,6.9807,6.9298,0.0,0.0,0.0,0.0,0.0,6.6314,6.6264,6.6019,6.6424,6.6428,6.6204,6.6204,6.6204,6.6191,6.6122,6.6058,6.5888,6.5287,6.5089,6.4999,6.4502,6.4174,6.4193,6.528,6.6224,6.6894,6.6894,6.6742,6.6588,6.6531,6.6498,6.6483,6.6514,6.6619,6.6742,6.6874,6.6894,6.6894,6.6894,6.6894,6.6894,6.6894,6.6894,6.6894,6.6894,6.6894,6.6894,6.6894,6.7187,6.7734,6.8613,6.8672,6.8906,6.9453,7.0058,7.0625,7.1172,7.1504,7.1933,7.248,7.2372,7.2205,7.199,7.1387,7.1009,7.0898,7.0898,7.0898,0.0,6.0806,6.0831,6.0959,6.0994,6.0994,6.0994,6.0994,0.0,6.0825,6.0806,6.1095,6.2095,6.2839,6.3641,6.4705,6.6186,0.0,0.0,6.9994,0.0,0.0,0.0,0.0,0.0,0.0,0.0,0.0,0.0,0.0,0.0,7.0148,6.9706,6.9706,7.0417,7.0908,7.1119,7.1291,7.1499,7.1691,7.0948,7.0108,6.9174,6.8163,0.0,0.0,0.0,0.0,0.0,6.6961,6.6918,6.6292,6.7226,6.7149,6.6503,6.6444,6.6406,6.6384,6.62,6.6132,6.6095,6.5967,6.5903,6.5921,6.6069,6.5673,6.5365,6.6188,6.6655,6.6894,6.6894,6.6742,6.6576,6.6441,6.65,6.6545,6.6435,6.6661,6.6875,6.6894,6.6894,6.6894,6.6894,6.6894,6.6914,6.6972,6.6992,6.7012,6.707,6.7031,6.6992,6.6992,6.7656,6.8457,6.9336,6.9453,6.9551,6.9668,7.1133,7.1992,7.1992,7.2773,7.3203,7.3203,7.3183,7.3005,7.2677,7.147,7.0898,7.0898,7.0898,7.0898,6.0806,0.0,6.0804,6.0834,6.085,6.085,0.0,6.085,6.0834,6.0818,6.0806,6.1454,6.3628,6.3622,6.4218,6.7045,0.0,0.0,6.9263,0.0,0.0,0.0,0.0,0.0,0.0,0.0,0.0,0.0,0.0,0.0,0.0,7.0148,6.9706,6.9706,6.9879,7.004,7.019,7.0254,7.0758,7.1672,7.0249,6.9429,6.9174,6.8163,0.0,0.0,0.0,0.0,6.5968,6.6818,6.7128,6.7043,6.6648,6.6922,6.7464,6.6799,6.6543,6.6541,6.6494,6.6416,6.6294,6.6104,6.5986,6.5921,6.6069,6.6101,6.6162,6.6462,6.6712,6.6894,6.6894,6.6742,6.6592,6.6569,6.6498,6.6465,6.6531,6.6618,6.6714,6.6874,6.6894,6.6894,6.6894,6.6894,6.7129,6.7793,6.789,6.8125,6.873,6.8281,6.789,6.789,6.748,6.7558,6.8437,6.9668,7.0683,7.1367,7.1777,7.1992,7.1992,7.2207,7.2305,7.2305,7.2058,7.1813,7.1567,7.1125,7.0898,7.0898,7.0898,7.0898,6.0806,6.1358,6.1954,6.1954,6.1954,6.1954,6.1954,6.1358,6.0806,6.0806,6.0806,6.1454,6.3608,6.3929,6.4756,6.7378,6.8475,0.0,0.0,0.0,0.0,0.0,0.0,0.0,0.0,0.0,0.0,0.0,0.0,0.0,0.0,6.9763,6.9103,6.9103,6.8725,6.8931,6.9801,6.9862,7.024,7.0869,6.927,6.8714,6.9002,6.7599,6.7069,0.0,0.0,0.0,6.7122,6.8009,6.7994,6.7411,6.7379,6.7346,6.7242,6.6772,6.6658,6.6716,6.663,6.6509,6.6371,6.6268,6.6187,6.6147,6.6289,6.641,6.6505,6.6583,6.6741,6.6894,6.6894,6.6742,6.6597,6.6597,6.6537,6.6509,6.6587,6.6663,6.6765,6.6874,6.6894,6.6894,6.6894,6.6894,6.7051,6.7539,6.7598,6.791,6.873,6.8476,6.8203,6.8203,6.8476,6.8691,6.8789,7.0332,7.1328,7.1406,7.1777,7.1992,7.1992,7.2383,7.2597,7.2597,7.2264,7.1843,7.1333,7.1046,7.0898,7.0898,7.0898,7.0898,6.096,6.2323,6.3592,6.3057,6.3102,6.3237,6.2987,6.182,6.0806,6.0806,6.0921,6.155,6.3352,6.4301,6.5436,0.0,0.0,0.0,7.1982,0.0,0.0,0.0,0.0,0.0,0.0,0.0,0.0,0.0,0.0,0.0,0.0,6.9237,6.8334,6.8218,6.7609,6.8013,6.9494,6.9484,6.9554,6.9696,6.8179,6.7963,6.8835,6.7094,6.7145,0.0,0.0,0.0,6.8475,6.9468,6.8973,6.7663,6.8385,6.7901,6.6772,6.6655,6.6737,6.6874,6.6692,6.6555,6.6423,6.6423,6.6428,6.6437,6.6569,6.6597,6.6619,6.6631,6.6765,6.6894,6.6894,6.6766,6.6653,6.6653,6.6653,6.6653,6.6653,6.6787,6.6894,6.6894,6.6894,6.6894,6.6894,6.6894,6.6953,6.707,6.7109,6.7402,6.8262,6.8379,6.8398,6.8398,6.9668,7.0293,6.9726,7.0996,7.1484,7.0742,7.1387,7.1797,7.1797,7.2637,7.3086,7.3065,7.2764,7.2214,7.1454,7.1085,7.0898,7.0898,7.0898,7.0898,6.1691,6.3745,6.4957,6.1934,6.2243,6.2929,6.1512,6.0973,6.0806,6.0806,6.1383,6.2633,6.5051,6.5609,6.6705,0.0,0.0,0.0,0.0,0.0,0.0,0.0,0.0,0.0,0.0,0.0,0.0,0.0,0.0,0.0,0.0,6.893,6.8064,6.7327,6.7898,6.8334,6.8603,6.7892,6.799,6.8854,6.7163,6.7242,6.8855,6.7715,6.7707,0.0,0.0,6.8949,6.8475,6.9355,6.9243,6.8433,6.7861,6.7667,6.7613,6.6871,6.6737,6.6894,6.6855,6.6736,6.6576,6.6576,6.6491,6.6437,6.6569,6.6597,6.6631,6.681,6.6874,6.6894,6.6894,6.6874,6.6854,6.6854,6.6854,6.6854,6.6854,6.6874,6.6894,6.6894,6.6894,6.6894,6.6894,6.6894,6.7148,6.789,6.8008,6.8281,6.9101,6.9219,6.9238,6.9297,6.9531,6.9902,7.0469,7.0742,7.084,7.0703,7.082,7.0898,7.0898,7.1738,7.2124,7.1945,7.1775,7.1556,7.1257,7.1016,7.0898,7.0898,7.0898,7.0898,6.071,6.2757,6.4376,6.2818,6.4401,6.5973,6.4674,6.3663,6.2983,6.2881,6.2801,6.3397,6.5519,6.6269,6.75,7.0437,0.0,0.0,0.0,0.0,0.0,0.0,0.0,0.0,0.0,0.0,0.0,0.0,0.0,0.0,0.0,0.0,6.7513,6.7116,6.7071,6.7263,6.7686,6.6865,6.739,6.9212,6.7469,6.76,6.9302,6.8375,6.8635,6.9839,0.0,6.9725,6.9783,7.0187,6.9631,6.8498,6.81,6.7581,6.7055,6.6841,6.6812,6.6894,6.6894,6.6833,6.6764,6.6764,6.673,6.6671,6.6738,6.6764,6.6787,6.6874,6.6894,6.6894,6.6894,6.6894,6.6894,6.6894,6.6894,6.6894,6.6894,6.6894,6.6894,6.6894,6.6894,6.6894,6.6894,6.6894,6.7031,6.7441,6.789,6.8496,6.9355,6.9824,7.0117,7.0156,7.0566,7.0801,7.0703,7.0703,7.0898,7.1367,7.0957,7.0918,7.1387,7.1671,7.1785,7.1691,7.1462,7.1299,7.1197,7.0991,7.0898,7.0898,7.0898,7.0898,5.9971,6.1795,6.363,6.3768,6.5777,6.7595,6.7196,6.5794,6.4658,6.4849,6.4372,6.4372,6.5904,6.7173,0.0,7.0321,0.0,0.0,0.0,0.0,0.0,0.0,0.0,0.0,0.0,0.0,0.0,0.0,0.0,0.0,0.0,0.0,6.7019,6.6827,6.6404,6.6481,6.7096,6.65,6.7263,6.9379,6.784,6.8013,6.9687,6.9007,6.9507,7.086,7.0244,7.0341,7.0898,7.0706,6.9744,6.8372,6.818,6.7404,6.6446,6.6782,6.6894,6.6894,6.6894,6.6894,6.6894,6.6894,6.6894,6.6894,6.6894,6.6894,6.6894,6.6894,6.6894,6.6894,6.6894,6.6894,6.6894,6.6894,6.6894,6.6894,6.6894,6.6894,6.6894,6.6894,6.6894,6.6894,6.6894,6.6894,6.6894,6.6894,6.7637,6.8437,6.9101,7.0078,7.0703,7.0703,7.1484,7.1738,7.1055,7.082,7.1074,7.1933,7.1172,7.0996,7.168,7.1691,7.17,7.1655,7.1345,7.1185,7.114,7.0973,7.0898,7.0898,7.0898,7.0898,6.0663,6.222,6.3625,6.3761,6.3984,6.4519,6.5887,6.4894,6.4106,6.5504,6.5763,6.5974,6.6846,6.8994,7.0437,6.9879,0.0,0.0,0.0,0.0,0.0,0.0,0.0,0.0,0.0,0.0,0.0,0.0,0.0,0.0,0.0,0.0,0.0,6.6019,6.6654,6.7039,6.7096,6.7039,6.7513,6.8487,6.7552,6.8013,6.9706,6.9648,7.0071,7.0898,7.0841,7.0841,7.0841,7.009,6.9237,6.8314,6.7513,6.6867,6.6446,6.6782,6.6894,6.6894,6.6894,6.6894,6.6894,6.6894,6.6894,6.6894,6.6894,6.6894,6.6894,6.6894,6.6894,6.6894,6.6894,6.6894,6.6894,6.6894,6.6894,6.6894,6.6894,6.6894,6.6894,6.6894,6.6894,6.6894,6.6894,6.6894,6.6894,6.6894,6.7637,6.8222,6.8281,6.9707,7.0703,7.0703,7.1484,7.1972,7.1914,7.1172,7.1074,7.1933,7.1172,7.0722,7.0781,7.1378,7.1644,7.1524,7.1302,7.1106,7.092,7.0912,7.0898,7.0898,7.0898,7.0898,5.9313,6.1175,6.3109,6.3657,6.3889,6.4532,6.6629,6.6578,6.6527,6.8065,6.7894,6.7545,6.7859,0.0,6.9417,0.0,0.0,0.0,0.0,0.0,0.0,0.0,0.0,0.0,0.0,0.0,0.0,0.0,0.0,0.0,0.0,0.0,0.0,6.5904,6.6211,6.6596,6.7096,6.6596,6.7301,6.9206,6.8321,6.8552,6.9725,7.0225,7.0341,7.0148,7.0148,6.986,6.9314,6.9026,6.8455,6.7704,6.7048,6.6682,6.6559,6.6809,6.6894,6.6894,6.6894,6.6894,6.6894,6.6894,6.6894,6.6894,6.6894,6.6894,6.6894,6.6894,6.6894,6.6894,6.6894,6.6894,6.6894,6.6894,6.6894,6.6894,6.6894,6.6894,6.6894,6.6894,6.6894,6.6894,6.6894,6.6894,6.6894,6.6894,6.7637,6.8379,6.8887,6.9961,7.0918,7.1445,7.1797,7.1777,7.123,7.1387,7.1426,7.1191,7.0879,7.0896,7.1304,7.1491,7.1479,7.1326,7.1117,7.0973,7.0898,7.0898,7.0898,7.0898,7.0898,7.0898,5.8467,6.0239,6.223,6.3108,6.3438,6.4162,6.6632,6.737,6.7971,6.9517,6.9076,6.8314,6.8045,6.7987,0.0,0.0,0.0,0.0,0.0,0.0,0.0,0.0,0.0,0.0,0.0,0.0,0.0,0.0,0.0,0.0,0.0,0.0,0.0,0.0,6.5904,6.6154,6.6731,6.6214,6.684,6.855,6.8284,6.8857,7.0195,7.0734,7.0578,6.9855,6.9855,6.9334,6.8447,6.8184,6.7655,6.695,6.6707,6.6597,6.6627,6.6832,6.6894,6.6894,6.6894,6.6894,6.6894,6.6894,6.6894,6.6894,6.6894,6.6894,6.6894,6.6894,6.6894,6.6894,6.6894,6.6894,6.6894,6.6894,6.6894,6.6894,6.6894,6.6894,6.6894,6.6894,6.6894,6.6894,6.6894,6.6894,6.6894,6.6894,6.7637,6.8496,6.9297,7.0156,7.1035,7.1914,7.1992,7.1758,7.1152,7.166,7.1758,7.1152,7.1113,7.1283,7.1675,7.1572,7.1408,7.1202,7.0998,7.0898,7.0898,7.0898,7.0898,7.0898,7.0898,7.0898,5.8462,5.964,6.1034,6.2046,6.232,6.2987,6.5508,6.6758,6.7831,6.9361,6.8987,6.8122,6.7269,6.7096,0.0,0.0,0.0,0.0,0.0,0.0,0.0,0.0,0.0,0.0,0.0,0.0,0.0,0.0,0.0,0.0,0.0,0.0,0.0,0.0,6.5904,6.5904,6.5904,6.6032,6.6109,6.6114,6.713,6.8843,7.1163,7.1182,7.0808,7.0187,7.0187,6.9589,6.8515,6.7716,6.6888,6.6141,6.6476,6.6598,6.6627,6.6832,6.6894,6.6894,6.6894,6.6894,6.6894,6.6894,6.6894,6.6894,6.6894,6.6894,6.6894,6.6894,6.6894,6.6894,6.6894,6.6894,6.6894,6.6894,6.6894,6.6894,6.6894,6.6894,6.6894,6.6894,6.6894,6.6894,6.6894,6.6894,6.6894,6.6894,6.7637,6.8476,6.9297,7.0176,7.1035,7.1914,7.1992,7.1992,7.1992,7.1992,7.1992,7.1992,7.1992,7.1907,7.1712,7.1572,7.1408,7.1202,7.0998,7.0898,7.0898,7.0898,7.0898,7.0898,7.0898,7.0898,5.8351,5.9625,6.1133,6.1951,6.3109,6.4222,6.4886,6.5789,6.6914,6.8475,6.809,6.7398,6.7154,6.6635,0.0,0.0,0.0,0.0,0.0,0.0,0.0,0.0,0.0,0.0,0.0,0.0,0.0,0.0,0.0,0.0,0.0,0.0,0.0,0.0,6.5904,6.5904,6.5904,6.5938,6.6306,6.7019,6.7322,6.7885,6.8707,6.9947,6.9729,6.8401,6.903,6.8435,6.7047,6.6902,6.6632,6.6344,6.6677,6.6811,6.6811,6.6874,6.6894,6.6894,6.6894,6.6894,6.6894,6.6894,6.6894,6.6894,6.6894,6.6894,6.6894,6.6894,6.6894,6.6894,6.6894,6.6894,6.6894,6.6894,6.6894,6.6894,6.6894,6.6894,6.6894,6.6894,6.6894,6.6894,6.6894,6.6894,6.6894,6.6894,6.7129,6.7793,6.9219,7.0703,7.1719,7.1972,7.1992,7.1992,7.1992,7.1992,7.1931,7.1806,7.1783,7.1728,7.1563,7.1531,7.1333,7.1004,7.0933,7.0898,7.0898,7.0898,7.0898,7.0898,7.0898,7.0898,5.9291,6.0472,6.1788,6.2903,6.394,6.4784,6.5056,6.5826,6.6865,6.8142,6.7705,6.7096,6.7096,6.6442,0.0,0.0,0.0,0.0,0.0,0.0,0.0,0.0,0.0,0.0,0.0,0.0,0.0,0.0,0.0,0.0,0.0,0.0,0.0,0.0,6.5904,6.5904,6.5904,6.6036,6.64,6.7008,6.7146,6.7235,6.7382,6.9399,6.958,6.8301,6.8079,6.7413,6.6486,6.6574,6.6543,6.652,6.6786,6.6894,6.6894,6.6894,6.6894,6.6894,6.6894,6.6894,6.6894,6.6894,6.6894,6.6894,6.6894,6.6894,6.6894,6.6894,6.6894,6.6894,6.6894,6.6894,6.6894,6.6894,6.6894,6.6894,6.6894,6.6894,6.6894,6.6894,6.6894,6.6894,6.6894,6.6894,6.6894,6.6894,6.7187,6.789,6.9238,7.0625,7.1621,7.1953,7.1992,7.1972,7.1885,7.1884,7.1805,7.1633,7.1624,7.1541,7.1392,7.138,7.1237,7.0912,7.0898,7.0898,7.0898,7.0898,7.0898,7.0898,7.0898,7.0898,6.0767,6.1702,6.261,6.4358,6.4743,6.4936,6.5724,6.6404,6.7109,6.7987,0.0,6.6865,6.6865,0.0,0.0,0.0,0.0,0.0,0.0,0.0,0.0,0.0,0.0,0.0,0.0,0.0,0.0,0.0,0.0,0.0,0.0,0.0,0.0,0.0,6.5904,6.5904,6.5904,6.6209,6.6371,0.0,6.6727,6.6914,6.709,6.9288,6.9918,6.9199,6.7396,6.6624,6.6598,6.6624,6.6624,6.6625,6.6812,6.6894,6.6894,6.6894,6.6894,6.6894,6.6894,6.6894,6.6894,6.6894,6.6894,6.6894,6.6894,6.6894,6.6894,6.6894,6.6894,6.6894,6.6894,6.6894,6.6894,6.6894,6.6894,6.6894,6.6894,6.6894,6.6894,6.6894,6.6894,6.6894,6.6894,6.6894,6.6894,6.6874,6.7636,6.8476,6.9256,7.0136,7.0976,7.1756,7.1912,7.1823,7.1471,7.1523,7.1492,7.1351,7.1359,7.1306,7.1171,7.1186,7.11,7.0905,7.0898,7.0898,7.0898,7.0898,7.0898,7.0898,7.0898,7.0898,6.0495,6.109,6.1818,6.4075,6.5145,6.5673,6.5865,6.5493,6.5378,6.6263,6.5743,6.5147,0.0,0.0,0.0,0.0,0.0,0.0,0.0,0.0,0.0,0.0,0.0,0.0,0.0,0.0,0.0,0.0,0.0,0.0,0.0,0.0,0.0,6.5904,6.5904,6.5904,6.5904,6.6074,6.6236,0.0,6.6572,6.7113,6.7949,6.8455,6.8612,6.8398,6.7303,6.6741,6.6601,6.6766,6.674,6.6625,6.6812,6.6894,6.6894,6.6894,6.6894,6.6894,6.6894,6.6894,6.6894,6.6894,6.6894,6.6894,6.6894,6.6894,6.6894,6.6894,6.6894,6.6894,6.6894,6.6894,6.6894,6.6894,6.6894,6.6894,6.6894,6.6894,6.6894,6.6894,6.6894,6.6894,6.6894,6.6894,6.6853,6.6687,6.7532,6.8408,6.8948,6.9919,7.0541,7.0576,7.1201,7.1035,6.961,7.013,7.0443,7.0257,7.0239,7.0469,7.0947,7.1117,7.11,7.0905,7.0898,7.0898,7.0898,7.0898,7.0898,7.0898,7.0898,7.0898,6.0605,6.1636,6.2709,6.4726,6.5243,6.5282,6.5282,6.4609,6.4109,6.457,6.4301,6.3968,0.0,0.0,0.0,0.0,0.0,0.0,0.0,0.0,0.0,0.0,0.0,0.0,0.0,0.0,0.0,0.0,0.0,0.0,0.0,6.5904,6.5904,6.5904,6.5904,6.5904,6.5904,6.6124,6.6294,6.639,6.6637,6.7043,6.7598,6.8008,6.8203,6.8144,6.7285,6.6833,6.6743,6.6854,6.6833,6.6743,6.6854,6.6894,6.6894,6.6894,6.6894,6.6894,6.6894,6.6894,6.6894,6.6894,6.6894,6.6894,6.6894,6.6894,6.6894,6.6894,6.6894,6.6894,6.6894,6.6894,6.6894,6.6894,6.6894,6.6894,6.6894,6.6894,6.6894,6.6894,6.6894,6.6894,6.6894,6.6894,6.6833,6.6628,6.7428,6.8252,6.8834,6.9749,7.0486,7.0797,7.1232,7.1096,7.0094,7.0412,7.0582,7.0392,7.0369,7.0547,7.0886,7.0998,7.1004,7.0905,7.0898,7.0898,7.0898,7.0898,7.0898,7.0898,7.0898,7.0898,6.0501,6.2248,6.3887,6.533,6.5128,6.4609,6.4609,6.382,6.3083,6.3083,6.3083,0.0,0.0,0.0,0.0,0.0,0.0,0.0,0.0,0.0,0.0,0.0,0.0,0.0,0.0,0.0,0.0,0.0,0.0,0.0,6.5904,6.5904,6.5904,6.5904,6.5904,6.591,6.5926,6.6247,6.6402,6.6432,6.6755,6.6894,6.6914,6.7656,6.7988,6.7949,6.7207,6.6894,6.6894,6.6894,6.6894,6.6894,6.6894,6.6894,6.6894,6.6894,6.6894,6.6894,6.6894,6.6894,6.6894,6.6894,6.6894,6.6894,6.6894,6.6894,6.6894,6.6894,6.6894,6.6894,6.6894,6.6894,6.6894,6.6894,6.6894,6.6894,6.6894,6.6894,6.6894,6.6894,6.6894,6.6894,6.6894,6.6894,6.6812,6.661,6.7325,6.8121,6.8737,6.9461,7.0246,7.1089,7.1186,7.1053,7.0743,7.0857,7.0867,7.0707,7.0687,7.0764,7.0898,7.0898,7.0898,7.0898,7.0898,7.0898,7.0898,7.0898,7.0898,7.0898,7.0898,7.0898,5.9346,6.1508,6.358,6.4519,6.4686,6.4609,6.4609,6.3378,6.2268,0.0,0.0,0.0,0.0,0.0,0.0,0.0,0.0,0.0,0.0,0.0,0.0,0.0,0.0,0.0,0.0,0.0,0.0,0.0,0.0,0.0,6.5904,6.5904,6.5904,6.5904,6.5904,6.5961,6.6075,6.6283,6.6457,6.658,6.6808,6.6894,6.6894,6.7012,6.707,6.707,6.6953,6.6894,6.6894,6.6894,6.6894,6.6894,6.6894,6.6894,6.6894,6.6894,6.6894,6.6894,6.6894,6.6894,6.6894,6.6894,6.6894,6.6894,6.6894,6.6894,6.6894,6.6894,6.6894,6.6894,6.6894,6.6894,6.6894,6.6894,6.6894,6.6894,6.6894,6.6894,6.6894,6.6894,6.6894,6.6894,6.6894,6.6894,6.6785,6.6463,6.7279,6.8032,6.8427,6.8673,6.9093,6.9854,6.9938,6.9611,6.8835,6.9464,6.9887,6.986,6.986,7.0167,7.0879,7.0898,7.0898,7.0898,7.0898,7.0898,7.0898,7.0898,7.0898,7.0898,7.0898,7.0898,5.9546,6.105,6.2339,6.4147,6.3897,6.332,6.3782,6.257,6.1364,6.1364,0.0,0.0,0.0,0.0,0.0,0.0,0.0,0.0,0.0,0.0,0.0,0.0,0.0,0.0,0.0,0.0,0.0,0.0,0.0,6.5904,6.5904,6.5904,6.5904,6.5904,6.5904,6.5959,6.6109,6.6294,6.6522,6.6765,6.6854,6.6894,6.6894,6.6894,6.6894,6.6894,6.6894,6.6894,6.6894,6.6894,6.6894,6.6894,6.6894,6.6894,6.6894,6.6894,6.6894,6.6894,6.6894,6.6894,6.6894,6.6894,6.6894,6.6894,6.6894,6.6894,6.6894,6.6894,6.6894,6.6894,6.6894,6.6894,6.6894,6.6894,6.6894,6.6894,6.6894,6.6894,6.6894,6.6894,6.6894,6.6894,6.6894,6.681,6.6669,6.6423,6.7103,6.7803,6.834,6.8885,6.9514,7.0296,7.0379,7.0225,6.984,7.0148,7.0379,7.0379,7.0379,7.0533,7.0898,7.0898,7.0898,7.0898,7.0898,7.0898,7.0898,7.0898,7.0898,7.0898,7.0898,7.0898,5.8709,5.9825,6.0723,6.3051,6.2864,6.2268,6.2858,0.0,6.0806,0.0,0.0,0.0,0.0,0.0,0.0,0.0,0.0,0.0,0.0,0.0,0.0,0.0,0.0,0.0,0.0,0.0,0.0,0.0,0.0,6.5904,6.5904,6.5904,6.5904,6.5904,6.5904,6.5999,6.6161,6.6409,6.6657,6.6894,6.6894,6.6894,6.6894,6.6894,6.6894,6.6894,6.6894,6.6894,6.6894,6.6894,6.6894,6.6894,6.6894,6.6894,6.6894,6.6894,6.6894,6.6894,6.6894,6.6894,6.6894,6.6894,6.6758,6.6562,6.6562,6.6562,6.6562,6.6562,6.6738,6.6894,6.6894,6.6894,6.6894,6.6894,6.6894,6.6894,6.6894,6.6894,6.6894,6.6894,6.6894,6.6894,6.6894,6.6738,6.6545,6.6412,6.6977,6.7557,6.8014,6.8648,6.9436,7.0475,7.0398,7.0437,7.086,7.0898,7.0898,7.0898,7.0898,7.0898,7.0898,7.0898,7.0898,7.0898,7.0898,7.0898,7.0898,7.0898,7.0898,7.0898,7.0898,7.0898,5.5491,5.7165,5.8838,6.0569,6.1556,6.2114,0.0,0.0,0.0,0.0,0.0,0.0,0.0,0.0,0.0,0.0,0.0,0.0,0.0,0.0,0.0,0.0,0.0,0.0,0.0,0.0,0.0,0.0,0.0,6.5904,6.5904,6.5904,6.5904,6.5904,6.5904,6.6054,6.6371,6.6702,6.6875,6.6894,6.6894,6.6894,6.6894,6.6894,6.6894,6.6894,6.6894,6.6894,6.6894,6.6894,6.6894,6.6894,6.6894,6.6894,6.6894,6.6894,6.6894,6.6894,6.6894,6.6894,6.6894,6.6894,6.6348,6.5664,6.5664,6.5664,6.5664,6.5664,6.6269,6.6894,6.6894,6.6894,6.6894,6.6894,6.6894,6.6894,6.6894,6.6894,6.6894,6.6894,6.6894,6.6894,6.6894,6.6738,6.6545,6.6412,6.6977,6.7344,6.7199,6.7212,6.7878,6.959,6.9026,6.9161,7.0764,7.0898,7.0898,7.0898,7.0898,7.0898,7.0898,7.0898,7.0898,7.0898,7.0898,7.0898,7.0898,7.0898,7.0898,7.0898,7.0898,7.0898,5.4607,5.5761,5.7165,5.9415,6.0204,6.0723,6.1845,6.1422,0.0,0.0,0.0,0.0,0.0,0.0,0.0,0.0,0.0,0.0,0.0,0.0,0.0,0.0,0.0,0.0,0.0,0.0,0.0,0.0,0.0,0.0,6.5032,6.507,6.532,6.5878,6.5904,6.6065,6.6403,6.673,6.6894,6.6894,6.6894,6.6894,6.6894,6.6894,6.6894,6.6894,6.6894,6.6894,6.6894,6.6894,6.6894,6.6894,6.6894,6.6894,6.6894,6.6894,6.6894,6.6894,6.6894,6.6894,6.6816,6.625,6.5859,6.5508,6.4941,6.4765,6.4883,6.5449,6.582,6.6191,6.6758,6.6894,6.6894,6.6894,6.6894,6.6894,6.6894,6.6894,6.6894,6.6894,6.6894,6.6854,6.6738,6.6588,6.6421,6.6232,6.6335,6.6591,6.7032,6.7096,6.777,6.9513,6.9417,6.9687,7.0802,7.0898,7.0898,7.0898,7.0898,7.0898,7.0898,7.0898,7.0898,7.0898,7.0898,7.0898,7.0898,7.0898,7.0898,7.0898,7.0898,7.0898,5.3395,5.4434,5.5843,5.8088,5.9088,5.9877,6.1325,0.0,0.0,0.0,0.0,0.0,0.0,0.0,0.0,0.0,0.0,0.0,0.0,0.0,0.0,0.0,0.0,0.0,0.0,0.0,0.0,0.0,0.0,0.0,6.4122,6.4166,6.4436,6.5013,6.5412,6.5604,6.5528,6.6144,6.6328,6.6035,6.6035,6.6035,6.6035,6.6035,6.6191,6.6465,6.6465,6.6621,6.6894,6.6894,6.6894,6.6894,6.6894,6.6894,6.6894,6.6894,6.6894,6.6894,6.6894,6.6894,6.6797,6.6211,6.584,6.5488,6.4902,6.4746,6.4863,6.5449,6.5801,6.6172,6.6758,6.6894,6.6894,6.6894,6.6894,6.6894,6.6894,6.6894,6.6894,6.6894,6.6894,6.6833,6.663,6.6488,6.6327,6.6127,6.5991,6.6096,6.6635,6.6692,6.7244,6.8667,6.909,6.961,7.0437,7.0744,7.0898,7.0898,7.0898,7.0898,7.0898,7.0898,7.0898,7.0898,7.0898,7.0898,7.0898,7.0898,7.0898,7.0898,7.0898,7.0898,0.0,0.0,0.0,0.0,0.0,0.0,6.0556,0.0,0.0,0.0,0.0,0.0,0.0,0.0,0.0,0.0,0.0,0.0,0.0,0.0,0.0,0.0,0.0,0.0,0.0,0.0,0.0,0.0,0.0,6.3237,6.3256,6.3281,6.3313,6.33,6.4453,6.4667,6.3825,6.4974,6.5137,6.4297,6.4297,6.4297,6.4297,6.4297,6.4785,6.5605,6.5605,6.6094,6.6894,6.6894,6.6894,6.6894,6.6894,6.6875,6.6855,6.6894,6.6875,6.6875,6.6894,6.6894,6.6894,6.6836,6.6269,6.5586,6.5547,6.5547,6.5566,6.5586,6.6211,6.6875,6.6894,6.6894,6.6894,6.6894,6.6894,6.6894,6.6894,6.6894,6.6894,6.6894,6.6894,6.6833,6.6627,6.6486,6.6323,6.6118,6.5986,6.5904,6.5904,6.5904,6.6211,6.7019,6.7878,6.8757,6.9629,7.0437,7.0898,7.0898,7.0898,7.0898,7.0898,7.0898,7.0898,7.0898,7.0898,7.0898,7.0898,7.0898,7.0898,7.0898,7.0898,7.0898,5.0976,0.0,0.0,0.0,0.0,0.0,0.0,0.0,0.0,0.0,0.0,0.0,0.0,0.0,0.0,0.0,0.0,0.0,0.0,0.0,0.0,0.0,0.0,0.0,0.0,0.0,0.0,0.0,6.1377,6.1762,6.2403,6.3116,6.3555,6.3662,6.4129,6.4252,6.4018,6.4441,6.4531,6.4297,6.4297,6.4297,6.4297,6.4297,6.4785,6.5605,6.5605,6.6094,6.6894,6.6894,6.6894,6.6894,6.6894,6.6504,6.6035,6.668,6.6504,6.6055,6.668,6.6894,6.6699,6.543,6.5273,6.5351,6.4101,6.416,6.4785,6.543,6.5762,6.6094,6.6738,6.6894,6.6894,6.6894,6.6894,6.6894,6.6894,6.6894,6.6894,6.6894,6.6894,6.6808,6.6512,6.6418,6.6299,6.5997,6.5921,6.5904,6.5904,6.5904,6.6211,6.7019,6.7878,6.8757,6.9629,7.0437,7.0898,7.0898,7.0898,7.0898,7.0898,7.0898,7.0898,7.0898,7.0898,7.0898,7.0898,7.0898,7.0898,7.0898,7.0898,7.0898,5.1202,5.2183,0.0,0.0,0.0,0.0,0.0,5.9492,0.0,0.0,0.0,0.0,0.0,0.0,0.0,0.0,0.0,0.0,0.0,0.0,0.0,0.0,0.0,0.0,0.0,0.0,0.0,6.0825,6.0806,6.1056,6.1601,6.2191,6.2582,6.275,6.3284,6.3375,6.3023,6.3509,6.3574,6.3223,6.3223,6.3223,6.3223,6.3223,6.3691,6.4512,6.4512,6.5215,6.6367,6.6367,6.6367,6.6367,6.6367,6.582,6.5156,6.6035,6.6035,6.5723,6.6601,6.6894,6.668,6.5293,6.543,6.5879,6.4492,6.4687,6.5488,6.5996,6.6133,6.6269,6.6777,6.6621,6.6367,6.6367,6.6367,6.6367,6.6367,6.6367,6.6465,6.6836,6.6894,6.6785,6.6463,6.6406,6.6299,6.5944,6.5904,6.5904,6.5904,6.5904,6.6077,6.6558,6.7686,6.8603,6.9103,7.0225,7.0898,7.0898,7.0898,7.0898,7.0898,7.0898,7.0898,7.0898,7.0898,7.0898,7.0898,7.0898,7.0898,7.0898,7.0898,7.0898,5.2077,5.2755,0.0,0.0,0.0,0.0,5.8896,5.93,0.0,0.0,0.0,0.0,0.0,0.0,0.0,0.0,0.0,0.0,0.0,0.0,0.0,0.0,0.0,0.0,0.0,6.2186,6.1763,6.0896,6.0804,6.0874,6.1023,6.104,6.1123,6.1331,6.2201,6.2316,6.1536,6.2416,6.2461,6.1699,6.1699,6.1699,6.1699,6.1699,6.2187,6.3008,6.3008,6.3926,6.5469,6.5566,6.5664,6.5723,6.5644,6.5137,6.4531,6.5312,6.5605,6.5723,6.6601,6.6894,6.6758,6.5879,6.6191,6.6738,6.5859,6.6211,6.6875,6.6777,6.6758,6.6738,6.664,6.6035,6.5469,6.5469,6.5469,6.5469,6.5469,6.5469,6.5683,6.6465,6.6699,6.6688,6.6444,6.6406,6.6299,6.5944,6.5904,6.5904,6.5904,6.5904,6.5904,6.5904,6.7321,6.8257,6.8257,6.9706,7.0629,7.0629,7.0629,7.0667,7.0764,7.0764,7.0802,7.0898,7.0898,7.0898,7.0898,7.0898,7.0898,7.0898,7.0898,7.0898,5.314,5.4068,5.5145,5.4799,0.0,0.0,5.7574,5.803,5.8583,0.0,0.0,0.0,0.0,0.0,0.0,0.0,0.0,0.0,0.0,0.0,0.0,0.0,0.0,0.0,0.0,6.2675,6.1906,6.1026,6.0864,6.0933,6.1224,6.124,6.1364,6.161,6.1812,6.1833,6.1658,6.1855,6.1875,6.1699,6.1699,6.1699,6.1699,6.1699,6.2187,6.3008,6.3008,6.3594,6.4609,6.5312,6.6015,6.6582,6.5879,6.5508,6.5371,6.5547,6.5605,6.5723,6.6601,6.6894,6.6758,6.5879,6.6191,6.6738,6.5859,6.6211,6.6758,6.6055,6.5859,6.5683,6.498,6.4687,6.4551,6.4551,6.4551,6.4551,6.4551,6.4551,6.4609,6.4765,6.5371,6.5965,6.6346,6.6406,6.6299,6.5944,6.5904,6.5904,6.5904,6.5904,6.5904,6.5904,6.6763,6.734,6.734,6.8302,6.8891,6.8891,6.8891,6.9199,6.9917,6.9937,7.0244,7.0898,7.0898,7.0898,7.0898,7.0898,7.0898,7.0898,7.0898,7.0898,5.3972,5.4453,5.5208,5.5631,0.0,0.0,0.0,0.0,5.7896,5.8723,0.0,0.0,0.0,0.0,0.0,0.0,0.0,0.0,0.0,0.0,0.0,0.0,0.0,0.0,0.0,6.3498,6.2471,6.1107,6.0945,6.1014,6.1294,6.1306,6.1428,6.1699,6.1699,6.1699,6.1699,6.1699,6.1699,6.1699,6.1699,6.1699,6.1699,6.1699,6.1933,6.2344,6.2344,6.3086,6.4297,6.4297,6.5078,6.6211,6.5762,6.5332,6.5,6.5449,6.5605,6.5723,6.6601,6.6894,6.6758,6.5879,6.6191,6.666,6.5351,6.5254,6.5508,6.5078,6.5254,6.539,6.4531,6.4297,6.4199,6.3769,6.3652,6.3652,6.3652,6.3652,6.3789,6.4219,6.4297,6.4617,6.5581,6.6114,6.6299,6.5944,6.5904,6.5904,6.5904,6.5904,6.5904,6.5904,6.6615,6.7096,6.7096,6.7898,6.8391,6.8391,6.8391,6.8603,6.9026,6.9475,7.0071,7.0879,7.0898,7.0898,7.0898,7.0898,7.0898,7.0898,7.0898,7.0898,0.0,0.0,0.0,0.0,0.0,5.6472,0.0,0.0,0.0,5.8511,0.0,0.0,0.0,0.0,0.0,0.0,0.0,0.0,0.0,0.0,0.0,0.0,0.0,0.0,0.0,6.3711,6.2705,6.1213,6.1033,6.1093,6.132,6.1304,6.1428,6.1699,6.1699,6.1699,6.1699,6.1679,6.1658,6.1658,6.1658,6.1658,6.1658,6.1699,6.1699,6.1699,6.1699,6.25,6.3769,6.3223,6.3828,6.5117,6.5273,6.5019,6.4648,6.5332,6.5605,6.5703,6.6406,6.664,6.6523,6.582,6.6074,6.6367,6.4785,6.4297,6.4277,6.4101,6.4687,6.5156,6.4277,6.4043,6.3867,6.3164,6.2871,6.2754,6.2754,6.2754,6.2969,6.3652,6.3379,6.3445,6.4855,6.5683,6.6081,6.5925,6.5904,6.5904,6.5904,6.5904,6.5904,6.5904,6.6481,6.6865,6.6865,6.7513,6.791,6.791,6.791,6.7987,6.8141,6.9148,7.0014,7.0667,7.0821,7.0898,7.0898,7.0898,7.0898,7.0898,7.0898,7.0898,0.0,0.0,0.0,0.0,5.6934,0.0,0.0,0.0,5.6824,5.6247,0.0,0.0,0.0,0.0,0.0,0.0,0.0,0.0,0.0,0.0,0.0,0.0,0.0,0.0,0.0,0.0,6.1548,6.1448,6.1168,6.1137,6.146,6.1357,6.1428,6.1699,6.1699,6.1699,6.1699,6.1581,6.1516,6.1516,6.1516,6.1516,6.1537,6.1656,6.1699,6.1699,6.1699,6.1816,6.2051,6.2715,6.3125,6.3379,6.414,6.4863,6.5469,6.5566,6.5605,6.5605,6.5703,6.5742,6.5723,6.5625,6.5664,6.5566,6.459,6.4297,6.414,6.3379,6.3789,6.4258,6.3379,6.3144,6.3125,6.3027,6.2402,6.1855,6.1855,6.1855,6.1875,6.1973,6.2539,6.3445,6.4855,6.5171,6.5394,6.5823,6.5904,6.5904,6.5904,6.5904,6.5904,6.5904,6.5981,6.6038,6.6038,6.6134,6.6186,6.6186,6.6186,6.6494,6.7231,6.8821,6.9744,6.984,7.0533,7.0898,7.0898,7.0898,7.0898,7.0898,7.0898,7.0898,0.0,0.0,0.0,0.0,0.0,0.0,5.6516,0.0,5.6285,0.0,0.0,0.0,0.0,0.0,0.0,0.0,0.0,0.0,0.0,0.0,0.0,0.0,0.0,0.0,0.0,0.0,0.0,0.0,0.0,6.1116,6.1366,6.132,6.1428,6.1699,6.1613,6.1581,6.1581,6.1451,6.1376,6.1376,6.1376,6.1411,6.1504,6.1552,6.1632,6.1699,6.1699,6.1992,6.2441,6.2305,6.2539,6.3047,6.3398,6.4394,6.5664,6.6172,6.6035,6.5605,6.5605,6.5273,6.4844,6.4844,6.4492,6.4023,6.3652,6.3183,6.2715,6.2344,6.2871,6.334,6.2461,6.2617,6.2871,6.2363,6.1973,6.1699,6.1699,6.1699,6.1699,6.1699,6.1992,6.2528,6.3434,6.4432,6.5278,6.5823,6.5904,6.5904,6.5904,6.5904,6.5904,6.5904,6.5904,6.5904,6.5904,6.5904,6.5904,6.5904,6.5904,6.6269,6.7077,6.7802,6.8667,6.9687,7.0033,7.0437,7.0898,7.0898,7.0898,7.0898,7.0898,7.0898,5.4377,0.0,0.0,0.0,0.0,0.0,0.0,0.0,0.0,0.0,0.0,0.0,0.0,0.0,0.0,0.0,0.0,0.0,0.0,0.0,0.0,0.0,0.0,0.0,0.0,0.0,0.0,0.0,0.0,0.0,6.1336,6.1329,6.1428,6.1699,6.1577,6.1504,6.1504,6.1303,6.1243,6.1306,6.1306,6.1361,6.1504,6.1543,6.1608,6.1699,6.1699,6.2051,6.2598,6.1953,6.207,6.2676,6.291,6.3926,6.5351,6.6211,6.6133,6.5566,6.5332,6.4668,6.3945,6.3945,6.3515,6.2969,6.2715,6.2207,6.1699,6.1699,6.2324,6.2851,6.2226,6.2539,6.2832,6.2207,6.1875,6.1699,6.1699,6.1699,6.1699,6.1699,6.1699,6.1864,6.2402,6.3748,6.4924,6.5457,6.5743,6.5904,6.5904,6.5904,6.5904,6.5904,6.5904,6.5904,6.5904,6.5904,6.5904,6.5904,6.5904,6.6154,6.675,6.6981,6.7693,6.8956,6.9456,6.9994,7.0571,7.0783,7.0898,7.0898,7.0898,7.0898,0.0,0.0,0.0,5.4998,0.0,0.0,0.0,0.0,5.5497,0.0,0.0,0.0,0.0,0.0,0.0,0.0,0.0,0.0,0.0,0.0,0.0,0.0,0.0,0.0,0.0,0.0,0.0,0.0,0.0,0.0,6.147,6.1361,6.1428,6.1699,6.1577,6.1504,6.1504,6.1175,6.1116,6.1306,6.1306,6.1361,6.1505,6.1634,6.1699,6.1699,6.1699,6.1719,6.1738,6.1719,6.1719,6.1836,6.2676,6.3555,6.4453,6.5312,6.5625,6.5488,6.4629,6.3769,6.3047,6.3047,6.3027,6.2832,6.1992,6.1719,6.1699,6.1699,6.2324,6.2988,6.2969,6.2988,6.2988,6.2969,6.2305,6.1699,6.1699,6.1699,6.1699,6.1699,6.1699,6.1864,6.2402,6.3258,6.4023,6.4565,6.5359,6.5904,6.5904,6.5904,6.5904,6.5904,6.5904,6.5904,6.5904,6.5904,6.5904,6.5904,6.5904,6.5904,6.5936,6.6692,6.7135,6.7173,6.884,6.9706,6.9744,7.0514,7.0898,7.0898,7.0898,7.0898,0.0,0.0,5.5502,5.5663,0.0,0.0,0.0,0.0,0.0,0.0,0.0,0.0,0.0,0.0,0.0,0.0,0.0,0.0,0.0,0.0,0.0,0.0,0.0,0.0,0.0,0.0,0.0,0.0,0.0,0.0,0.0,6.1315,6.1428,6.1699,6.1577,6.1504,6.1504,6.1293,6.123,6.1306,6.1306,6.1361,6.1504,6.1547,6.161,6.1699,6.1699,6.1699,6.1699,6.1699,6.1699,6.1738,6.2012,6.2676,6.3555,6.4414,6.5098,6.539,6.3945,6.2871,6.2148,6.2148,6.2148,6.207,6.1797,6.1699,6.1699,6.1699,6.1914,6.2148,6.2148,6.2148,6.2148,6.2148,6.1914,6.1699,6.1699,6.1699,6.1678,6.1582,6.1576,6.1552,6.1506,6.2226,6.3219,6.442,6.534,6.5904,6.5904,6.5904,6.5904,6.5904,6.5904,6.5904,6.5904,6.5904,6.5904,6.5904,6.5904,6.5904,6.5904,6.6154,6.6558,6.7096,6.8244,6.9122,6.9706,7.0514,7.0898,7.0898,7.0898,7.0898,5.3363,5.4058,0.0,5.4841,5.4929,0.0,5.4523,0.0,0.0,0.0,0.0,0.0,0.0,0.0,0.0,0.0,0.0,0.0,0.0,0.0,0.0,0.0,0.0,0.0,0.0,0.0,6.0806,6.0806,0.0,0.0,0.0,0.0,6.1392,6.1612,6.1547,6.1504,6.1504,6.1379,6.1315,6.1364,6.1364,6.1444,6.1577,6.1577,6.1611,6.1699,6.1699,6.1699,6.1699,6.1699,6.1699,6.1699,6.1699,6.2226,6.3066,6.3633,6.4199,6.4512,6.3398,6.2422,6.1699,6.1699,6.1699,6.1699,6.1699,6.1699,6.1699,6.1699,6.1699,6.1699,6.1699,6.1699,6.1699,6.1699,6.1699,6.1699,6.1699,6.1699,6.1658,6.1537,6.1504,6.1385,6.1058,6.1728,6.2718,6.3939,6.4878,6.5551,6.5865,6.5904,6.5904,6.5904,6.5904,6.5904,6.5904,6.5904,6.5904,6.5904,6.5904,6.5904,6.5904,6.5904,6.6134,6.6654,6.7821,6.868,6.9237,7.036,7.0744,7.0475,7.0475,7.0302]}]]